<?xml version="1.0" encoding="UTF-8" standalone="no" ?>
<gpx xmlns="http://www.topografix.com/GPX/1/1" xmlns:xsi="http://www.w3.org/2001/XMLSchema-instance" xsi:schemaLocation="http://www.topografix.com/GPX/1/1 http://www.topografix.com/GPX/1/1/gpx.xsd" version="1.1" creator="VisuGPX - https://www.visugpx.com">
  <metadata>
    <name>Sortie vélo du 29 janvier 2026</name>
    <desc><![CDATA[Plouisy - Saint Eloi - Pluzunet - Prat - Trezelan - Brélidy - Landebaéron - Kermorroch - Plouisy]]></desc>
  </metadata>
  <trk>
    <name><![CDATA[2026/1/29:08/44/52]]></name>
    <trkseg>
      <trkpt lat="48.57685" lon="-3.18919">
        <ele>155.83691</ele>
        <time>2026-01-29T07:45:02Z</time>
      </trkpt>
      <trkpt lat="48.57675" lon="-3.18925">
        <ele>149.87344</ele>
        <time>2026-01-29T07:45:04Z</time>
      </trkpt>
      <trkpt lat="48.5768" lon="-3.18927">
        <ele>147.8746</ele>
        <time>2026-01-29T07:45:17Z</time>
      </trkpt>
      <trkpt lat="48.5768" lon="-3.1894">
        <ele>146.88173</ele>
        <time>2026-01-29T07:45:29Z</time>
      </trkpt>
      <trkpt lat="48.57679" lon="-3.18939">
        <ele>146.29926</ele>
        <time>2026-01-29T07:45:35Z</time>
      </trkpt>
      <trkpt lat="48.57688" lon="-3.18945">
        <ele>145.87152</ele>
        <time>2026-01-29T07:46:42Z</time>
      </trkpt>
      <trkpt lat="48.57688" lon="-3.18943">
        <ele>145.56525</ele>
        <time>2026-01-29T07:46:48Z</time>
      </trkpt>
      <trkpt lat="48.57696" lon="-3.18935">
        <ele>145.1091</ele>
        <time>2026-01-29T07:47:44Z</time>
      </trkpt>
      <trkpt lat="48.57691" lon="-3.1891">
        <ele>143.51651</ele>
        <time>2026-01-29T07:47:50Z</time>
      </trkpt>
      <trkpt lat="48.57688" lon="-3.18885">
        <ele>143.32161</ele>
        <time>2026-01-29T07:47:55Z</time>
      </trkpt>
      <trkpt lat="48.57686" lon="-3.18865">
        <ele>143.0128</ele>
        <time>2026-01-29T07:47:59Z</time>
      </trkpt>
      <trkpt lat="48.57685" lon="-3.18843">
        <ele>142.56985</ele>
        <time>2026-01-29T07:48:03Z</time>
      </trkpt>
      <trkpt lat="48.57689" lon="-3.18822">
        <ele>142.01251</ele>
        <time>2026-01-29T07:48:07Z</time>
      </trkpt>
      <trkpt lat="48.57702" lon="-3.18807">
        <ele>141.35501</ele>
        <time>2026-01-29T07:48:12Z</time>
      </trkpt>
      <trkpt lat="48.57706" lon="-3.18788">
        <ele>140.55531</ele>
        <time>2026-01-29T07:48:16Z</time>
      </trkpt>
      <trkpt lat="48.57705" lon="-3.18765">
        <ele>139.88422</ele>
        <time>2026-01-29T07:48:20Z</time>
      </trkpt>
      <trkpt lat="48.57705" lon="-3.18743">
        <ele>138.96996</ele>
        <time>2026-01-29T07:48:24Z</time>
      </trkpt>
      <trkpt lat="48.57706" lon="-3.18721">
        <ele>138.05789</ele>
        <time>2026-01-29T07:48:28Z</time>
      </trkpt>
      <trkpt lat="48.57708" lon="-3.187">
        <ele>137.18463</ele>
        <time>2026-01-29T07:48:32Z</time>
      </trkpt>
      <trkpt lat="48.57707" lon="-3.18679">
        <ele>136.42563</ele>
        <time>2026-01-29T07:48:37Z</time>
      </trkpt>
      <trkpt lat="48.57694" lon="-3.1867">
        <ele>135.7652</ele>
        <time>2026-01-29T07:48:41Z</time>
      </trkpt>
      <trkpt lat="48.57678" lon="-3.18669">
        <ele>135.23074</ele>
        <time>2026-01-29T07:48:45Z</time>
      </trkpt>
      <trkpt lat="48.57665" lon="-3.18668">
        <ele>134.81541</ele>
        <time>2026-01-29T07:48:49Z</time>
      </trkpt>
      <trkpt lat="48.57655" lon="-3.18667">
        <ele>134.48962</ele>
        <time>2026-01-29T07:48:53Z</time>
      </trkpt>
      <trkpt lat="48.57648" lon="-3.1866">
        <ele>134.2726</ele>
        <time>2026-01-29T07:48:58Z</time>
      </trkpt>
      <trkpt lat="48.57649" lon="-3.1865">
        <ele>134.15848</ele>
        <time>2026-01-29T07:49:01Z</time>
      </trkpt>
      <trkpt lat="48.57655" lon="-3.18644">
        <ele>134.06949</ele>
        <time>2026-01-29T07:49:04Z</time>
      </trkpt>
      <trkpt lat="48.57667" lon="-3.18629">
        <ele>133.95428</ele>
        <time>2026-01-29T07:49:09Z</time>
      </trkpt>
      <trkpt lat="48.57677" lon="-3.18616">
        <ele>133.83127</ele>
        <time>2026-01-29T07:49:13Z</time>
      </trkpt>
      <trkpt lat="48.57688" lon="-3.18602">
        <ele>133.76862</ele>
        <time>2026-01-29T07:49:17Z</time>
      </trkpt>
      <trkpt lat="48.57699" lon="-3.18589">
        <ele>133.82283</ele>
        <time>2026-01-29T07:49:21Z</time>
      </trkpt>
      <trkpt lat="48.57712" lon="-3.18577">
        <ele>133.95386</ele>
        <time>2026-01-29T07:49:26Z</time>
      </trkpt>
      <trkpt lat="48.57727" lon="-3.1857">
        <ele>134.13145</ele>
        <time>2026-01-29T07:49:30Z</time>
      </trkpt>
      <trkpt lat="48.57741" lon="-3.18565">
        <ele>134.35216</ele>
        <time>2026-01-29T07:49:34Z</time>
      </trkpt>
      <trkpt lat="48.57749" lon="-3.18562">
        <ele>134.65636</ele>
        <time>2026-01-29T07:49:37Z</time>
      </trkpt>
      <trkpt lat="48.57764" lon="-3.18556">
        <ele>134.98712</ele>
        <time>2026-01-29T07:49:42Z</time>
      </trkpt>
      <trkpt lat="48.5778" lon="-3.18549">
        <ele>135.27426</ele>
        <time>2026-01-29T07:49:45Z</time>
      </trkpt>
      <trkpt lat="48.57793" lon="-3.18542">
        <ele>135.44409</ele>
        <time>2026-01-29T07:49:48Z</time>
      </trkpt>
      <trkpt lat="48.57809" lon="-3.18529">
        <ele>135.48535</ele>
        <time>2026-01-29T07:49:52Z</time>
      </trkpt>
      <trkpt lat="48.57822" lon="-3.1851">
        <ele>135.43466</ele>
        <time>2026-01-29T07:49:56Z</time>
      </trkpt>
      <trkpt lat="48.57831" lon="-3.18493">
        <ele>135.33217</ele>
        <time>2026-01-29T07:50:00Z</time>
      </trkpt>
      <trkpt lat="48.57838" lon="-3.18471">
        <ele>135.19647</ele>
        <time>2026-01-29T07:50:04Z</time>
      </trkpt>
      <trkpt lat="48.57843" lon="-3.18451">
        <ele>135.06595</ele>
        <time>2026-01-29T07:50:08Z</time>
      </trkpt>
      <trkpt lat="48.57849" lon="-3.18426">
        <ele>135.02211</ele>
        <time>2026-01-29T07:50:13Z</time>
      </trkpt>
      <trkpt lat="48.57857" lon="-3.18406">
        <ele>135.09409</ele>
        <time>2026-01-29T07:50:17Z</time>
      </trkpt>
      <trkpt lat="48.57866" lon="-3.18385">
        <ele>135.28337</ele>
        <time>2026-01-29T07:50:22Z</time>
      </trkpt>
      <trkpt lat="48.57873" lon="-3.18367">
        <ele>135.5332</ele>
        <time>2026-01-29T07:50:26Z</time>
      </trkpt>
      <trkpt lat="48.57882" lon="-3.18351">
        <ele>135.7898</ele>
        <time>2026-01-29T07:50:30Z</time>
      </trkpt>
      <trkpt lat="48.57891" lon="-3.18333">
        <ele>136.0091</ele>
        <time>2026-01-29T07:50:34Z</time>
      </trkpt>
      <trkpt lat="48.57901" lon="-3.18314">
        <ele>136.19913</ele>
        <time>2026-01-29T07:50:38Z</time>
      </trkpt>
      <trkpt lat="48.57912" lon="-3.18293">
        <ele>136.29219</ele>
        <time>2026-01-29T07:50:42Z</time>
      </trkpt>
      <trkpt lat="48.57921" lon="-3.18275">
        <ele>136.24039</ele>
        <time>2026-01-29T07:50:45Z</time>
      </trkpt>
      <trkpt lat="48.57933" lon="-3.18251">
        <ele>136.049</ele>
        <time>2026-01-29T07:50:49Z</time>
      </trkpt>
      <trkpt lat="48.57945" lon="-3.18228">
        <ele>135.753</ele>
        <time>2026-01-29T07:50:53Z</time>
      </trkpt>
      <trkpt lat="48.57958" lon="-3.18204">
        <ele>135.41023</ele>
        <time>2026-01-29T07:50:57Z</time>
      </trkpt>
      <trkpt lat="48.57967" lon="-3.18187">
        <ele>135.05954</ele>
        <time>2026-01-29T07:51:00Z</time>
      </trkpt>
      <trkpt lat="48.57977" lon="-3.18164">
        <ele>134.70187</ele>
        <time>2026-01-29T07:51:04Z</time>
      </trkpt>
      <trkpt lat="48.57987" lon="-3.18142">
        <ele>134.3419</ele>
        <time>2026-01-29T07:51:08Z</time>
      </trkpt>
      <trkpt lat="48.57996" lon="-3.18121">
        <ele>134.02164</ele>
        <time>2026-01-29T07:51:12Z</time>
      </trkpt>
      <trkpt lat="48.58007" lon="-3.18109">
        <ele>133.77512</ele>
        <time>2026-01-29T07:51:16Z</time>
      </trkpt>
      <trkpt lat="48.5802" lon="-3.18118">
        <ele>133.64554</ele>
        <time>2026-01-29T07:51:21Z</time>
      </trkpt>
      <trkpt lat="48.58032" lon="-3.18131">
        <ele>133.60376</ele>
        <time>2026-01-29T07:51:25Z</time>
      </trkpt>
      <trkpt lat="48.58044" lon="-3.18143">
        <ele>133.65065</ele>
        <time>2026-01-29T07:51:29Z</time>
      </trkpt>
      <trkpt lat="48.58058" lon="-3.18156">
        <ele>133.84329</ele>
        <time>2026-01-29T07:51:34Z</time>
      </trkpt>
      <trkpt lat="48.58068" lon="-3.18163">
        <ele>134.20706</ele>
        <time>2026-01-29T07:51:38Z</time>
      </trkpt>
      <trkpt lat="48.58075" lon="-3.18167">
        <ele>134.72702</ele>
        <time>2026-01-29T07:51:42Z</time>
      </trkpt>
      <trkpt lat="48.58077" lon="-3.18168">
        <ele>135.41785</ele>
        <time>2026-01-29T07:51:48Z</time>
      </trkpt>
      <trkpt lat="48.58067" lon="-3.18164">
        <ele>136.20428</ele>
        <time>2026-01-29T07:58:14Z</time>
      </trkpt>
      <trkpt lat="48.58054" lon="-3.18157">
        <ele>137.03192</ele>
        <time>2026-01-29T07:58:20Z</time>
      </trkpt>
      <trkpt lat="48.58048" lon="-3.18151">
        <ele>137.87178</ele>
        <time>2026-01-29T07:58:23Z</time>
      </trkpt>
      <trkpt lat="48.58036" lon="-3.18141">
        <ele>138.65482</ele>
        <time>2026-01-29T07:58:28Z</time>
      </trkpt>
      <trkpt lat="48.58024" lon="-3.18132">
        <ele>139.28323</ele>
        <time>2026-01-29T07:58:33Z</time>
      </trkpt>
      <trkpt lat="48.58015" lon="-3.18123">
        <ele>139.74057</ele>
        <time>2026-01-29T07:58:37Z</time>
      </trkpt>
      <trkpt lat="48.57999" lon="-3.18121">
        <ele>140.00717</ele>
        <time>2026-01-29T07:58:43Z</time>
      </trkpt>
      <trkpt lat="48.57989" lon="-3.18142">
        <ele>140.07472</ele>
        <time>2026-01-29T07:58:47Z</time>
      </trkpt>
      <trkpt lat="48.57978" lon="-3.18165">
        <ele>139.97243</ele>
        <time>2026-01-29T07:58:51Z</time>
      </trkpt>
      <trkpt lat="48.5797" lon="-3.18182">
        <ele>139.70099</ele>
        <time>2026-01-29T07:58:54Z</time>
      </trkpt>
      <trkpt lat="48.57961" lon="-3.18199">
        <ele>139.27097</ele>
        <time>2026-01-29T07:58:57Z</time>
      </trkpt>
      <trkpt lat="48.57952" lon="-3.18216">
        <ele>138.72113</ele>
        <time>2026-01-29T07:59:00Z</time>
      </trkpt>
      <trkpt lat="48.57938" lon="-3.18243">
        <ele>138.08597</ele>
        <time>2026-01-29T07:59:05Z</time>
      </trkpt>
      <trkpt lat="48.5793" lon="-3.18261">
        <ele>137.34975</ele>
        <time>2026-01-29T07:59:08Z</time>
      </trkpt>
      <trkpt lat="48.57922" lon="-3.18278">
        <ele>136.54247</ele>
        <time>2026-01-29T07:59:11Z</time>
      </trkpt>
      <trkpt lat="48.57914" lon="-3.18294">
        <ele>135.71817</ele>
        <time>2026-01-29T07:59:14Z</time>
      </trkpt>
      <trkpt lat="48.57904" lon="-3.18315">
        <ele>134.92635</ele>
        <time>2026-01-29T07:59:18Z</time>
      </trkpt>
      <trkpt lat="48.57894" lon="-3.18335">
        <ele>134.19983</ele>
        <time>2026-01-29T07:59:22Z</time>
      </trkpt>
      <trkpt lat="48.57884" lon="-3.18352">
        <ele>133.56516</ele>
        <time>2026-01-29T07:59:26Z</time>
      </trkpt>
      <trkpt lat="48.57877" lon="-3.18371">
        <ele>133.0722</ele>
        <time>2026-01-29T07:59:30Z</time>
      </trkpt>
      <trkpt lat="48.57871" lon="-3.18391">
        <ele>132.77373</ele>
        <time>2026-01-29T07:59:34Z</time>
      </trkpt>
      <trkpt lat="48.57861" lon="-3.18409">
        <ele>132.69168</ele>
        <time>2026-01-29T07:59:38Z</time>
      </trkpt>
      <trkpt lat="48.57851" lon="-3.18427">
        <ele>132.81807</ele>
        <time>2026-01-29T07:59:42Z</time>
      </trkpt>
      <trkpt lat="48.57845" lon="-3.18451">
        <ele>133.08606</ele>
        <time>2026-01-29T07:59:46Z</time>
      </trkpt>
      <trkpt lat="48.57838" lon="-3.18478">
        <ele>133.46988</ele>
        <time>2026-01-29T07:59:50Z</time>
      </trkpt>
      <trkpt lat="48.57831" lon="-3.18499">
        <ele>133.94916</ele>
        <time>2026-01-29T07:59:53Z</time>
      </trkpt>
      <trkpt lat="48.57819" lon="-3.1852">
        <ele>134.46317</ele>
        <time>2026-01-29T07:59:57Z</time>
      </trkpt>
      <trkpt lat="48.578" lon="-3.1854">
        <ele>134.88045</ele>
        <time>2026-01-29T08:00:01Z</time>
      </trkpt>
      <trkpt lat="48.5778" lon="-3.18553">
        <ele>135.12198</ele>
        <time>2026-01-29T08:00:04Z</time>
      </trkpt>
      <trkpt lat="48.57758" lon="-3.18563">
        <ele>135.13051</ele>
        <time>2026-01-29T08:00:07Z</time>
      </trkpt>
      <trkpt lat="48.57736" lon="-3.18571">
        <ele>134.92953</ele>
        <time>2026-01-29T08:00:10Z</time>
      </trkpt>
      <trkpt lat="48.57718" lon="-3.18576">
        <ele>134.54759</ele>
        <time>2026-01-29T08:00:13Z</time>
      </trkpt>
      <trkpt lat="48.57704" lon="-3.18587">
        <ele>134.04317</ele>
        <time>2026-01-29T08:00:17Z</time>
      </trkpt>
      <trkpt lat="48.5769" lon="-3.18604">
        <ele>133.41348</ele>
        <time>2026-01-29T08:00:21Z</time>
      </trkpt>
      <trkpt lat="48.57679" lon="-3.18618">
        <ele>132.74236</ele>
        <time>2026-01-29T08:00:24Z</time>
      </trkpt>
      <trkpt lat="48.57667" lon="-3.18633">
        <ele>132.12337</ele>
        <time>2026-01-29T08:00:27Z</time>
      </trkpt>
      <trkpt lat="48.57654" lon="-3.18648">
        <ele>131.61766</ele>
        <time>2026-01-29T08:00:31Z</time>
      </trkpt>
      <trkpt lat="48.57643" lon="-3.18662">
        <ele>131.247</ele>
        <time>2026-01-29T08:00:34Z</time>
      </trkpt>
      <trkpt lat="48.57625" lon="-3.18678">
        <ele>130.98215</ele>
        <time>2026-01-29T08:00:38Z</time>
      </trkpt>
      <trkpt lat="48.57606" lon="-3.18689">
        <ele>130.76295</ele>
        <time>2026-01-29T08:00:42Z</time>
      </trkpt>
      <trkpt lat="48.57592" lon="-3.18696">
        <ele>130.53944</ele>
        <time>2026-01-29T08:00:45Z</time>
      </trkpt>
      <trkpt lat="48.57578" lon="-3.18703">
        <ele>130.33882</ele>
        <time>2026-01-29T08:00:48Z</time>
      </trkpt>
      <trkpt lat="48.57565" lon="-3.1871">
        <ele>130.12943</ele>
        <time>2026-01-29T08:00:51Z</time>
      </trkpt>
      <trkpt lat="48.57551" lon="-3.18718">
        <ele>129.88943</ele>
        <time>2026-01-29T08:00:54Z</time>
      </trkpt>
      <trkpt lat="48.57538" lon="-3.18728">
        <ele>129.58963</ele>
        <time>2026-01-29T08:00:57Z</time>
      </trkpt>
      <trkpt lat="48.57525" lon="-3.18737">
        <ele>129.28116</ele>
        <time>2026-01-29T08:01:00Z</time>
      </trkpt>
      <trkpt lat="48.57512" lon="-3.18745">
        <ele>128.98305</ele>
        <time>2026-01-29T08:01:03Z</time>
      </trkpt>
      <trkpt lat="48.57492" lon="-3.18757">
        <ele>128.73073</ele>
        <time>2026-01-29T08:01:07Z</time>
      </trkpt>
      <trkpt lat="48.57471" lon="-3.18764">
        <ele>128.51251</ele>
        <time>2026-01-29T08:01:11Z</time>
      </trkpt>
      <trkpt lat="48.57448" lon="-3.18771">
        <ele>128.32793</ele>
        <time>2026-01-29T08:01:15Z</time>
      </trkpt>
      <trkpt lat="48.5743" lon="-3.18775">
        <ele>128.18477</ele>
        <time>2026-01-29T08:01:18Z</time>
      </trkpt>
      <trkpt lat="48.57408" lon="-3.18782">
        <ele>128.10414</ele>
        <time>2026-01-29T08:01:22Z</time>
      </trkpt>
      <trkpt lat="48.57389" lon="-3.18788">
        <ele>128.04971</ele>
        <time>2026-01-29T08:01:25Z</time>
      </trkpt>
      <trkpt lat="48.57366" lon="-3.18792">
        <ele>127.98364</ele>
        <time>2026-01-29T08:01:29Z</time>
      </trkpt>
      <trkpt lat="48.57347" lon="-3.18796">
        <ele>127.91621</ele>
        <time>2026-01-29T08:01:32Z</time>
      </trkpt>
      <trkpt lat="48.57328" lon="-3.188">
        <ele>127.83859</ele>
        <time>2026-01-29T08:01:35Z</time>
      </trkpt>
      <trkpt lat="48.57309" lon="-3.18804">
        <ele>127.744736</ele>
        <time>2026-01-29T08:01:38Z</time>
      </trkpt>
      <trkpt lat="48.57289" lon="-3.1881">
        <ele>127.605515</ele>
        <time>2026-01-29T08:01:41Z</time>
      </trkpt>
      <trkpt lat="48.57269" lon="-3.18821">
        <ele>127.39597</ele>
        <time>2026-01-29T08:01:44Z</time>
      </trkpt>
      <trkpt lat="48.57251" lon="-3.18839">
        <ele>127.10549</ele>
        <time>2026-01-29T08:01:47Z</time>
      </trkpt>
      <trkpt lat="48.57236" lon="-3.18861">
        <ele>126.7584</ele>
        <time>2026-01-29T08:01:50Z</time>
      </trkpt>
      <trkpt lat="48.57226" lon="-3.18885">
        <ele>126.37145</ele>
        <time>2026-01-29T08:01:53Z</time>
      </trkpt>
      <trkpt lat="48.57219" lon="-3.18911">
        <ele>125.9364</ele>
        <time>2026-01-29T08:01:56Z</time>
      </trkpt>
      <trkpt lat="48.57212" lon="-3.18943">
        <ele>125.4953</ele>
        <time>2026-01-29T08:02:00Z</time>
      </trkpt>
      <trkpt lat="48.57208" lon="-3.18974">
        <ele>125.09007</ele>
        <time>2026-01-29T08:02:04Z</time>
      </trkpt>
      <trkpt lat="48.57208" lon="-3.19005">
        <ele>124.75308</ele>
        <time>2026-01-29T08:02:08Z</time>
      </trkpt>
      <trkpt lat="48.57212" lon="-3.19032">
        <ele>124.48958</ele>
        <time>2026-01-29T08:02:11Z</time>
      </trkpt>
      <trkpt lat="48.57222" lon="-3.19062">
        <ele>124.28189</ele>
        <time>2026-01-29T08:02:14Z</time>
      </trkpt>
      <trkpt lat="48.57239" lon="-3.19092">
        <ele>124.11295</ele>
        <time>2026-01-29T08:02:17Z</time>
      </trkpt>
      <trkpt lat="48.57252" lon="-3.19113">
        <ele>123.99425</ele>
        <time>2026-01-29T08:02:19Z</time>
      </trkpt>
      <trkpt lat="48.57269" lon="-3.19142">
        <ele>123.88063</ele>
        <time>2026-01-29T08:02:22Z</time>
      </trkpt>
      <trkpt lat="48.57284" lon="-3.19169">
        <ele>123.737564</ele>
        <time>2026-01-29T08:02:25Z</time>
      </trkpt>
      <trkpt lat="48.57296" lon="-3.19193">
        <ele>123.549446</ele>
        <time>2026-01-29T08:02:28Z</time>
      </trkpt>
      <trkpt lat="48.57306" lon="-3.19215">
        <ele>123.29263</ele>
        <time>2026-01-29T08:02:31Z</time>
      </trkpt>
      <trkpt lat="48.57315" lon="-3.19245">
        <ele>123.00495</ele>
        <time>2026-01-29T08:02:35Z</time>
      </trkpt>
      <trkpt lat="48.57322" lon="-3.19276">
        <ele>122.70476</ele>
        <time>2026-01-29T08:02:39Z</time>
      </trkpt>
      <trkpt lat="48.57326" lon="-3.19297">
        <ele>122.4226</ele>
        <time>2026-01-29T08:02:42Z</time>
      </trkpt>
      <trkpt lat="48.57329" lon="-3.19317">
        <ele>122.18905</ele>
        <time>2026-01-29T08:02:45Z</time>
      </trkpt>
      <trkpt lat="48.57334" lon="-3.19343">
        <ele>122.039505</ele>
        <time>2026-01-29T08:02:49Z</time>
      </trkpt>
      <trkpt lat="48.57339" lon="-3.19362">
        <ele>121.99021</ele>
        <time>2026-01-29T08:02:52Z</time>
      </trkpt>
      <trkpt lat="48.57345" lon="-3.19386">
        <ele>122.08037</ele>
        <time>2026-01-29T08:02:56Z</time>
      </trkpt>
      <trkpt lat="48.5735" lon="-3.1941">
        <ele>122.31958</ele>
        <time>2026-01-29T08:03:00Z</time>
      </trkpt>
      <trkpt lat="48.57354" lon="-3.1943">
        <ele>122.73951</ele>
        <time>2026-01-29T08:03:04Z</time>
      </trkpt>
      <trkpt lat="48.57359" lon="-3.19452">
        <ele>123.32951</ele>
        <time>2026-01-29T08:03:08Z</time>
      </trkpt>
      <trkpt lat="48.57363" lon="-3.19473">
        <ele>124.08547</ele>
        <time>2026-01-29T08:03:12Z</time>
      </trkpt>
      <trkpt lat="48.57368" lon="-3.19495">
        <ele>124.96932</ele>
        <time>2026-01-29T08:03:16Z</time>
      </trkpt>
      <trkpt lat="48.57373" lon="-3.19519">
        <ele>125.93822</ele>
        <time>2026-01-29T08:03:20Z</time>
      </trkpt>
      <trkpt lat="48.57377" lon="-3.19542">
        <ele>126.95242</ele>
        <time>2026-01-29T08:03:24Z</time>
      </trkpt>
      <trkpt lat="48.57383" lon="-3.19566">
        <ele>127.96646</ele>
        <time>2026-01-29T08:03:28Z</time>
      </trkpt>
      <trkpt lat="48.57389" lon="-3.19591">
        <ele>128.96288</ele>
        <time>2026-01-29T08:03:32Z</time>
      </trkpt>
      <trkpt lat="48.57393" lon="-3.19615">
        <ele>129.88794</ele>
        <time>2026-01-29T08:03:36Z</time>
      </trkpt>
      <trkpt lat="48.57397" lon="-3.19638">
        <ele>130.74092</ele>
        <time>2026-01-29T08:03:40Z</time>
      </trkpt>
      <trkpt lat="48.574" lon="-3.19663">
        <ele>131.51442</ele>
        <time>2026-01-29T08:03:44Z</time>
      </trkpt>
      <trkpt lat="48.57403" lon="-3.19688">
        <ele>132.20576</ele>
        <time>2026-01-29T08:03:48Z</time>
      </trkpt>
      <trkpt lat="48.57406" lon="-3.19709">
        <ele>132.83269</ele>
        <time>2026-01-29T08:03:51Z</time>
      </trkpt>
      <trkpt lat="48.57411" lon="-3.19733">
        <ele>133.44067</ele>
        <time>2026-01-29T08:03:55Z</time>
      </trkpt>
      <trkpt lat="48.57415" lon="-3.19756">
        <ele>133.99638</ele>
        <time>2026-01-29T08:03:59Z</time>
      </trkpt>
      <trkpt lat="48.5742" lon="-3.19781">
        <ele>134.48592</ele>
        <time>2026-01-29T08:04:03Z</time>
      </trkpt>
      <trkpt lat="48.57425" lon="-3.19804">
        <ele>134.9202</ele>
        <time>2026-01-29T08:04:07Z</time>
      </trkpt>
      <trkpt lat="48.5743" lon="-3.19823">
        <ele>135.30685</ele>
        <time>2026-01-29T08:04:11Z</time>
      </trkpt>
      <trkpt lat="48.57435" lon="-3.19846">
        <ele>135.64304</ele>
        <time>2026-01-29T08:04:15Z</time>
      </trkpt>
      <trkpt lat="48.57441" lon="-3.19866">
        <ele>135.96384</ele>
        <time>2026-01-29T08:04:19Z</time>
      </trkpt>
      <trkpt lat="48.57448" lon="-3.19886">
        <ele>136.24588</ele>
        <time>2026-01-29T08:04:23Z</time>
      </trkpt>
      <trkpt lat="48.57458" lon="-3.19908">
        <ele>136.51115</ele>
        <time>2026-01-29T08:04:27Z</time>
      </trkpt>
      <trkpt lat="48.57467" lon="-3.19927">
        <ele>136.8275</ele>
        <time>2026-01-29T08:04:31Z</time>
      </trkpt>
      <trkpt lat="48.57477" lon="-3.19947">
        <ele>137.18988</ele>
        <time>2026-01-29T08:04:35Z</time>
      </trkpt>
      <trkpt lat="48.5749" lon="-3.19963">
        <ele>137.56578</ele>
        <time>2026-01-29T08:04:39Z</time>
      </trkpt>
      <trkpt lat="48.57507" lon="-3.1997">
        <ele>138.01839</ele>
        <time>2026-01-29T08:04:43Z</time>
      </trkpt>
      <trkpt lat="48.57524" lon="-3.19976">
        <ele>138.53918</ele>
        <time>2026-01-29T08:04:47Z</time>
      </trkpt>
      <trkpt lat="48.57539" lon="-3.1998">
        <ele>139.1303</ele>
        <time>2026-01-29T08:04:51Z</time>
      </trkpt>
      <trkpt lat="48.57552" lon="-3.19985">
        <ele>139.79391</ele>
        <time>2026-01-29T08:04:55Z</time>
      </trkpt>
      <trkpt lat="48.57566" lon="-3.1999">
        <ele>140.48383</ele>
        <time>2026-01-29T08:04:59Z</time>
      </trkpt>
      <trkpt lat="48.5758" lon="-3.19997">
        <ele>141.15558</ele>
        <time>2026-01-29T08:05:03Z</time>
      </trkpt>
      <trkpt lat="48.57595" lon="-3.20005">
        <ele>141.83536</ele>
        <time>2026-01-29T08:05:07Z</time>
      </trkpt>
      <trkpt lat="48.57611" lon="-3.20012">
        <ele>142.49017</ele>
        <time>2026-01-29T08:05:11Z</time>
      </trkpt>
      <trkpt lat="48.57626" lon="-3.20013">
        <ele>143.0637</ele>
        <time>2026-01-29T08:05:14Z</time>
      </trkpt>
      <trkpt lat="48.57642" lon="-3.2001">
        <ele>143.5799</ele>
        <time>2026-01-29T08:05:18Z</time>
      </trkpt>
      <trkpt lat="48.57656" lon="-3.20007">
        <ele>144.03107</ele>
        <time>2026-01-29T08:05:22Z</time>
      </trkpt>
      <trkpt lat="48.5767" lon="-3.20004">
        <ele>144.43324</ele>
        <time>2026-01-29T08:05:26Z</time>
      </trkpt>
      <trkpt lat="48.57686" lon="-3.20004">
        <ele>144.75844</ele>
        <time>2026-01-29T08:05:30Z</time>
      </trkpt>
      <trkpt lat="48.577" lon="-3.20004">
        <ele>145.0057</ele>
        <time>2026-01-29T08:05:33Z</time>
      </trkpt>
      <trkpt lat="48.57716" lon="-3.20002">
        <ele>145.21957</ele>
        <time>2026-01-29T08:05:36Z</time>
      </trkpt>
      <trkpt lat="48.57729" lon="-3.20001">
        <ele>145.44371</ele>
        <time>2026-01-29T08:05:39Z</time>
      </trkpt>
      <trkpt lat="48.57747" lon="-3.20002">
        <ele>145.67007</ele>
        <time>2026-01-29T08:05:43Z</time>
      </trkpt>
      <trkpt lat="48.57764" lon="-3.20007">
        <ele>145.8399</ele>
        <time>2026-01-29T08:05:47Z</time>
      </trkpt>
      <trkpt lat="48.57781" lon="-3.20015">
        <ele>145.91621</ele>
        <time>2026-01-29T08:05:51Z</time>
      </trkpt>
      <trkpt lat="48.57797" lon="-3.20024">
        <ele>145.97702</ele>
        <time>2026-01-29T08:05:55Z</time>
      </trkpt>
      <trkpt lat="48.57814" lon="-3.2003">
        <ele>146.11786</ele>
        <time>2026-01-29T08:05:59Z</time>
      </trkpt>
      <trkpt lat="48.5783" lon="-3.20034">
        <ele>146.33394</ele>
        <time>2026-01-29T08:06:03Z</time>
      </trkpt>
      <trkpt lat="48.57846" lon="-3.20037">
        <ele>146.61148</ele>
        <time>2026-01-29T08:06:07Z</time>
      </trkpt>
      <trkpt lat="48.57861" lon="-3.20037">
        <ele>146.94077</ele>
        <time>2026-01-29T08:06:11Z</time>
      </trkpt>
      <trkpt lat="48.57876" lon="-3.20036">
        <ele>147.36513</ele>
        <time>2026-01-29T08:06:15Z</time>
      </trkpt>
      <trkpt lat="48.57894" lon="-3.20033">
        <ele>147.9314</ele>
        <time>2026-01-29T08:06:19Z</time>
      </trkpt>
      <trkpt lat="48.5791" lon="-3.20028">
        <ele>148.6041</ele>
        <time>2026-01-29T08:06:23Z</time>
      </trkpt>
      <trkpt lat="48.57925" lon="-3.2003">
        <ele>149.29263</ele>
        <time>2026-01-29T08:06:27Z</time>
      </trkpt>
      <trkpt lat="48.57935" lon="-3.20038">
        <ele>149.94731</ele>
        <time>2026-01-29T08:06:31Z</time>
      </trkpt>
      <trkpt lat="48.57944" lon="-3.20041">
        <ele>150.53894</ele>
        <time>2026-01-29T08:06:36Z</time>
      </trkpt>
      <trkpt lat="48.5795" lon="-3.20042">
        <ele>151.05386</ele>
        <time>2026-01-29T08:06:40Z</time>
      </trkpt>
      <trkpt lat="48.57951" lon="-3.20065">
        <ele>151.51407</ele>
        <time>2026-01-29T08:06:46Z</time>
      </trkpt>
      <trkpt lat="48.57945" lon="-3.20088">
        <ele>151.88046</ele>
        <time>2026-01-29T08:06:50Z</time>
      </trkpt>
      <trkpt lat="48.5794" lon="-3.2011">
        <ele>152.19017</ele>
        <time>2026-01-29T08:06:54Z</time>
      </trkpt>
      <trkpt lat="48.57933" lon="-3.20132">
        <ele>152.47878</ele>
        <time>2026-01-29T08:06:59Z</time>
      </trkpt>
      <trkpt lat="48.57927" lon="-3.20155">
        <ele>152.72743</ele>
        <time>2026-01-29T08:07:04Z</time>
      </trkpt>
      <trkpt lat="48.57922" lon="-3.20178">
        <ele>152.94939</ele>
        <time>2026-01-29T08:07:09Z</time>
      </trkpt>
      <trkpt lat="48.57916" lon="-3.202">
        <ele>153.1564</ele>
        <time>2026-01-29T08:07:14Z</time>
      </trkpt>
      <trkpt lat="48.5791" lon="-3.2022">
        <ele>153.33047</ele>
        <time>2026-01-29T08:07:18Z</time>
      </trkpt>
      <trkpt lat="48.579" lon="-3.20238">
        <ele>153.45767</ele>
        <time>2026-01-29T08:07:22Z</time>
      </trkpt>
      <trkpt lat="48.57887" lon="-3.2025">
        <ele>153.5254</ele>
        <time>2026-01-29T08:07:26Z</time>
      </trkpt>
      <trkpt lat="48.57871" lon="-3.20254">
        <ele>153.49353</ele>
        <time>2026-01-29T08:07:30Z</time>
      </trkpt>
      <trkpt lat="48.57857" lon="-3.20255">
        <ele>153.3735</ele>
        <time>2026-01-29T08:07:34Z</time>
      </trkpt>
      <trkpt lat="48.57844" lon="-3.20262">
        <ele>153.20844</ele>
        <time>2026-01-29T08:07:38Z</time>
      </trkpt>
      <trkpt lat="48.57835" lon="-3.20284">
        <ele>153.01648</ele>
        <time>2026-01-29T08:07:42Z</time>
      </trkpt>
      <trkpt lat="48.57827" lon="-3.20307">
        <ele>152.78825</ele>
        <time>2026-01-29T08:07:46Z</time>
      </trkpt>
      <trkpt lat="48.57821" lon="-3.20328">
        <ele>152.53133</ele>
        <time>2026-01-29T08:07:49Z</time>
      </trkpt>
      <trkpt lat="48.57814" lon="-3.20346">
        <ele>152.24757</ele>
        <time>2026-01-29T08:07:52Z</time>
      </trkpt>
      <trkpt lat="48.57806" lon="-3.20363">
        <ele>151.94785</ele>
        <time>2026-01-29T08:07:55Z</time>
      </trkpt>
      <trkpt lat="48.57797" lon="-3.20387">
        <ele>151.66043</ele>
        <time>2026-01-29T08:07:59Z</time>
      </trkpt>
      <trkpt lat="48.57792" lon="-3.20412">
        <ele>151.38705</ele>
        <time>2026-01-29T08:08:03Z</time>
      </trkpt>
      <trkpt lat="48.57795" lon="-3.20438">
        <ele>151.09933</ele>
        <time>2026-01-29T08:08:07Z</time>
      </trkpt>
      <trkpt lat="48.57801" lon="-3.20456">
        <ele>150.79709</ele>
        <time>2026-01-29T08:08:10Z</time>
      </trkpt>
      <trkpt lat="48.57814" lon="-3.20475">
        <ele>150.55943</ele>
        <time>2026-01-29T08:08:14Z</time>
      </trkpt>
      <trkpt lat="48.57825" lon="-3.20495">
        <ele>150.4124</ele>
        <time>2026-01-29T08:08:18Z</time>
      </trkpt>
      <trkpt lat="48.57835" lon="-3.20517">
        <ele>150.3825</ele>
        <time>2026-01-29T08:08:22Z</time>
      </trkpt>
      <trkpt lat="48.57841" lon="-3.20541">
        <ele>150.48354</ele>
        <time>2026-01-29T08:08:26Z</time>
      </trkpt>
      <trkpt lat="48.57846" lon="-3.20566">
        <ele>150.7054</ele>
        <time>2026-01-29T08:08:30Z</time>
      </trkpt>
      <trkpt lat="48.57848" lon="-3.20587">
        <ele>151.04427</ele>
        <time>2026-01-29T08:08:33Z</time>
      </trkpt>
      <trkpt lat="48.57852" lon="-3.20616">
        <ele>151.51602</ele>
        <time>2026-01-29T08:08:37Z</time>
      </trkpt>
      <trkpt lat="48.57856" lon="-3.20648">
        <ele>152.05223</ele>
        <time>2026-01-29T08:08:41Z</time>
      </trkpt>
      <trkpt lat="48.5786" lon="-3.2068">
        <ele>152.55913</ele>
        <time>2026-01-29T08:08:45Z</time>
      </trkpt>
      <trkpt lat="48.57861" lon="-3.20714">
        <ele>152.95752</ele>
        <time>2026-01-29T08:08:49Z</time>
      </trkpt>
      <trkpt lat="48.57855" lon="-3.20746">
        <ele>153.2013</ele>
        <time>2026-01-29T08:08:53Z</time>
      </trkpt>
      <trkpt lat="48.57843" lon="-3.20776">
        <ele>153.26231</ele>
        <time>2026-01-29T08:08:57Z</time>
      </trkpt>
      <trkpt lat="48.57833" lon="-3.208">
        <ele>153.12909</ele>
        <time>2026-01-29T08:09:00Z</time>
      </trkpt>
      <trkpt lat="48.57823" lon="-3.20823">
        <ele>152.8004</ele>
        <time>2026-01-29T08:09:03Z</time>
      </trkpt>
      <trkpt lat="48.57812" lon="-3.20845">
        <ele>152.29742</ele>
        <time>2026-01-29T08:09:06Z</time>
      </trkpt>
      <trkpt lat="48.57796" lon="-3.20871">
        <ele>151.67877</ele>
        <time>2026-01-29T08:09:10Z</time>
      </trkpt>
      <trkpt lat="48.57777" lon="-3.20888">
        <ele>151.02704</ele>
        <time>2026-01-29T08:09:14Z</time>
      </trkpt>
      <trkpt lat="48.57766" lon="-3.20902">
        <ele>150.3852</ele>
        <time>2026-01-29T08:09:17Z</time>
      </trkpt>
      <trkpt lat="48.57765" lon="-3.20922">
        <ele>149.76962</ele>
        <time>2026-01-29T08:09:22Z</time>
      </trkpt>
      <trkpt lat="48.5777" lon="-3.20933">
        <ele>149.2153</ele>
        <time>2026-01-29T08:09:27Z</time>
      </trkpt>
      <trkpt lat="48.57779" lon="-3.20952">
        <ele>148.72023</ele>
        <time>2026-01-29T08:09:33Z</time>
      </trkpt>
      <trkpt lat="48.57774" lon="-3.20986">
        <ele>148.2881</ele>
        <time>2026-01-29T08:09:38Z</time>
      </trkpt>
      <trkpt lat="48.57762" lon="-3.21018">
        <ele>147.894</ele>
        <time>2026-01-29T08:09:42Z</time>
      </trkpt>
      <trkpt lat="48.57758" lon="-3.21047">
        <ele>147.50528</ele>
        <time>2026-01-29T08:09:45Z</time>
      </trkpt>
      <trkpt lat="48.57755" lon="-3.21076">
        <ele>147.11662</ele>
        <time>2026-01-29T08:09:48Z</time>
      </trkpt>
      <trkpt lat="48.57755" lon="-3.21111">
        <ele>146.74153</ele>
        <time>2026-01-29T08:09:52Z</time>
      </trkpt>
      <trkpt lat="48.57754" lon="-3.21145">
        <ele>146.36629</ele>
        <time>2026-01-29T08:09:56Z</time>
      </trkpt>
      <trkpt lat="48.57754" lon="-3.21179">
        <ele>145.9671</ele>
        <time>2026-01-29T08:10:00Z</time>
      </trkpt>
      <trkpt lat="48.57754" lon="-3.21214">
        <ele>145.5446</ele>
        <time>2026-01-29T08:10:04Z</time>
      </trkpt>
      <trkpt lat="48.57752" lon="-3.21245">
        <ele>145.1389</ele>
        <time>2026-01-29T08:10:08Z</time>
      </trkpt>
      <trkpt lat="48.57751" lon="-3.21267">
        <ele>144.8054</ele>
        <time>2026-01-29T08:10:11Z</time>
      </trkpt>
      <trkpt lat="48.5775" lon="-3.21289">
        <ele>144.55795</ele>
        <time>2026-01-29T08:10:14Z</time>
      </trkpt>
      <trkpt lat="48.57746" lon="-3.2131">
        <ele>144.3816</ele>
        <time>2026-01-29T08:10:17Z</time>
      </trkpt>
      <trkpt lat="48.5774" lon="-3.21336">
        <ele>144.29715</ele>
        <time>2026-01-29T08:10:21Z</time>
      </trkpt>
      <trkpt lat="48.57736" lon="-3.21361">
        <ele>144.36288</ele>
        <time>2026-01-29T08:10:25Z</time>
      </trkpt>
      <trkpt lat="48.57735" lon="-3.21387">
        <ele>144.6059</ele>
        <time>2026-01-29T08:10:29Z</time>
      </trkpt>
      <trkpt lat="48.57736" lon="-3.21411">
        <ele>145.01967</ele>
        <time>2026-01-29T08:10:32Z</time>
      </trkpt>
      <trkpt lat="48.57737" lon="-3.21441">
        <ele>145.51622</ele>
        <time>2026-01-29T08:10:36Z</time>
      </trkpt>
      <trkpt lat="48.57739" lon="-3.21473">
        <ele>146.04564</ele>
        <time>2026-01-29T08:10:40Z</time>
      </trkpt>
      <trkpt lat="48.57742" lon="-3.21504">
        <ele>146.60243</ele>
        <time>2026-01-29T08:10:44Z</time>
      </trkpt>
      <trkpt lat="48.57745" lon="-3.21526">
        <ele>147.15596</ele>
        <time>2026-01-29T08:10:47Z</time>
      </trkpt>
      <trkpt lat="48.57749" lon="-3.21549">
        <ele>147.65276</ele>
        <time>2026-01-29T08:10:50Z</time>
      </trkpt>
      <trkpt lat="48.57754" lon="-3.21569">
        <ele>148.04153</ele>
        <time>2026-01-29T08:10:53Z</time>
      </trkpt>
      <trkpt lat="48.57759" lon="-3.2159">
        <ele>148.31131</ele>
        <time>2026-01-29T08:10:56Z</time>
      </trkpt>
      <trkpt lat="48.57764" lon="-3.21609">
        <ele>148.51173</ele>
        <time>2026-01-29T08:10:59Z</time>
      </trkpt>
      <trkpt lat="48.57768" lon="-3.21629">
        <ele>148.7007</ele>
        <time>2026-01-29T08:11:02Z</time>
      </trkpt>
      <trkpt lat="48.57773" lon="-3.21649">
        <ele>148.87321</ele>
        <time>2026-01-29T08:11:05Z</time>
      </trkpt>
      <trkpt lat="48.57778" lon="-3.21669">
        <ele>149.03284</ele>
        <time>2026-01-29T08:11:08Z</time>
      </trkpt>
      <trkpt lat="48.57783" lon="-3.21691">
        <ele>149.19174</ele>
        <time>2026-01-29T08:11:11Z</time>
      </trkpt>
      <trkpt lat="48.57788" lon="-3.2171">
        <ele>149.37021</ele>
        <time>2026-01-29T08:11:14Z</time>
      </trkpt>
      <trkpt lat="48.57794" lon="-3.21731">
        <ele>149.58173</ele>
        <time>2026-01-29T08:11:17Z</time>
      </trkpt>
      <trkpt lat="48.57801" lon="-3.2176">
        <ele>149.78247</ele>
        <time>2026-01-29T08:11:21Z</time>
      </trkpt>
      <trkpt lat="48.57808" lon="-3.21792">
        <ele>149.90622</ele>
        <time>2026-01-29T08:11:25Z</time>
      </trkpt>
      <trkpt lat="48.57812" lon="-3.21825">
        <ele>149.92323</ele>
        <time>2026-01-29T08:11:29Z</time>
      </trkpt>
      <trkpt lat="48.57814" lon="-3.21859">
        <ele>149.82635</ele>
        <time>2026-01-29T08:11:33Z</time>
      </trkpt>
      <trkpt lat="48.57817" lon="-3.21893">
        <ele>149.63857</ele>
        <time>2026-01-29T08:11:37Z</time>
      </trkpt>
      <trkpt lat="48.57817" lon="-3.21923">
        <ele>149.36404</ele>
        <time>2026-01-29T08:11:41Z</time>
      </trkpt>
      <trkpt lat="48.57818" lon="-3.21954">
        <ele>148.99362</ele>
        <time>2026-01-29T08:11:45Z</time>
      </trkpt>
      <trkpt lat="48.57821" lon="-3.21983">
        <ele>148.55453</ele>
        <time>2026-01-29T08:11:49Z</time>
      </trkpt>
      <trkpt lat="48.57832" lon="-3.22012">
        <ele>148.09314</ele>
        <time>2026-01-29T08:11:53Z</time>
      </trkpt>
      <trkpt lat="48.57842" lon="-3.22028">
        <ele>147.67259</ele>
        <time>2026-01-29T08:11:56Z</time>
      </trkpt>
      <trkpt lat="48.57854" lon="-3.22038">
        <ele>147.3445</ele>
        <time>2026-01-29T08:11:59Z</time>
      </trkpt>
      <trkpt lat="48.5787" lon="-3.22047">
        <ele>147.11812</ele>
        <time>2026-01-29T08:12:03Z</time>
      </trkpt>
      <trkpt lat="48.57886" lon="-3.2205">
        <ele>146.97186</ele>
        <time>2026-01-29T08:12:07Z</time>
      </trkpt>
      <trkpt lat="48.57903" lon="-3.22054">
        <ele>146.90654</ele>
        <time>2026-01-29T08:12:11Z</time>
      </trkpt>
      <trkpt lat="48.57917" lon="-3.22057">
        <ele>146.93613</ele>
        <time>2026-01-29T08:12:14Z</time>
      </trkpt>
      <trkpt lat="48.57931" lon="-3.22059">
        <ele>147.02808</ele>
        <time>2026-01-29T08:12:17Z</time>
      </trkpt>
      <trkpt lat="48.57948" lon="-3.22063">
        <ele>147.18704</ele>
        <time>2026-01-29T08:12:21Z</time>
      </trkpt>
      <trkpt lat="48.57962" lon="-3.22065">
        <ele>147.39183</ele>
        <time>2026-01-29T08:12:24Z</time>
      </trkpt>
      <trkpt lat="48.5798" lon="-3.22069">
        <ele>147.6079</ele>
        <time>2026-01-29T08:12:28Z</time>
      </trkpt>
      <trkpt lat="48.57992" lon="-3.22078">
        <ele>147.8497</ele>
        <time>2026-01-29T08:12:31Z</time>
      </trkpt>
      <trkpt lat="48.58" lon="-3.22104">
        <ele>148.09914</ele>
        <time>2026-01-29T08:12:35Z</time>
      </trkpt>
      <trkpt lat="48.57996" lon="-3.22127">
        <ele>148.37917</ele>
        <time>2026-01-29T08:12:38Z</time>
      </trkpt>
      <trkpt lat="48.57985" lon="-3.22153">
        <ele>148.71846</ele>
        <time>2026-01-29T08:12:42Z</time>
      </trkpt>
      <trkpt lat="48.57978" lon="-3.22172">
        <ele>149.09097</ele>
        <time>2026-01-29T08:12:45Z</time>
      </trkpt>
      <trkpt lat="48.57972" lon="-3.22192">
        <ele>149.4516</ele>
        <time>2026-01-29T08:12:48Z</time>
      </trkpt>
      <trkpt lat="48.57967" lon="-3.22222">
        <ele>149.7543</ele>
        <time>2026-01-29T08:12:52Z</time>
      </trkpt>
      <trkpt lat="48.57967" lon="-3.22256">
        <ele>150.00125</ele>
        <time>2026-01-29T08:12:56Z</time>
      </trkpt>
      <trkpt lat="48.57975" lon="-3.22285">
        <ele>150.18144</ele>
        <time>2026-01-29T08:12:59Z</time>
      </trkpt>
      <trkpt lat="48.57983" lon="-3.22314">
        <ele>150.29425</ele>
        <time>2026-01-29T08:13:03Z</time>
      </trkpt>
      <trkpt lat="48.57986" lon="-3.22335">
        <ele>150.28859</ele>
        <time>2026-01-29T08:13:06Z</time>
      </trkpt>
      <trkpt lat="48.57976" lon="-3.22351">
        <ele>150.1571</ele>
        <time>2026-01-29T08:13:10Z</time>
      </trkpt>
      <trkpt lat="48.57955" lon="-3.22349">
        <ele>149.94191</ele>
        <time>2026-01-29T08:13:14Z</time>
      </trkpt>
      <trkpt lat="48.57938" lon="-3.22346">
        <ele>149.70271</ele>
        <time>2026-01-29T08:13:17Z</time>
      </trkpt>
      <trkpt lat="48.57918" lon="-3.22341">
        <ele>149.50752</ele>
        <time>2026-01-29T08:13:21Z</time>
      </trkpt>
      <trkpt lat="48.57897" lon="-3.22336">
        <ele>149.37943</ele>
        <time>2026-01-29T08:13:25Z</time>
      </trkpt>
      <trkpt lat="48.57877" lon="-3.22328">
        <ele>149.32567</ele>
        <time>2026-01-29T08:13:29Z</time>
      </trkpt>
      <trkpt lat="48.57858" lon="-3.22319">
        <ele>149.36374</ele>
        <time>2026-01-29T08:13:33Z</time>
      </trkpt>
      <trkpt lat="48.57843" lon="-3.22311">
        <ele>149.50444</ele>
        <time>2026-01-29T08:13:36Z</time>
      </trkpt>
      <trkpt lat="48.5783" lon="-3.22305">
        <ele>149.71838</ele>
        <time>2026-01-29T08:13:39Z</time>
      </trkpt>
      <trkpt lat="48.57817" lon="-3.22298">
        <ele>150.013</ele>
        <time>2026-01-29T08:13:42Z</time>
      </trkpt>
      <trkpt lat="48.57803" lon="-3.22291">
        <ele>150.3327</ele>
        <time>2026-01-29T08:13:45Z</time>
      </trkpt>
      <trkpt lat="48.5779" lon="-3.22284">
        <ele>150.64575</ele>
        <time>2026-01-29T08:13:48Z</time>
      </trkpt>
      <trkpt lat="48.5777" lon="-3.22275">
        <ele>150.89711</ele>
        <time>2026-01-29T08:13:52Z</time>
      </trkpt>
      <trkpt lat="48.57756" lon="-3.22268">
        <ele>151.09744</ele>
        <time>2026-01-29T08:13:55Z</time>
      </trkpt>
      <trkpt lat="48.5774" lon="-3.22259">
        <ele>151.25174</ele>
        <time>2026-01-29T08:13:59Z</time>
      </trkpt>
      <trkpt lat="48.57725" lon="-3.22258">
        <ele>151.3844</ele>
        <time>2026-01-29T08:14:03Z</time>
      </trkpt>
      <trkpt lat="48.57712" lon="-3.22268">
        <ele>151.49835</ele>
        <time>2026-01-29T08:14:08Z</time>
      </trkpt>
      <trkpt lat="48.57707" lon="-3.22277">
        <ele>151.55203</ele>
        <time>2026-01-29T08:14:13Z</time>
      </trkpt>
      <trkpt lat="48.57706" lon="-3.22287">
        <ele>151.55011</ele>
        <time>2026-01-29T08:14:21Z</time>
      </trkpt>
      <trkpt lat="48.5771" lon="-3.22299">
        <ele>151.50768</ele>
        <time>2026-01-29T08:14:26Z</time>
      </trkpt>
      <trkpt lat="48.57718" lon="-3.22316">
        <ele>151.4436</ele>
        <time>2026-01-29T08:14:31Z</time>
      </trkpt>
      <trkpt lat="48.57727" lon="-3.22333">
        <ele>151.35052</ele>
        <time>2026-01-29T08:14:35Z</time>
      </trkpt>
      <trkpt lat="48.57737" lon="-3.22356">
        <ele>151.23412</ele>
        <time>2026-01-29T08:14:39Z</time>
      </trkpt>
      <trkpt lat="48.57749" lon="-3.22381">
        <ele>151.10684</ele>
        <time>2026-01-29T08:14:43Z</time>
      </trkpt>
      <trkpt lat="48.5776" lon="-3.2241">
        <ele>150.98521</ele>
        <time>2026-01-29T08:14:47Z</time>
      </trkpt>
      <trkpt lat="48.57773" lon="-3.22441">
        <ele>150.92755</ele>
        <time>2026-01-29T08:14:51Z</time>
      </trkpt>
      <trkpt lat="48.57782" lon="-3.22464">
        <ele>150.98175</ele>
        <time>2026-01-29T08:14:54Z</time>
      </trkpt>
      <trkpt lat="48.57795" lon="-3.22492">
        <ele>151.14424</ele>
        <time>2026-01-29T08:14:58Z</time>
      </trkpt>
      <trkpt lat="48.57807" lon="-3.22518">
        <ele>151.40933</ele>
        <time>2026-01-29T08:15:02Z</time>
      </trkpt>
      <trkpt lat="48.57818" lon="-3.22544">
        <ele>151.75256</ele>
        <time>2026-01-29T08:15:06Z</time>
      </trkpt>
      <trkpt lat="48.57829" lon="-3.22571">
        <ele>152.13322</ele>
        <time>2026-01-29T08:15:10Z</time>
      </trkpt>
      <trkpt lat="48.5784" lon="-3.22598">
        <ele>152.53958</ele>
        <time>2026-01-29T08:15:14Z</time>
      </trkpt>
      <trkpt lat="48.57848" lon="-3.22616">
        <ele>152.94615</ele>
        <time>2026-01-29T08:15:17Z</time>
      </trkpt>
      <trkpt lat="48.57856" lon="-3.22636">
        <ele>153.29099</ele>
        <time>2026-01-29T08:15:20Z</time>
      </trkpt>
      <trkpt lat="48.57863" lon="-3.22654">
        <ele>153.55891</ele>
        <time>2026-01-29T08:15:23Z</time>
      </trkpt>
      <trkpt lat="48.57874" lon="-3.22679">
        <ele>153.75208</ele>
        <time>2026-01-29T08:15:27Z</time>
      </trkpt>
      <trkpt lat="48.57885" lon="-3.22705">
        <ele>153.88441</ele>
        <time>2026-01-29T08:15:31Z</time>
      </trkpt>
      <trkpt lat="48.57893" lon="-3.22724">
        <ele>153.99034</ele>
        <time>2026-01-29T08:15:34Z</time>
      </trkpt>
      <trkpt lat="48.57901" lon="-3.22743">
        <ele>154.09068</ele>
        <time>2026-01-29T08:15:37Z</time>
      </trkpt>
      <trkpt lat="48.57908" lon="-3.22761">
        <ele>154.18846</ele>
        <time>2026-01-29T08:15:40Z</time>
      </trkpt>
      <trkpt lat="48.57916" lon="-3.22779">
        <ele>154.30771</ele>
        <time>2026-01-29T08:15:43Z</time>
      </trkpt>
      <trkpt lat="48.57925" lon="-3.22797">
        <ele>154.47891</ele>
        <time>2026-01-29T08:15:46Z</time>
      </trkpt>
      <trkpt lat="48.57932" lon="-3.22815">
        <ele>154.67969</ele>
        <time>2026-01-29T08:15:49Z</time>
      </trkpt>
      <trkpt lat="48.57939" lon="-3.22833">
        <ele>154.89897</ele>
        <time>2026-01-29T08:15:52Z</time>
      </trkpt>
      <trkpt lat="48.57947" lon="-3.22851">
        <ele>155.12216</ele>
        <time>2026-01-29T08:15:55Z</time>
      </trkpt>
      <trkpt lat="48.57953" lon="-3.2287">
        <ele>155.36816</ele>
        <time>2026-01-29T08:15:58Z</time>
      </trkpt>
      <trkpt lat="48.57961" lon="-3.22888">
        <ele>155.63461</ele>
        <time>2026-01-29T08:16:01Z</time>
      </trkpt>
      <trkpt lat="48.57968" lon="-3.22907">
        <ele>155.90067</ele>
        <time>2026-01-29T08:16:04Z</time>
      </trkpt>
      <trkpt lat="48.57975" lon="-3.22927">
        <ele>156.13463</ele>
        <time>2026-01-29T08:16:07Z</time>
      </trkpt>
      <trkpt lat="48.57982" lon="-3.22946">
        <ele>156.33049</ele>
        <time>2026-01-29T08:16:10Z</time>
      </trkpt>
      <trkpt lat="48.57988" lon="-3.22965">
        <ele>156.50513</ele>
        <time>2026-01-29T08:16:13Z</time>
      </trkpt>
      <trkpt lat="48.57994" lon="-3.22985">
        <ele>156.66408</ele>
        <time>2026-01-29T08:16:16Z</time>
      </trkpt>
      <trkpt lat="48.58001" lon="-3.23005">
        <ele>156.80351</ele>
        <time>2026-01-29T08:16:19Z</time>
      </trkpt>
      <trkpt lat="48.5801" lon="-3.23032">
        <ele>156.8938</ele>
        <time>2026-01-29T08:16:23Z</time>
      </trkpt>
      <trkpt lat="48.58018" lon="-3.23049">
        <ele>156.9409</ele>
        <time>2026-01-29T08:16:26Z</time>
      </trkpt>
      <trkpt lat="48.58028" lon="-3.23065">
        <ele>156.96306</ele>
        <time>2026-01-29T08:16:29Z</time>
      </trkpt>
      <trkpt lat="48.5804" lon="-3.23085">
        <ele>156.99086</ele>
        <time>2026-01-29T08:16:33Z</time>
      </trkpt>
      <trkpt lat="48.58052" lon="-3.23104">
        <ele>157.03308</ele>
        <time>2026-01-29T08:16:37Z</time>
      </trkpt>
      <trkpt lat="48.58061" lon="-3.23123">
        <ele>157.06487</ele>
        <time>2026-01-29T08:16:41Z</time>
      </trkpt>
      <trkpt lat="48.58072" lon="-3.2314">
        <ele>157.11557</ele>
        <time>2026-01-29T08:16:46Z</time>
      </trkpt>
      <trkpt lat="48.58077" lon="-3.23148">
        <ele>157.19868</ele>
        <time>2026-01-29T08:16:49Z</time>
      </trkpt>
      <trkpt lat="48.58081" lon="-3.23157">
        <ele>157.32515</ele>
        <time>2026-01-29T08:16:52Z</time>
      </trkpt>
      <trkpt lat="48.5807" lon="-3.23171">
        <ele>157.52507</ele>
        <time>2026-01-29T08:16:57Z</time>
      </trkpt>
      <trkpt lat="48.58054" lon="-3.23174">
        <ele>157.80304</ele>
        <time>2026-01-29T08:17:01Z</time>
      </trkpt>
      <trkpt lat="48.58037" lon="-3.23179">
        <ele>158.13562</ele>
        <time>2026-01-29T08:17:05Z</time>
      </trkpt>
      <trkpt lat="48.58024" lon="-3.23184">
        <ele>158.53424</ele>
        <time>2026-01-29T08:17:08Z</time>
      </trkpt>
      <trkpt lat="48.5801" lon="-3.23188">
        <ele>158.9769</ele>
        <time>2026-01-29T08:17:11Z</time>
      </trkpt>
      <trkpt lat="48.57996" lon="-3.23192">
        <ele>159.41116</ele>
        <time>2026-01-29T08:17:14Z</time>
      </trkpt>
      <trkpt lat="48.57982" lon="-3.23197">
        <ele>159.85475</ele>
        <time>2026-01-29T08:17:17Z</time>
      </trkpt>
      <trkpt lat="48.57961" lon="-3.23204">
        <ele>160.25195</ele>
        <time>2026-01-29T08:17:21Z</time>
      </trkpt>
      <trkpt lat="48.5794" lon="-3.23214">
        <ele>160.54233</ele>
        <time>2026-01-29T08:17:25Z</time>
      </trkpt>
      <trkpt lat="48.57921" lon="-3.23226">
        <ele>160.7254</ele>
        <time>2026-01-29T08:17:29Z</time>
      </trkpt>
      <trkpt lat="48.57902" lon="-3.23239">
        <ele>160.82915</ele>
        <time>2026-01-29T08:17:33Z</time>
      </trkpt>
      <trkpt lat="48.57889" lon="-3.23248">
        <ele>160.83728</ele>
        <time>2026-01-29T08:17:36Z</time>
      </trkpt>
      <trkpt lat="48.57877" lon="-3.23256">
        <ele>160.79764</ele>
        <time>2026-01-29T08:17:39Z</time>
      </trkpt>
      <trkpt lat="48.57863" lon="-3.23264">
        <ele>160.70943</ele>
        <time>2026-01-29T08:17:42Z</time>
      </trkpt>
      <trkpt lat="48.5785" lon="-3.23272">
        <ele>160.57455</ele>
        <time>2026-01-29T08:17:45Z</time>
      </trkpt>
      <trkpt lat="48.57834" lon="-3.23283">
        <ele>160.4686</ele>
        <time>2026-01-29T08:17:49Z</time>
      </trkpt>
      <trkpt lat="48.57818" lon="-3.23294">
        <ele>160.40811</ele>
        <time>2026-01-29T08:17:53Z</time>
      </trkpt>
      <trkpt lat="48.57805" lon="-3.23304">
        <ele>160.37128</ele>
        <time>2026-01-29T08:17:56Z</time>
      </trkpt>
      <trkpt lat="48.57793" lon="-3.23315">
        <ele>160.36076</ele>
        <time>2026-01-29T08:17:59Z</time>
      </trkpt>
      <trkpt lat="48.57777" lon="-3.23325">
        <ele>160.37878</ele>
        <time>2026-01-29T08:18:03Z</time>
      </trkpt>
      <trkpt lat="48.57761" lon="-3.23333">
        <ele>160.43092</ele>
        <time>2026-01-29T08:18:07Z</time>
      </trkpt>
      <trkpt lat="48.57747" lon="-3.23337">
        <ele>160.54341</ele>
        <time>2026-01-29T08:18:10Z</time>
      </trkpt>
      <trkpt lat="48.57733" lon="-3.23339">
        <ele>160.69377</ele>
        <time>2026-01-29T08:18:13Z</time>
      </trkpt>
      <trkpt lat="48.57719" lon="-3.23339">
        <ele>160.84962</ele>
        <time>2026-01-29T08:18:16Z</time>
      </trkpt>
      <trkpt lat="48.57705" lon="-3.23344">
        <ele>161.02133</ele>
        <time>2026-01-29T08:18:20Z</time>
      </trkpt>
      <trkpt lat="48.57702" lon="-3.23366">
        <ele>161.20204</ele>
        <time>2026-01-29T08:18:24Z</time>
      </trkpt>
      <trkpt lat="48.57702" lon="-3.23392">
        <ele>161.38666</ele>
        <time>2026-01-29T08:18:28Z</time>
      </trkpt>
      <trkpt lat="48.57701" lon="-3.23413">
        <ele>161.54916</ele>
        <time>2026-01-29T08:18:31Z</time>
      </trkpt>
      <trkpt lat="48.57701" lon="-3.23439">
        <ele>161.69385</ele>
        <time>2026-01-29T08:18:35Z</time>
      </trkpt>
      <trkpt lat="48.57699" lon="-3.23465">
        <ele>161.83023</ele>
        <time>2026-01-29T08:18:39Z</time>
      </trkpt>
      <trkpt lat="48.57697" lon="-3.2349">
        <ele>161.98181</ele>
        <time>2026-01-29T08:18:43Z</time>
      </trkpt>
      <trkpt lat="48.57695" lon="-3.23515">
        <ele>162.16324</ele>
        <time>2026-01-29T08:18:47Z</time>
      </trkpt>
      <trkpt lat="48.57693" lon="-3.23539">
        <ele>162.38503</ele>
        <time>2026-01-29T08:18:51Z</time>
      </trkpt>
      <trkpt lat="48.57695" lon="-3.23565">
        <ele>162.68387</ele>
        <time>2026-01-29T08:18:55Z</time>
      </trkpt>
      <trkpt lat="48.57697" lon="-3.23592">
        <ele>163.04124</ele>
        <time>2026-01-29T08:18:59Z</time>
      </trkpt>
      <trkpt lat="48.57699" lon="-3.23613">
        <ele>163.46335</ele>
        <time>2026-01-29T08:19:02Z</time>
      </trkpt>
      <trkpt lat="48.57702" lon="-3.23634">
        <ele>163.92021</ele>
        <time>2026-01-29T08:19:05Z</time>
      </trkpt>
      <trkpt lat="48.57704" lon="-3.23655">
        <ele>164.39821</ele>
        <time>2026-01-29T08:19:08Z</time>
      </trkpt>
      <trkpt lat="48.57706" lon="-3.23678">
        <ele>164.87764</ele>
        <time>2026-01-29T08:19:11Z</time>
      </trkpt>
      <trkpt lat="48.57707" lon="-3.23709">
        <ele>165.32825</ele>
        <time>2026-01-29T08:19:15Z</time>
      </trkpt>
      <trkpt lat="48.57708" lon="-3.23742">
        <ele>165.721</ele>
        <time>2026-01-29T08:19:19Z</time>
      </trkpt>
      <trkpt lat="48.57709" lon="-3.23777">
        <ele>166.03165</ele>
        <time>2026-01-29T08:19:23Z</time>
      </trkpt>
      <trkpt lat="48.57709" lon="-3.23809">
        <ele>166.26219</ele>
        <time>2026-01-29T08:19:27Z</time>
      </trkpt>
      <trkpt lat="48.57713" lon="-3.23844">
        <ele>166.40881</ele>
        <time>2026-01-29T08:19:31Z</time>
      </trkpt>
      <trkpt lat="48.57717" lon="-3.23877">
        <ele>166.46448</ele>
        <time>2026-01-29T08:19:35Z</time>
      </trkpt>
      <trkpt lat="48.5772" lon="-3.2391">
        <ele>166.41748</ele>
        <time>2026-01-29T08:19:39Z</time>
      </trkpt>
      <trkpt lat="48.57719" lon="-3.23943">
        <ele>166.28084</ele>
        <time>2026-01-29T08:19:43Z</time>
      </trkpt>
      <trkpt lat="48.5772" lon="-3.2397">
        <ele>166.056</ele>
        <time>2026-01-29T08:19:46Z</time>
      </trkpt>
      <trkpt lat="48.57722" lon="-3.24006">
        <ele>165.78967</ele>
        <time>2026-01-29T08:19:50Z</time>
      </trkpt>
      <trkpt lat="48.57725" lon="-3.24039">
        <ele>165.4893</ele>
        <time>2026-01-29T08:19:54Z</time>
      </trkpt>
      <trkpt lat="48.57729" lon="-3.24073">
        <ele>165.16364</ele>
        <time>2026-01-29T08:19:58Z</time>
      </trkpt>
      <trkpt lat="48.57731" lon="-3.24108">
        <ele>164.83046</ele>
        <time>2026-01-29T08:20:02Z</time>
      </trkpt>
      <trkpt lat="48.57735" lon="-3.24142">
        <ele>164.50395</ele>
        <time>2026-01-29T08:20:06Z</time>
      </trkpt>
      <trkpt lat="48.57736" lon="-3.2417">
        <ele>164.17813</ele>
        <time>2026-01-29T08:20:09Z</time>
      </trkpt>
      <trkpt lat="48.5774" lon="-3.24204">
        <ele>163.8693</ele>
        <time>2026-01-29T08:20:13Z</time>
      </trkpt>
      <trkpt lat="48.57742" lon="-3.24231">
        <ele>163.57385</ele>
        <time>2026-01-29T08:20:16Z</time>
      </trkpt>
      <trkpt lat="48.57746" lon="-3.24259">
        <ele>163.25604</ele>
        <time>2026-01-29T08:20:19Z</time>
      </trkpt>
      <trkpt lat="48.57749" lon="-3.24288">
        <ele>162.92294</ele>
        <time>2026-01-29T08:20:22Z</time>
      </trkpt>
      <trkpt lat="48.57751" lon="-3.24316">
        <ele>162.58498</ele>
        <time>2026-01-29T08:20:25Z</time>
      </trkpt>
      <trkpt lat="48.57754" lon="-3.24345">
        <ele>162.24625</ele>
        <time>2026-01-29T08:20:28Z</time>
      </trkpt>
      <trkpt lat="48.57757" lon="-3.24374">
        <ele>161.90105</ele>
        <time>2026-01-29T08:20:31Z</time>
      </trkpt>
      <trkpt lat="48.5776" lon="-3.24405">
        <ele>161.54034</ele>
        <time>2026-01-29T08:20:34Z</time>
      </trkpt>
      <trkpt lat="48.57761" lon="-3.24436">
        <ele>161.1559</ele>
        <time>2026-01-29T08:20:37Z</time>
      </trkpt>
      <trkpt lat="48.57759" lon="-3.24471">
        <ele>160.76317</ele>
        <time>2026-01-29T08:20:40Z</time>
      </trkpt>
      <trkpt lat="48.57754" lon="-3.24504">
        <ele>160.33818</ele>
        <time>2026-01-29T08:20:43Z</time>
      </trkpt>
      <trkpt lat="48.57751" lon="-3.2454">
        <ele>159.85023</ele>
        <time>2026-01-29T08:20:46Z</time>
      </trkpt>
      <trkpt lat="48.57747" lon="-3.24575">
        <ele>159.25986</ele>
        <time>2026-01-29T08:20:49Z</time>
      </trkpt>
      <trkpt lat="48.57741" lon="-3.24612">
        <ele>158.56337</ele>
        <time>2026-01-29T08:20:52Z</time>
      </trkpt>
      <trkpt lat="48.57738" lon="-3.24639">
        <ele>157.7691</ele>
        <time>2026-01-29T08:20:54Z</time>
      </trkpt>
      <trkpt lat="48.57733" lon="-3.24679">
        <ele>156.87134</ele>
        <time>2026-01-29T08:20:57Z</time>
      </trkpt>
      <trkpt lat="48.57728" lon="-3.24716">
        <ele>155.84853</ele>
        <time>2026-01-29T08:21:00Z</time>
      </trkpt>
      <trkpt lat="48.57724" lon="-3.24753">
        <ele>154.72916</ele>
        <time>2026-01-29T08:21:03Z</time>
      </trkpt>
      <trkpt lat="48.57719" lon="-3.24791">
        <ele>153.55966</ele>
        <time>2026-01-29T08:21:06Z</time>
      </trkpt>
      <trkpt lat="48.57713" lon="-3.2483">
        <ele>152.37611</ele>
        <time>2026-01-29T08:21:09Z</time>
      </trkpt>
      <trkpt lat="48.57707" lon="-3.24868">
        <ele>151.22975</ele>
        <time>2026-01-29T08:21:12Z</time>
      </trkpt>
      <trkpt lat="48.57701" lon="-3.24904">
        <ele>150.13701</ele>
        <time>2026-01-29T08:21:15Z</time>
      </trkpt>
      <trkpt lat="48.57696" lon="-3.24938">
        <ele>149.13438</ele>
        <time>2026-01-29T08:21:18Z</time>
      </trkpt>
      <trkpt lat="48.57692" lon="-3.24972">
        <ele>148.25558</ele>
        <time>2026-01-29T08:21:21Z</time>
      </trkpt>
      <trkpt lat="48.57692" lon="-3.25007">
        <ele>147.51581</ele>
        <time>2026-01-29T08:21:24Z</time>
      </trkpt>
      <trkpt lat="48.57696" lon="-3.2504">
        <ele>146.88382</ele>
        <time>2026-01-29T08:21:27Z</time>
      </trkpt>
      <trkpt lat="48.577" lon="-3.25073">
        <ele>146.36295</ele>
        <time>2026-01-29T08:21:30Z</time>
      </trkpt>
      <trkpt lat="48.57704" lon="-3.25105">
        <ele>145.93134</ele>
        <time>2026-01-29T08:21:33Z</time>
      </trkpt>
      <trkpt lat="48.57708" lon="-3.25137">
        <ele>145.54842</ele>
        <time>2026-01-29T08:21:36Z</time>
      </trkpt>
      <trkpt lat="48.57711" lon="-3.25171">
        <ele>145.18465</ele>
        <time>2026-01-29T08:21:39Z</time>
      </trkpt>
      <trkpt lat="48.57717" lon="-3.25204">
        <ele>144.81628</ele>
        <time>2026-01-29T08:21:42Z</time>
      </trkpt>
      <trkpt lat="48.57727" lon="-3.25234">
        <ele>144.42084</ele>
        <time>2026-01-29T08:21:45Z</time>
      </trkpt>
      <trkpt lat="48.57744" lon="-3.25252">
        <ele>143.99121</ele>
        <time>2026-01-29T08:21:48Z</time>
      </trkpt>
      <trkpt lat="48.57763" lon="-3.25264">
        <ele>143.52313</ele>
        <time>2026-01-29T08:21:51Z</time>
      </trkpt>
      <trkpt lat="48.57781" lon="-3.25273">
        <ele>142.99886</ele>
        <time>2026-01-29T08:21:54Z</time>
      </trkpt>
      <trkpt lat="48.57796" lon="-3.25283">
        <ele>142.42537</ele>
        <time>2026-01-29T08:21:57Z</time>
      </trkpt>
      <trkpt lat="48.57809" lon="-3.25307">
        <ele>141.80655</ele>
        <time>2026-01-29T08:22:01Z</time>
      </trkpt>
      <trkpt lat="48.57809" lon="-3.25335">
        <ele>141.15285</ele>
        <time>2026-01-29T08:22:04Z</time>
      </trkpt>
      <trkpt lat="48.57801" lon="-3.25361">
        <ele>140.4758</ele>
        <time>2026-01-29T08:22:07Z</time>
      </trkpt>
      <trkpt lat="48.5779" lon="-3.25393">
        <ele>139.80748</ele>
        <time>2026-01-29T08:22:10Z</time>
      </trkpt>
      <trkpt lat="48.57783" lon="-3.25418">
        <ele>139.14175</ele>
        <time>2026-01-29T08:22:12Z</time>
      </trkpt>
      <trkpt lat="48.57776" lon="-3.25445">
        <ele>138.48367</ele>
        <time>2026-01-29T08:22:14Z</time>
      </trkpt>
      <trkpt lat="48.57766" lon="-3.25473">
        <ele>137.82632</ele>
        <time>2026-01-29T08:22:16Z</time>
      </trkpt>
      <trkpt lat="48.57756" lon="-3.25501">
        <ele>137.1782</ele>
        <time>2026-01-29T08:22:18Z</time>
      </trkpt>
      <trkpt lat="48.57745" lon="-3.2553">
        <ele>136.54291</ele>
        <time>2026-01-29T08:22:20Z</time>
      </trkpt>
      <trkpt lat="48.57735" lon="-3.25558">
        <ele>135.90784</ele>
        <time>2026-01-29T08:22:22Z</time>
      </trkpt>
      <trkpt lat="48.57724" lon="-3.25583">
        <ele>135.25267</ele>
        <time>2026-01-29T08:22:24Z</time>
      </trkpt>
      <trkpt lat="48.57714" lon="-3.25608">
        <ele>134.58139</ele>
        <time>2026-01-29T08:22:26Z</time>
      </trkpt>
      <trkpt lat="48.57701" lon="-3.25641">
        <ele>133.91599</ele>
        <time>2026-01-29T08:22:29Z</time>
      </trkpt>
      <trkpt lat="48.57692" lon="-3.2567">
        <ele>133.3134</ele>
        <time>2026-01-29T08:22:32Z</time>
      </trkpt>
      <trkpt lat="48.57685" lon="-3.25694">
        <ele>132.83911</ele>
        <time>2026-01-29T08:22:35Z</time>
      </trkpt>
      <trkpt lat="48.57679" lon="-3.25713">
        <ele>132.51245</ele>
        <time>2026-01-29T08:22:38Z</time>
      </trkpt>
      <trkpt lat="48.57673" lon="-3.25733">
        <ele>132.37303</ele>
        <time>2026-01-29T08:22:42Z</time>
      </trkpt>
      <trkpt lat="48.57666" lon="-3.25756">
        <ele>132.4541</ele>
        <time>2026-01-29T08:22:47Z</time>
      </trkpt>
      <trkpt lat="48.57663" lon="-3.25778">
        <ele>132.7333</ele>
        <time>2026-01-29T08:22:51Z</time>
      </trkpt>
      <trkpt lat="48.57669" lon="-3.25796">
        <ele>133.20233</ele>
        <time>2026-01-29T08:22:54Z</time>
      </trkpt>
      <trkpt lat="48.57672" lon="-3.25821">
        <ele>133.82887</ele>
        <time>2026-01-29T08:22:58Z</time>
      </trkpt>
      <trkpt lat="48.57667" lon="-3.25844">
        <ele>134.57092</ele>
        <time>2026-01-29T08:23:02Z</time>
      </trkpt>
      <trkpt lat="48.5766" lon="-3.25867">
        <ele>135.39372</ele>
        <time>2026-01-29T08:23:06Z</time>
      </trkpt>
      <trkpt lat="48.57652" lon="-3.2589">
        <ele>136.25963</ele>
        <time>2026-01-29T08:23:10Z</time>
      </trkpt>
      <trkpt lat="48.57645" lon="-3.25913">
        <ele>137.1218</ele>
        <time>2026-01-29T08:23:14Z</time>
      </trkpt>
      <trkpt lat="48.57641" lon="-3.25937">
        <ele>137.98718</ele>
        <time>2026-01-29T08:23:18Z</time>
      </trkpt>
      <trkpt lat="48.57641" lon="-3.25962">
        <ele>138.86627</ele>
        <time>2026-01-29T08:23:22Z</time>
      </trkpt>
      <trkpt lat="48.57643" lon="-3.25985">
        <ele>139.73056</ele>
        <time>2026-01-29T08:23:26Z</time>
      </trkpt>
      <trkpt lat="48.57646" lon="-3.26007">
        <ele>140.54099</ele>
        <time>2026-01-29T08:23:30Z</time>
      </trkpt>
      <trkpt lat="48.57648" lon="-3.2603">
        <ele>141.24948</ele>
        <time>2026-01-29T08:23:34Z</time>
      </trkpt>
      <trkpt lat="48.57648" lon="-3.26052">
        <ele>141.84691</ele>
        <time>2026-01-29T08:23:38Z</time>
      </trkpt>
      <trkpt lat="48.57644" lon="-3.26074">
        <ele>142.3555</ele>
        <time>2026-01-29T08:23:42Z</time>
      </trkpt>
      <trkpt lat="48.57636" lon="-3.26094">
        <ele>142.78912</ele>
        <time>2026-01-29T08:23:46Z</time>
      </trkpt>
      <trkpt lat="48.57625" lon="-3.26112">
        <ele>143.12209</ele>
        <time>2026-01-29T08:23:51Z</time>
      </trkpt>
      <trkpt lat="48.57615" lon="-3.26128">
        <ele>143.36082</ele>
        <time>2026-01-29T08:23:56Z</time>
      </trkpt>
      <trkpt lat="48.57611" lon="-3.26138">
        <ele>143.52057</ele>
        <time>2026-01-29T08:23:59Z</time>
      </trkpt>
      <trkpt lat="48.57609" lon="-3.26148">
        <ele>143.66675</ele>
        <time>2026-01-29T08:24:02Z</time>
      </trkpt>
      <trkpt lat="48.57611" lon="-3.26158">
        <ele>143.81734</ele>
        <time>2026-01-29T08:24:10Z</time>
      </trkpt>
      <trkpt lat="48.5762" lon="-3.26161">
        <ele>143.92621</ele>
        <time>2026-01-29T08:24:36Z</time>
      </trkpt>
      <trkpt lat="48.57634" lon="-3.26164">
        <ele>143.9694</ele>
        <time>2026-01-29T08:24:40Z</time>
      </trkpt>
      <trkpt lat="48.57654" lon="-3.26167">
        <ele>143.93198</ele>
        <time>2026-01-29T08:24:44Z</time>
      </trkpt>
      <trkpt lat="48.57677" lon="-3.26171">
        <ele>143.7953</ele>
        <time>2026-01-29T08:24:48Z</time>
      </trkpt>
      <trkpt lat="48.57699" lon="-3.26175">
        <ele>143.54465</ele>
        <time>2026-01-29T08:24:51Z</time>
      </trkpt>
      <trkpt lat="48.5772" lon="-3.26179">
        <ele>143.17186</ele>
        <time>2026-01-29T08:24:54Z</time>
      </trkpt>
      <trkpt lat="48.57744" lon="-3.26185">
        <ele>142.63832</ele>
        <time>2026-01-29T08:24:57Z</time>
      </trkpt>
      <trkpt lat="48.57769" lon="-3.2619">
        <ele>141.96643</ele>
        <time>2026-01-29T08:25:00Z</time>
      </trkpt>
      <trkpt lat="48.57795" lon="-3.26191">
        <ele>141.18744</ele>
        <time>2026-01-29T08:25:03Z</time>
      </trkpt>
      <trkpt lat="48.57813" lon="-3.26188">
        <ele>140.3002</ele>
        <time>2026-01-29T08:25:05Z</time>
      </trkpt>
      <trkpt lat="48.57832" lon="-3.26182">
        <ele>139.33583</ele>
        <time>2026-01-29T08:25:07Z</time>
      </trkpt>
      <trkpt lat="48.5785" lon="-3.26174">
        <ele>138.30869</ele>
        <time>2026-01-29T08:25:09Z</time>
      </trkpt>
      <trkpt lat="48.57867" lon="-3.26163">
        <ele>137.23549</ele>
        <time>2026-01-29T08:25:11Z</time>
      </trkpt>
      <trkpt lat="48.57884" lon="-3.26153">
        <ele>136.15656</ele>
        <time>2026-01-29T08:25:13Z</time>
      </trkpt>
      <trkpt lat="48.57909" lon="-3.26139">
        <ele>135.0984</ele>
        <time>2026-01-29T08:25:16Z</time>
      </trkpt>
      <trkpt lat="48.57933" lon="-3.26126">
        <ele>134.07042</ele>
        <time>2026-01-29T08:25:19Z</time>
      </trkpt>
      <trkpt lat="48.57958" lon="-3.26117">
        <ele>133.11105</ele>
        <time>2026-01-29T08:25:22Z</time>
      </trkpt>
      <trkpt lat="48.57981" lon="-3.2611">
        <ele>132.2459</ele>
        <time>2026-01-29T08:25:25Z</time>
      </trkpt>
      <trkpt lat="48.58004" lon="-3.26106">
        <ele>131.47206</ele>
        <time>2026-01-29T08:25:28Z</time>
      </trkpt>
      <trkpt lat="48.58026" lon="-3.26102">
        <ele>130.80943</ele>
        <time>2026-01-29T08:25:31Z</time>
      </trkpt>
      <trkpt lat="48.58048" lon="-3.26098">
        <ele>130.24486</ele>
        <time>2026-01-29T08:25:34Z</time>
      </trkpt>
      <trkpt lat="48.5807" lon="-3.26095">
        <ele>129.78296</ele>
        <time>2026-01-29T08:25:37Z</time>
      </trkpt>
      <trkpt lat="48.58091" lon="-3.26092">
        <ele>129.40773</ele>
        <time>2026-01-29T08:25:40Z</time>
      </trkpt>
      <trkpt lat="48.58112" lon="-3.26089">
        <ele>129.10648</ele>
        <time>2026-01-29T08:25:43Z</time>
      </trkpt>
      <trkpt lat="48.58134" lon="-3.26087">
        <ele>128.83868</ele>
        <time>2026-01-29T08:25:46Z</time>
      </trkpt>
      <trkpt lat="48.58157" lon="-3.26086">
        <ele>128.63493</ele>
        <time>2026-01-29T08:25:49Z</time>
      </trkpt>
      <trkpt lat="48.5818" lon="-3.26085">
        <ele>128.45026</ele>
        <time>2026-01-29T08:25:52Z</time>
      </trkpt>
      <trkpt lat="48.58207" lon="-3.26088">
        <ele>128.25096</ele>
        <time>2026-01-29T08:25:55Z</time>
      </trkpt>
      <trkpt lat="48.58234" lon="-3.26091">
        <ele>128.02402</ele>
        <time>2026-01-29T08:25:58Z</time>
      </trkpt>
      <trkpt lat="48.58254" lon="-3.26097">
        <ele>127.73684</ele>
        <time>2026-01-29T08:26:00Z</time>
      </trkpt>
      <trkpt lat="48.58273" lon="-3.26104">
        <ele>127.38154</ele>
        <time>2026-01-29T08:26:02Z</time>
      </trkpt>
      <trkpt lat="48.58291" lon="-3.26108">
        <ele>126.95732</ele>
        <time>2026-01-29T08:26:04Z</time>
      </trkpt>
      <trkpt lat="48.58317" lon="-3.26118">
        <ele>126.443375</ele>
        <time>2026-01-29T08:26:07Z</time>
      </trkpt>
      <trkpt lat="48.58337" lon="-3.26127">
        <ele>125.84615</ele>
        <time>2026-01-29T08:26:10Z</time>
      </trkpt>
      <trkpt lat="48.58354" lon="-3.26135">
        <ele>125.251335</ele>
        <time>2026-01-29T08:26:13Z</time>
      </trkpt>
      <trkpt lat="48.58369" lon="-3.26145">
        <ele>124.67923</ele>
        <time>2026-01-29T08:26:16Z</time>
      </trkpt>
      <trkpt lat="48.58383" lon="-3.26153">
        <ele>124.165016</ele>
        <time>2026-01-29T08:26:19Z</time>
      </trkpt>
      <trkpt lat="48.58396" lon="-3.26161">
        <ele>123.73925</ele>
        <time>2026-01-29T08:26:22Z</time>
      </trkpt>
      <trkpt lat="48.58409" lon="-3.26171">
        <ele>123.456276</ele>
        <time>2026-01-29T08:26:25Z</time>
      </trkpt>
      <trkpt lat="48.58422" lon="-3.26179">
        <ele>123.3251</ele>
        <time>2026-01-29T08:26:28Z</time>
      </trkpt>
      <trkpt lat="48.58434" lon="-3.26189">
        <ele>123.35321</ele>
        <time>2026-01-29T08:26:31Z</time>
      </trkpt>
      <trkpt lat="48.58454" lon="-3.26199">
        <ele>123.497574</ele>
        <time>2026-01-29T08:26:35Z</time>
      </trkpt>
      <trkpt lat="48.58474" lon="-3.26208">
        <ele>123.743126</ele>
        <time>2026-01-29T08:26:39Z</time>
      </trkpt>
      <trkpt lat="48.58489" lon="-3.26212">
        <ele>124.09207</ele>
        <time>2026-01-29T08:26:42Z</time>
      </trkpt>
      <trkpt lat="48.58502" lon="-3.26217">
        <ele>124.531204</ele>
        <time>2026-01-29T08:26:45Z</time>
      </trkpt>
      <trkpt lat="48.58516" lon="-3.26222">
        <ele>125.03506</ele>
        <time>2026-01-29T08:26:48Z</time>
      </trkpt>
      <trkpt lat="48.58533" lon="-3.26226">
        <ele>125.57139</ele>
        <time>2026-01-29T08:26:52Z</time>
      </trkpt>
      <trkpt lat="48.5855" lon="-3.26231">
        <ele>126.14972</ele>
        <time>2026-01-29T08:26:56Z</time>
      </trkpt>
      <trkpt lat="48.5857" lon="-3.26234">
        <ele>126.77943</ele>
        <time>2026-01-29T08:27:00Z</time>
      </trkpt>
      <trkpt lat="48.58584" lon="-3.26235">
        <ele>127.4507</ele>
        <time>2026-01-29T08:27:03Z</time>
      </trkpt>
      <trkpt lat="48.58601" lon="-3.26235">
        <ele>128.13805</ele>
        <time>2026-01-29T08:27:07Z</time>
      </trkpt>
      <trkpt lat="48.58616" lon="-3.26233">
        <ele>128.81749</ele>
        <time>2026-01-29T08:27:10Z</time>
      </trkpt>
      <trkpt lat="48.58631" lon="-3.26232">
        <ele>129.44905</ele>
        <time>2026-01-29T08:27:13Z</time>
      </trkpt>
      <trkpt lat="48.58645" lon="-3.26229">
        <ele>130.03236</ele>
        <time>2026-01-29T08:27:16Z</time>
      </trkpt>
      <trkpt lat="48.58664" lon="-3.26225">
        <ele>130.54822</ele>
        <time>2026-01-29T08:27:20Z</time>
      </trkpt>
      <trkpt lat="48.58685" lon="-3.26219">
        <ele>130.96329</ele>
        <time>2026-01-29T08:27:24Z</time>
      </trkpt>
      <trkpt lat="48.58701" lon="-3.26215">
        <ele>131.27754</ele>
        <time>2026-01-29T08:27:27Z</time>
      </trkpt>
      <trkpt lat="48.58717" lon="-3.26208">
        <ele>131.4817</ele>
        <time>2026-01-29T08:27:31Z</time>
      </trkpt>
      <trkpt lat="48.58733" lon="-3.26204">
        <ele>131.5705</ele>
        <time>2026-01-29T08:27:35Z</time>
      </trkpt>
      <trkpt lat="48.58748" lon="-3.26201">
        <ele>131.57416</ele>
        <time>2026-01-29T08:27:39Z</time>
      </trkpt>
      <trkpt lat="48.58762" lon="-3.26211">
        <ele>131.54387</ele>
        <time>2026-01-29T08:27:43Z</time>
      </trkpt>
      <trkpt lat="48.58765" lon="-3.26238">
        <ele>131.47392</ele>
        <time>2026-01-29T08:27:47Z</time>
      </trkpt>
      <trkpt lat="48.58768" lon="-3.26259">
        <ele>131.39655</ele>
        <time>2026-01-29T08:27:50Z</time>
      </trkpt>
      <trkpt lat="48.58772" lon="-3.26281">
        <ele>131.32133</ele>
        <time>2026-01-29T08:27:53Z</time>
      </trkpt>
      <trkpt lat="48.58773" lon="-3.26303">
        <ele>131.28033</ele>
        <time>2026-01-29T08:27:56Z</time>
      </trkpt>
      <trkpt lat="48.58774" lon="-3.26328">
        <ele>131.30962</ele>
        <time>2026-01-29T08:28:00Z</time>
      </trkpt>
      <trkpt lat="48.58774" lon="-3.26352">
        <ele>131.4184</ele>
        <time>2026-01-29T08:28:04Z</time>
      </trkpt>
      <trkpt lat="48.58775" lon="-3.26374">
        <ele>131.55281</ele>
        <time>2026-01-29T08:28:08Z</time>
      </trkpt>
      <trkpt lat="48.58777" lon="-3.26399">
        <ele>131.71388</ele>
        <time>2026-01-29T08:28:12Z</time>
      </trkpt>
      <trkpt lat="48.5878" lon="-3.26422">
        <ele>131.88297</ele>
        <time>2026-01-29T08:28:16Z</time>
      </trkpt>
      <trkpt lat="48.58783" lon="-3.26446">
        <ele>132.09525</ele>
        <time>2026-01-29T08:28:20Z</time>
      </trkpt>
      <trkpt lat="48.58787" lon="-3.26471">
        <ele>132.34268</ele>
        <time>2026-01-29T08:28:24Z</time>
      </trkpt>
      <trkpt lat="48.5879" lon="-3.26496">
        <ele>132.60472</ele>
        <time>2026-01-29T08:28:28Z</time>
      </trkpt>
      <trkpt lat="48.58795" lon="-3.26522">
        <ele>132.85063</ele>
        <time>2026-01-29T08:28:32Z</time>
      </trkpt>
      <trkpt lat="48.58798" lon="-3.26543">
        <ele>133.09714</ele>
        <time>2026-01-29T08:28:35Z</time>
      </trkpt>
      <trkpt lat="48.58802" lon="-3.26564">
        <ele>133.38428</ele>
        <time>2026-01-29T08:28:38Z</time>
      </trkpt>
      <trkpt lat="48.58806" lon="-3.26584">
        <ele>133.73442</ele>
        <time>2026-01-29T08:28:41Z</time>
      </trkpt>
      <trkpt lat="48.58809" lon="-3.26604">
        <ele>134.12772</ele>
        <time>2026-01-29T08:28:44Z</time>
      </trkpt>
      <trkpt lat="48.58812" lon="-3.26625">
        <ele>134.52899</ele>
        <time>2026-01-29T08:28:47Z</time>
      </trkpt>
      <trkpt lat="48.58816" lon="-3.26646">
        <ele>134.92459</ele>
        <time>2026-01-29T08:28:50Z</time>
      </trkpt>
      <trkpt lat="48.5882" lon="-3.26673">
        <ele>135.31009</ele>
        <time>2026-01-29T08:28:54Z</time>
      </trkpt>
      <trkpt lat="48.58825" lon="-3.26707">
        <ele>135.6757</ele>
        <time>2026-01-29T08:28:58Z</time>
      </trkpt>
      <trkpt lat="48.58827" lon="-3.26741">
        <ele>135.98453</ele>
        <time>2026-01-29T08:29:02Z</time>
      </trkpt>
      <trkpt lat="48.58827" lon="-3.26777">
        <ele>136.20158</ele>
        <time>2026-01-29T08:29:06Z</time>
      </trkpt>
      <trkpt lat="48.58828" lon="-3.26806">
        <ele>136.28464</ele>
        <time>2026-01-29T08:29:09Z</time>
      </trkpt>
      <trkpt lat="48.5883" lon="-3.26838">
        <ele>136.23868</ele>
        <time>2026-01-29T08:29:12Z</time>
      </trkpt>
      <trkpt lat="48.58836" lon="-3.26869">
        <ele>136.05519</ele>
        <time>2026-01-29T08:29:15Z</time>
      </trkpt>
      <trkpt lat="48.58842" lon="-3.26899">
        <ele>135.76794</ele>
        <time>2026-01-29T08:29:18Z</time>
      </trkpt>
      <trkpt lat="48.58847" lon="-3.26928">
        <ele>135.40178</ele>
        <time>2026-01-29T08:29:21Z</time>
      </trkpt>
      <trkpt lat="48.58852" lon="-3.26958">
        <ele>134.96834</ele>
        <time>2026-01-29T08:29:24Z</time>
      </trkpt>
      <trkpt lat="48.58855" lon="-3.26989">
        <ele>134.48643</ele>
        <time>2026-01-29T08:29:27Z</time>
      </trkpt>
      <trkpt lat="48.58857" lon="-3.27019">
        <ele>133.9942</ele>
        <time>2026-01-29T08:29:30Z</time>
      </trkpt>
      <trkpt lat="48.58857" lon="-3.27049">
        <ele>133.52806</ele>
        <time>2026-01-29T08:29:33Z</time>
      </trkpt>
      <trkpt lat="48.58857" lon="-3.27079">
        <ele>133.13191</ele>
        <time>2026-01-29T08:29:36Z</time>
      </trkpt>
      <trkpt lat="48.58857" lon="-3.27109">
        <ele>132.80403</ele>
        <time>2026-01-29T08:29:39Z</time>
      </trkpt>
      <trkpt lat="48.58857" lon="-3.27138">
        <ele>132.54362</ele>
        <time>2026-01-29T08:29:42Z</time>
      </trkpt>
      <trkpt lat="48.58857" lon="-3.27166">
        <ele>132.34549</ele>
        <time>2026-01-29T08:29:45Z</time>
      </trkpt>
      <trkpt lat="48.58858" lon="-3.27194">
        <ele>132.22581</ele>
        <time>2026-01-29T08:29:48Z</time>
      </trkpt>
      <trkpt lat="48.58857" lon="-3.27226">
        <ele>132.18443</ele>
        <time>2026-01-29T08:29:52Z</time>
      </trkpt>
      <trkpt lat="48.58857" lon="-3.27257">
        <ele>132.23306</ele>
        <time>2026-01-29T08:29:56Z</time>
      </trkpt>
      <trkpt lat="48.58856" lon="-3.2729">
        <ele>132.35062</ele>
        <time>2026-01-29T08:30:00Z</time>
      </trkpt>
      <trkpt lat="48.58853" lon="-3.27324">
        <ele>132.51613</ele>
        <time>2026-01-29T08:30:04Z</time>
      </trkpt>
      <trkpt lat="48.58851" lon="-3.27359">
        <ele>132.71138</ele>
        <time>2026-01-29T08:30:08Z</time>
      </trkpt>
      <trkpt lat="48.58851" lon="-3.27393">
        <ele>132.92212</ele>
        <time>2026-01-29T08:30:12Z</time>
      </trkpt>
      <trkpt lat="48.58853" lon="-3.27427">
        <ele>133.1245</ele>
        <time>2026-01-29T08:30:16Z</time>
      </trkpt>
      <trkpt lat="48.58855" lon="-3.27449">
        <ele>133.3014</ele>
        <time>2026-01-29T08:30:19Z</time>
      </trkpt>
      <trkpt lat="48.58856" lon="-3.27472">
        <ele>133.42838</ele>
        <time>2026-01-29T08:30:22Z</time>
      </trkpt>
      <trkpt lat="48.58858" lon="-3.27498">
        <ele>133.47351</ele>
        <time>2026-01-29T08:30:26Z</time>
      </trkpt>
      <trkpt lat="48.58856" lon="-3.27523">
        <ele>133.44453</ele>
        <time>2026-01-29T08:30:30Z</time>
      </trkpt>
      <trkpt lat="48.58849" lon="-3.27541">
        <ele>133.37506</ele>
        <time>2026-01-29T08:30:33Z</time>
      </trkpt>
      <trkpt lat="48.58845" lon="-3.27561">
        <ele>133.28545</ele>
        <time>2026-01-29T08:30:36Z</time>
      </trkpt>
      <trkpt lat="48.58855" lon="-3.27584">
        <ele>133.17699</ele>
        <time>2026-01-29T08:30:40Z</time>
      </trkpt>
      <trkpt lat="48.58874" lon="-3.27605">
        <ele>133.04353</ele>
        <time>2026-01-29T08:30:44Z</time>
      </trkpt>
      <trkpt lat="48.58888" lon="-3.27627">
        <ele>132.86777</ele>
        <time>2026-01-29T08:30:47Z</time>
      </trkpt>
      <trkpt lat="48.58901" lon="-3.27654">
        <ele>132.67847</ele>
        <time>2026-01-29T08:30:50Z</time>
      </trkpt>
      <trkpt lat="48.5891" lon="-3.27685">
        <ele>132.48495</ele>
        <time>2026-01-29T08:30:53Z</time>
      </trkpt>
      <trkpt lat="48.58916" lon="-3.27716">
        <ele>132.2792</ele>
        <time>2026-01-29T08:30:56Z</time>
      </trkpt>
      <trkpt lat="48.58922" lon="-3.27748">
        <ele>132.03506</ele>
        <time>2026-01-29T08:30:59Z</time>
      </trkpt>
      <trkpt lat="48.58926" lon="-3.2778">
        <ele>131.73691</ele>
        <time>2026-01-29T08:31:02Z</time>
      </trkpt>
      <trkpt lat="48.58926" lon="-3.27808">
        <ele>131.41548</ele>
        <time>2026-01-29T08:31:05Z</time>
      </trkpt>
      <trkpt lat="48.58924" lon="-3.27832">
        <ele>131.12727</ele>
        <time>2026-01-29T08:31:08Z</time>
      </trkpt>
      <trkpt lat="48.5892" lon="-3.27852">
        <ele>130.92918</ele>
        <time>2026-01-29T08:31:11Z</time>
      </trkpt>
      <trkpt lat="48.58913" lon="-3.2787">
        <ele>130.83421</ele>
        <time>2026-01-29T08:31:14Z</time>
      </trkpt>
      <trkpt lat="48.58905" lon="-3.27888">
        <ele>130.85811</ele>
        <time>2026-01-29T08:31:17Z</time>
      </trkpt>
      <trkpt lat="48.58898" lon="-3.27908">
        <ele>131.00757</ele>
        <time>2026-01-29T08:31:20Z</time>
      </trkpt>
      <trkpt lat="48.58892" lon="-3.27927">
        <ele>131.32182</ele>
        <time>2026-01-29T08:31:23Z</time>
      </trkpt>
      <trkpt lat="48.58889" lon="-3.27953">
        <ele>131.81456</ele>
        <time>2026-01-29T08:31:27Z</time>
      </trkpt>
      <trkpt lat="48.58888" lon="-3.27979">
        <ele>132.4385</ele>
        <time>2026-01-29T08:31:31Z</time>
      </trkpt>
      <trkpt lat="48.58888" lon="-3.28002">
        <ele>133.11156</ele>
        <time>2026-01-29T08:31:35Z</time>
      </trkpt>
      <trkpt lat="48.58889" lon="-3.28025">
        <ele>133.79214</ele>
        <time>2026-01-29T08:31:39Z</time>
      </trkpt>
      <trkpt lat="48.58888" lon="-3.28048">
        <ele>134.43845</ele>
        <time>2026-01-29T08:31:43Z</time>
      </trkpt>
      <trkpt lat="48.58887" lon="-3.28074">
        <ele>135.07321</ele>
        <time>2026-01-29T08:31:47Z</time>
      </trkpt>
      <trkpt lat="48.58885" lon="-3.281">
        <ele>135.67664</ele>
        <time>2026-01-29T08:31:51Z</time>
      </trkpt>
      <trkpt lat="48.58883" lon="-3.28127">
        <ele>136.2194</ele>
        <time>2026-01-29T08:31:55Z</time>
      </trkpt>
      <trkpt lat="48.58882" lon="-3.28156">
        <ele>136.69028</ele>
        <time>2026-01-29T08:31:59Z</time>
      </trkpt>
      <trkpt lat="48.5888" lon="-3.28179">
        <ele>137.11398</ele>
        <time>2026-01-29T08:32:02Z</time>
      </trkpt>
      <trkpt lat="48.58879" lon="-3.28209">
        <ele>137.54004</ele>
        <time>2026-01-29T08:32:06Z</time>
      </trkpt>
      <trkpt lat="48.5888" lon="-3.2824">
        <ele>137.96788</ele>
        <time>2026-01-29T08:32:10Z</time>
      </trkpt>
      <trkpt lat="48.58884" lon="-3.2827">
        <ele>138.40128</ele>
        <time>2026-01-29T08:32:14Z</time>
      </trkpt>
      <trkpt lat="48.58887" lon="-3.28292">
        <ele>138.81436</ele>
        <time>2026-01-29T08:32:17Z</time>
      </trkpt>
      <trkpt lat="48.58889" lon="-3.28314">
        <ele>139.19896</ele>
        <time>2026-01-29T08:32:20Z</time>
      </trkpt>
      <trkpt lat="48.5889" lon="-3.28335">
        <ele>139.59047</ele>
        <time>2026-01-29T08:32:23Z</time>
      </trkpt>
      <trkpt lat="48.58891" lon="-3.28356">
        <ele>140.01662</ele>
        <time>2026-01-29T08:32:26Z</time>
      </trkpt>
      <trkpt lat="48.58891" lon="-3.28378">
        <ele>140.46896</ele>
        <time>2026-01-29T08:32:29Z</time>
      </trkpt>
      <trkpt lat="48.58891" lon="-3.28399">
        <ele>140.94377</ele>
        <time>2026-01-29T08:32:32Z</time>
      </trkpt>
      <trkpt lat="48.58891" lon="-3.2842">
        <ele>141.41666</ele>
        <time>2026-01-29T08:32:35Z</time>
      </trkpt>
      <trkpt lat="48.58892" lon="-3.28447">
        <ele>141.91208</ele>
        <time>2026-01-29T08:32:39Z</time>
      </trkpt>
      <trkpt lat="48.58893" lon="-3.28468">
        <ele>142.4333</ele>
        <time>2026-01-29T08:32:42Z</time>
      </trkpt>
      <trkpt lat="48.58897" lon="-3.28492">
        <ele>142.97864</ele>
        <time>2026-01-29T08:32:46Z</time>
      </trkpt>
      <trkpt lat="48.58903" lon="-3.28516">
        <ele>143.50522</ele>
        <time>2026-01-29T08:32:50Z</time>
      </trkpt>
      <trkpt lat="48.58907" lon="-3.28539">
        <ele>143.99936</ele>
        <time>2026-01-29T08:32:54Z</time>
      </trkpt>
      <trkpt lat="48.58916" lon="-3.28563">
        <ele>144.4618</ele>
        <time>2026-01-29T08:32:58Z</time>
      </trkpt>
      <trkpt lat="48.58923" lon="-3.28582">
        <ele>144.88329</ele>
        <time>2026-01-29T08:33:01Z</time>
      </trkpt>
      <trkpt lat="48.58933" lon="-3.28607">
        <ele>145.26279</ele>
        <time>2026-01-29T08:33:05Z</time>
      </trkpt>
      <trkpt lat="48.5894" lon="-3.2863">
        <ele>145.60742</ele>
        <time>2026-01-29T08:33:09Z</time>
      </trkpt>
      <trkpt lat="48.58941" lon="-3.28651">
        <ele>145.9114</ele>
        <time>2026-01-29T08:33:12Z</time>
      </trkpt>
      <trkpt lat="48.58933" lon="-3.28678">
        <ele>146.17862</ele>
        <time>2026-01-29T08:33:16Z</time>
      </trkpt>
      <trkpt lat="48.58918" lon="-3.28701">
        <ele>146.42537</ele>
        <time>2026-01-29T08:33:20Z</time>
      </trkpt>
      <trkpt lat="48.58903" lon="-3.28723">
        <ele>146.70097</ele>
        <time>2026-01-29T08:33:24Z</time>
      </trkpt>
      <trkpt lat="48.58891" lon="-3.28739">
        <ele>147.0095</ele>
        <time>2026-01-29T08:33:28Z</time>
      </trkpt>
      <trkpt lat="48.58879" lon="-3.28756">
        <ele>147.36621</ele>
        <time>2026-01-29T08:33:33Z</time>
      </trkpt>
      <trkpt lat="48.58867" lon="-3.28775">
        <ele>147.76987</ele>
        <time>2026-01-29T08:33:37Z</time>
      </trkpt>
      <trkpt lat="48.58863" lon="-3.288">
        <ele>148.19493</ele>
        <time>2026-01-29T08:33:41Z</time>
      </trkpt>
      <trkpt lat="48.58861" lon="-3.28827">
        <ele>148.64557</ele>
        <time>2026-01-29T08:33:45Z</time>
      </trkpt>
      <trkpt lat="48.58861" lon="-3.28853">
        <ele>149.11517</ele>
        <time>2026-01-29T08:33:49Z</time>
      </trkpt>
      <trkpt lat="48.58862" lon="-3.28875">
        <ele>149.53351</ele>
        <time>2026-01-29T08:33:52Z</time>
      </trkpt>
      <trkpt lat="48.58865" lon="-3.28895">
        <ele>149.8728</ele>
        <time>2026-01-29T08:33:55Z</time>
      </trkpt>
      <trkpt lat="48.58874" lon="-3.28922">
        <ele>150.14787</ele>
        <time>2026-01-29T08:33:59Z</time>
      </trkpt>
      <trkpt lat="48.58887" lon="-3.28946">
        <ele>150.35127</ele>
        <time>2026-01-29T08:34:03Z</time>
      </trkpt>
      <trkpt lat="48.58897" lon="-3.28963">
        <ele>150.51428</ele>
        <time>2026-01-29T08:34:06Z</time>
      </trkpt>
      <trkpt lat="48.5891" lon="-3.28987">
        <ele>150.65579</ele>
        <time>2026-01-29T08:34:10Z</time>
      </trkpt>
      <trkpt lat="48.58922" lon="-3.29012">
        <ele>150.7763</ele>
        <time>2026-01-29T08:34:14Z</time>
      </trkpt>
      <trkpt lat="48.5893" lon="-3.29031">
        <ele>150.91637</ele>
        <time>2026-01-29T08:34:17Z</time>
      </trkpt>
      <trkpt lat="48.58938" lon="-3.2905">
        <ele>151.11688</ele>
        <time>2026-01-29T08:34:20Z</time>
      </trkpt>
      <trkpt lat="48.58946" lon="-3.29068">
        <ele>151.34322</ele>
        <time>2026-01-29T08:34:23Z</time>
      </trkpt>
      <trkpt lat="48.58954" lon="-3.29087">
        <ele>151.59895</ele>
        <time>2026-01-29T08:34:26Z</time>
      </trkpt>
      <trkpt lat="48.58962" lon="-3.29104">
        <ele>151.89789</ele>
        <time>2026-01-29T08:34:29Z</time>
      </trkpt>
      <trkpt lat="48.5897" lon="-3.29123">
        <ele>152.22984</ele>
        <time>2026-01-29T08:34:32Z</time>
      </trkpt>
      <trkpt lat="48.58982" lon="-3.29149">
        <ele>152.57822</ele>
        <time>2026-01-29T08:34:36Z</time>
      </trkpt>
      <trkpt lat="48.58993" lon="-3.29174">
        <ele>152.94264</ele>
        <time>2026-01-29T08:34:40Z</time>
      </trkpt>
      <trkpt lat="48.59004" lon="-3.29199">
        <ele>153.32463</ele>
        <time>2026-01-29T08:34:44Z</time>
      </trkpt>
      <trkpt lat="48.59013" lon="-3.29226">
        <ele>153.75273</ele>
        <time>2026-01-29T08:34:48Z</time>
      </trkpt>
      <trkpt lat="48.59018" lon="-3.29247">
        <ele>154.22522</ele>
        <time>2026-01-29T08:34:51Z</time>
      </trkpt>
      <trkpt lat="48.59025" lon="-3.29277">
        <ele>154.72176</ele>
        <time>2026-01-29T08:34:55Z</time>
      </trkpt>
      <trkpt lat="48.5903" lon="-3.29306">
        <ele>155.23436</ele>
        <time>2026-01-29T08:34:59Z</time>
      </trkpt>
      <trkpt lat="48.59036" lon="-3.29327">
        <ele>155.79272</ele>
        <time>2026-01-29T08:35:02Z</time>
      </trkpt>
      <trkpt lat="48.59041" lon="-3.29347">
        <ele>156.37585</ele>
        <time>2026-01-29T08:35:05Z</time>
      </trkpt>
      <trkpt lat="48.59051" lon="-3.29373">
        <ele>156.96344</ele>
        <time>2026-01-29T08:35:09Z</time>
      </trkpt>
      <trkpt lat="48.59061" lon="-3.29399">
        <ele>157.55151</ele>
        <time>2026-01-29T08:35:13Z</time>
      </trkpt>
      <trkpt lat="48.59072" lon="-3.29425">
        <ele>158.12956</ele>
        <time>2026-01-29T08:35:17Z</time>
      </trkpt>
      <trkpt lat="48.59083" lon="-3.29453">
        <ele>158.68108</ele>
        <time>2026-01-29T08:35:21Z</time>
      </trkpt>
      <trkpt lat="48.59088" lon="-3.29483">
        <ele>159.20403</ele>
        <time>2026-01-29T08:35:25Z</time>
      </trkpt>
      <trkpt lat="48.5909" lon="-3.29516">
        <ele>159.67973</ele>
        <time>2026-01-29T08:35:29Z</time>
      </trkpt>
      <trkpt lat="48.5909" lon="-3.29548">
        <ele>160.11586</ele>
        <time>2026-01-29T08:35:33Z</time>
      </trkpt>
      <trkpt lat="48.59087" lon="-3.29578">
        <ele>160.5308</ele>
        <time>2026-01-29T08:35:37Z</time>
      </trkpt>
      <trkpt lat="48.59084" lon="-3.2961">
        <ele>160.94481</ele>
        <time>2026-01-29T08:35:41Z</time>
      </trkpt>
      <trkpt lat="48.59081" lon="-3.2964">
        <ele>161.36786</ele>
        <time>2026-01-29T08:35:45Z</time>
      </trkpt>
      <trkpt lat="48.59079" lon="-3.29662">
        <ele>161.80113</ele>
        <time>2026-01-29T08:35:48Z</time>
      </trkpt>
      <trkpt lat="48.59078" lon="-3.29683">
        <ele>162.28418</ele>
        <time>2026-01-29T08:35:51Z</time>
      </trkpt>
      <trkpt lat="48.5908" lon="-3.29704">
        <ele>162.81184</ele>
        <time>2026-01-29T08:35:54Z</time>
      </trkpt>
      <trkpt lat="48.59083" lon="-3.29726">
        <ele>163.3657</ele>
        <time>2026-01-29T08:35:57Z</time>
      </trkpt>
      <trkpt lat="48.59087" lon="-3.29748">
        <ele>163.93596</ele>
        <time>2026-01-29T08:36:00Z</time>
      </trkpt>
      <trkpt lat="48.59093" lon="-3.29768">
        <ele>164.4933</ele>
        <time>2026-01-29T08:36:03Z</time>
      </trkpt>
      <trkpt lat="48.591" lon="-3.29786">
        <ele>165.00987</ele>
        <time>2026-01-29T08:36:06Z</time>
      </trkpt>
      <trkpt lat="48.59108" lon="-3.29805">
        <ele>165.47693</ele>
        <time>2026-01-29T08:36:09Z</time>
      </trkpt>
      <trkpt lat="48.59115" lon="-3.29823">
        <ele>165.87558</ele>
        <time>2026-01-29T08:36:12Z</time>
      </trkpt>
      <trkpt lat="48.59127" lon="-3.29848">
        <ele>166.18848</ele>
        <time>2026-01-29T08:36:16Z</time>
      </trkpt>
      <trkpt lat="48.59135" lon="-3.29867">
        <ele>166.43796</ele>
        <time>2026-01-29T08:36:19Z</time>
      </trkpt>
      <trkpt lat="48.59142" lon="-3.29886">
        <ele>166.65837</ele>
        <time>2026-01-29T08:36:22Z</time>
      </trkpt>
      <trkpt lat="48.59149" lon="-3.29904">
        <ele>166.8447</ele>
        <time>2026-01-29T08:36:25Z</time>
      </trkpt>
      <trkpt lat="48.59157" lon="-3.29923">
        <ele>167.02042</ele>
        <time>2026-01-29T08:36:28Z</time>
      </trkpt>
      <trkpt lat="48.59166" lon="-3.29941">
        <ele>167.19583</ele>
        <time>2026-01-29T08:36:31Z</time>
      </trkpt>
      <trkpt lat="48.59176" lon="-3.29957">
        <ele>167.37498</ele>
        <time>2026-01-29T08:36:34Z</time>
      </trkpt>
      <trkpt lat="48.59185" lon="-3.29972">
        <ele>167.57976</ele>
        <time>2026-01-29T08:36:37Z</time>
      </trkpt>
      <trkpt lat="48.59195" lon="-3.2999">
        <ele>167.83801</ele>
        <time>2026-01-29T08:36:40Z</time>
      </trkpt>
      <trkpt lat="48.59207" lon="-3.30014">
        <ele>168.1353</ele>
        <time>2026-01-29T08:36:44Z</time>
      </trkpt>
      <trkpt lat="48.59214" lon="-3.30032">
        <ele>168.46716</ele>
        <time>2026-01-29T08:36:47Z</time>
      </trkpt>
      <trkpt lat="48.59222" lon="-3.3005">
        <ele>168.82237</ele>
        <time>2026-01-29T08:36:50Z</time>
      </trkpt>
      <trkpt lat="48.59234" lon="-3.30074">
        <ele>169.23436</ele>
        <time>2026-01-29T08:36:54Z</time>
      </trkpt>
      <trkpt lat="48.59243" lon="-3.30093">
        <ele>169.68346</ele>
        <time>2026-01-29T08:36:57Z</time>
      </trkpt>
      <trkpt lat="48.59253" lon="-3.30119">
        <ele>170.14941</ele>
        <time>2026-01-29T08:37:01Z</time>
      </trkpt>
      <trkpt lat="48.59263" lon="-3.30149">
        <ele>170.57083</ele>
        <time>2026-01-29T08:37:05Z</time>
      </trkpt>
      <trkpt lat="48.59272" lon="-3.30174">
        <ele>170.89287</ele>
        <time>2026-01-29T08:37:08Z</time>
      </trkpt>
      <trkpt lat="48.59282" lon="-3.30201">
        <ele>171.09383</ele>
        <time>2026-01-29T08:37:11Z</time>
      </trkpt>
      <trkpt lat="48.59291" lon="-3.30228">
        <ele>171.16232</ele>
        <time>2026-01-29T08:37:14Z</time>
      </trkpt>
      <trkpt lat="48.59297" lon="-3.30261">
        <ele>171.06677</ele>
        <time>2026-01-29T08:37:17Z</time>
      </trkpt>
      <trkpt lat="48.59298" lon="-3.30294">
        <ele>170.7691</ele>
        <time>2026-01-29T08:37:20Z</time>
      </trkpt>
      <trkpt lat="48.59298" lon="-3.30318">
        <ele>170.2798</ele>
        <time>2026-01-29T08:37:23Z</time>
      </trkpt>
      <trkpt lat="48.593" lon="-3.30341">
        <ele>169.60052</ele>
        <time>2026-01-29T08:37:27Z</time>
      </trkpt>
      <trkpt lat="48.59304" lon="-3.30362">
        <ele>168.78055</ele>
        <time>2026-01-29T08:37:31Z</time>
      </trkpt>
      <trkpt lat="48.59302" lon="-3.30383">
        <ele>167.87376</ele>
        <time>2026-01-29T08:37:34Z</time>
      </trkpt>
      <trkpt lat="48.59294" lon="-3.30412">
        <ele>166.92485</ele>
        <time>2026-01-29T08:37:38Z</time>
      </trkpt>
      <trkpt lat="48.59284" lon="-3.30443">
        <ele>165.97044</ele>
        <time>2026-01-29T08:37:42Z</time>
      </trkpt>
      <trkpt lat="48.59273" lon="-3.30473">
        <ele>165.09065</ele>
        <time>2026-01-29T08:37:46Z</time>
      </trkpt>
      <trkpt lat="48.59262" lon="-3.30503">
        <ele>164.3194</ele>
        <time>2026-01-29T08:37:50Z</time>
      </trkpt>
      <trkpt lat="48.59251" lon="-3.30532">
        <ele>163.71727</ele>
        <time>2026-01-29T08:37:54Z</time>
      </trkpt>
      <trkpt lat="48.59239" lon="-3.3056">
        <ele>163.31917</ele>
        <time>2026-01-29T08:37:58Z</time>
      </trkpt>
      <trkpt lat="48.59227" lon="-3.30586">
        <ele>163.10913</ele>
        <time>2026-01-29T08:38:02Z</time>
      </trkpt>
      <trkpt lat="48.59217" lon="-3.30602">
        <ele>163.07706</ele>
        <time>2026-01-29T08:38:05Z</time>
      </trkpt>
      <trkpt lat="48.59208" lon="-3.30619">
        <ele>163.20564</ele>
        <time>2026-01-29T08:38:08Z</time>
      </trkpt>
      <trkpt lat="48.59201" lon="-3.30638">
        <ele>163.44598</ele>
        <time>2026-01-29T08:38:11Z</time>
      </trkpt>
      <trkpt lat="48.59192" lon="-3.30656">
        <ele>163.74556</ele>
        <time>2026-01-29T08:38:14Z</time>
      </trkpt>
      <trkpt lat="48.59184" lon="-3.30675">
        <ele>164.0766</ele>
        <time>2026-01-29T08:38:17Z</time>
      </trkpt>
      <trkpt lat="48.59175" lon="-3.30692">
        <ele>164.39178</ele>
        <time>2026-01-29T08:38:20Z</time>
      </trkpt>
      <trkpt lat="48.59166" lon="-3.30708">
        <ele>164.67146</ele>
        <time>2026-01-29T08:38:23Z</time>
      </trkpt>
      <trkpt lat="48.59156" lon="-3.30725">
        <ele>164.91434</ele>
        <time>2026-01-29T08:38:26Z</time>
      </trkpt>
      <trkpt lat="48.59145" lon="-3.30745">
        <ele>165.11647</ele>
        <time>2026-01-29T08:38:30Z</time>
      </trkpt>
      <trkpt lat="48.59139" lon="-3.30764">
        <ele>165.28793</ele>
        <time>2026-01-29T08:38:33Z</time>
      </trkpt>
      <trkpt lat="48.59134" lon="-3.30798">
        <ele>165.41109</ele>
        <time>2026-01-29T08:38:37Z</time>
      </trkpt>
      <trkpt lat="48.59138" lon="-3.3083">
        <ele>165.46838</ele>
        <time>2026-01-29T08:38:40Z</time>
      </trkpt>
      <trkpt lat="48.59146" lon="-3.30861">
        <ele>165.44305</ele>
        <time>2026-01-29T08:38:43Z</time>
      </trkpt>
      <trkpt lat="48.59149" lon="-3.30893">
        <ele>165.34964</ele>
        <time>2026-01-29T08:38:46Z</time>
      </trkpt>
      <trkpt lat="48.59148" lon="-3.30925">
        <ele>165.16493</ele>
        <time>2026-01-29T08:38:49Z</time>
      </trkpt>
      <trkpt lat="48.59142" lon="-3.30958">
        <ele>164.89432</ele>
        <time>2026-01-29T08:38:52Z</time>
      </trkpt>
      <trkpt lat="48.59136" lon="-3.30992">
        <ele>164.48907</ele>
        <time>2026-01-29T08:38:55Z</time>
      </trkpt>
      <trkpt lat="48.59135" lon="-3.31026">
        <ele>163.98743</ele>
        <time>2026-01-29T08:38:58Z</time>
      </trkpt>
      <trkpt lat="48.59137" lon="-3.3106">
        <ele>163.46925</ele>
        <time>2026-01-29T08:39:01Z</time>
      </trkpt>
      <trkpt lat="48.59137" lon="-3.31088">
        <ele>162.98572</ele>
        <time>2026-01-29T08:39:04Z</time>
      </trkpt>
      <trkpt lat="48.59131" lon="-3.31122">
        <ele>162.56087</ele>
        <time>2026-01-29T08:39:08Z</time>
      </trkpt>
      <trkpt lat="48.59127" lon="-3.31145">
        <ele>162.21278</ele>
        <time>2026-01-29T08:39:11Z</time>
      </trkpt>
      <trkpt lat="48.59126" lon="-3.31177">
        <ele>161.94077</ele>
        <time>2026-01-29T08:39:15Z</time>
      </trkpt>
      <trkpt lat="48.59134" lon="-3.31211">
        <ele>161.7793</ele>
        <time>2026-01-29T08:39:19Z</time>
      </trkpt>
      <trkpt lat="48.59144" lon="-3.31236">
        <ele>161.74661</ele>
        <time>2026-01-29T08:39:22Z</time>
      </trkpt>
      <trkpt lat="48.59154" lon="-3.31261">
        <ele>161.77414</ele>
        <time>2026-01-29T08:39:25Z</time>
      </trkpt>
      <trkpt lat="48.59163" lon="-3.31287">
        <ele>161.81105</ele>
        <time>2026-01-29T08:39:28Z</time>
      </trkpt>
      <trkpt lat="48.59169" lon="-3.31316">
        <ele>161.80374</ele>
        <time>2026-01-29T08:39:31Z</time>
      </trkpt>
      <trkpt lat="48.59171" lon="-3.31343">
        <ele>161.74344</ele>
        <time>2026-01-29T08:39:34Z</time>
      </trkpt>
      <trkpt lat="48.59172" lon="-3.31371">
        <ele>161.62454</ele>
        <time>2026-01-29T08:39:37Z</time>
      </trkpt>
      <trkpt lat="48.59172" lon="-3.314">
        <ele>161.4776</ele>
        <time>2026-01-29T08:39:40Z</time>
      </trkpt>
      <trkpt lat="48.5917" lon="-3.3143">
        <ele>161.28624</ele>
        <time>2026-01-29T08:39:43Z</time>
      </trkpt>
      <trkpt lat="48.59167" lon="-3.31459">
        <ele>161.0795</ele>
        <time>2026-01-29T08:39:46Z</time>
      </trkpt>
      <trkpt lat="48.59164" lon="-3.31488">
        <ele>160.87486</ele>
        <time>2026-01-29T08:39:49Z</time>
      </trkpt>
      <trkpt lat="48.5916" lon="-3.31517">
        <ele>160.69852</ele>
        <time>2026-01-29T08:39:52Z</time>
      </trkpt>
      <trkpt lat="48.59156" lon="-3.31546">
        <ele>160.56085</ele>
        <time>2026-01-29T08:39:55Z</time>
      </trkpt>
      <trkpt lat="48.59152" lon="-3.31573">
        <ele>160.45775</ele>
        <time>2026-01-29T08:39:58Z</time>
      </trkpt>
      <trkpt lat="48.59142" lon="-3.31606">
        <ele>160.36034</ele>
        <time>2026-01-29T08:40:02Z</time>
      </trkpt>
      <trkpt lat="48.59133" lon="-3.31629">
        <ele>160.24316</ele>
        <time>2026-01-29T08:40:05Z</time>
      </trkpt>
      <trkpt lat="48.59122" lon="-3.31654">
        <ele>160.07831</ele>
        <time>2026-01-29T08:40:08Z</time>
      </trkpt>
      <trkpt lat="48.5911" lon="-3.31681">
        <ele>159.85767</ele>
        <time>2026-01-29T08:40:11Z</time>
      </trkpt>
      <trkpt lat="48.59097" lon="-3.31707">
        <ele>159.58067</ele>
        <time>2026-01-29T08:40:14Z</time>
      </trkpt>
      <trkpt lat="48.59083" lon="-3.31731">
        <ele>159.22153</ele>
        <time>2026-01-29T08:40:17Z</time>
      </trkpt>
      <trkpt lat="48.59067" lon="-3.31753">
        <ele>158.77199</ele>
        <time>2026-01-29T08:40:20Z</time>
      </trkpt>
      <trkpt lat="48.59055" lon="-3.31783">
        <ele>158.22571</ele>
        <time>2026-01-29T08:40:23Z</time>
      </trkpt>
      <trkpt lat="48.5905" lon="-3.31816">
        <ele>157.60074</ele>
        <time>2026-01-29T08:40:26Z</time>
      </trkpt>
      <trkpt lat="48.59054" lon="-3.31849">
        <ele>156.9114</ele>
        <time>2026-01-29T08:40:29Z</time>
      </trkpt>
      <trkpt lat="48.59057" lon="-3.31882">
        <ele>156.17897</ele>
        <time>2026-01-29T08:40:32Z</time>
      </trkpt>
      <trkpt lat="48.5906" lon="-3.31916">
        <ele>155.40244</ele>
        <time>2026-01-29T08:40:35Z</time>
      </trkpt>
      <trkpt lat="48.59061" lon="-3.31946">
        <ele>154.63367</ele>
        <time>2026-01-29T08:40:38Z</time>
      </trkpt>
      <trkpt lat="48.59063" lon="-3.31975">
        <ele>153.92026</ele>
        <time>2026-01-29T08:40:41Z</time>
      </trkpt>
      <trkpt lat="48.59065" lon="-3.32009">
        <ele>153.3151</ele>
        <time>2026-01-29T08:40:45Z</time>
      </trkpt>
      <trkpt lat="48.5907" lon="-3.32042">
        <ele>152.85324</ele>
        <time>2026-01-29T08:40:49Z</time>
      </trkpt>
      <trkpt lat="48.59073" lon="-3.32064">
        <ele>152.53899</ele>
        <time>2026-01-29T08:40:52Z</time>
      </trkpt>
      <trkpt lat="48.59079" lon="-3.32094">
        <ele>152.36511</ele>
        <time>2026-01-29T08:40:56Z</time>
      </trkpt>
      <trkpt lat="48.59091" lon="-3.32121">
        <ele>152.35625</ele>
        <time>2026-01-29T08:41:00Z</time>
      </trkpt>
      <trkpt lat="48.5911" lon="-3.32137">
        <ele>152.51132</ele>
        <time>2026-01-29T08:41:04Z</time>
      </trkpt>
      <trkpt lat="48.5913" lon="-3.32149">
        <ele>152.76471</ele>
        <time>2026-01-29T08:41:08Z</time>
      </trkpt>
      <trkpt lat="48.59151" lon="-3.32161">
        <ele>153.08585</ele>
        <time>2026-01-29T08:41:12Z</time>
      </trkpt>
      <trkpt lat="48.59173" lon="-3.3217">
        <ele>153.42401</ele>
        <time>2026-01-29T08:41:16Z</time>
      </trkpt>
      <trkpt lat="48.59195" lon="-3.32175">
        <ele>153.76408</ele>
        <time>2026-01-29T08:41:20Z</time>
      </trkpt>
      <trkpt lat="48.59217" lon="-3.3218">
        <ele>154.09355</ele>
        <time>2026-01-29T08:41:24Z</time>
      </trkpt>
      <trkpt lat="48.59238" lon="-3.32184">
        <ele>154.42397</ele>
        <time>2026-01-29T08:41:28Z</time>
      </trkpt>
      <trkpt lat="48.59252" lon="-3.32188">
        <ele>154.70053</ele>
        <time>2026-01-29T08:41:31Z</time>
      </trkpt>
      <trkpt lat="48.5927" lon="-3.32194">
        <ele>154.9245</ele>
        <time>2026-01-29T08:41:35Z</time>
      </trkpt>
      <trkpt lat="48.59285" lon="-3.322">
        <ele>155.10321</ele>
        <time>2026-01-29T08:41:39Z</time>
      </trkpt>
      <trkpt lat="48.59301" lon="-3.32207">
        <ele>155.24057</ele>
        <time>2026-01-29T08:41:44Z</time>
      </trkpt>
      <trkpt lat="48.59314" lon="-3.32218">
        <ele>155.3303</ele>
        <time>2026-01-29T08:41:50Z</time>
      </trkpt>
      <trkpt lat="48.59315" lon="-3.3224">
        <ele>155.38472</ele>
        <time>2026-01-29T08:41:54Z</time>
      </trkpt>
      <trkpt lat="48.59316" lon="-3.32261">
        <ele>155.38185</ele>
        <time>2026-01-29T08:41:58Z</time>
      </trkpt>
      <trkpt lat="48.59319" lon="-3.32281">
        <ele>155.31981</ele>
        <time>2026-01-29T08:42:02Z</time>
      </trkpt>
      <trkpt lat="48.59328" lon="-3.32302">
        <ele>155.2377</ele>
        <time>2026-01-29T08:42:06Z</time>
      </trkpt>
      <trkpt lat="48.59337" lon="-3.32324">
        <ele>155.13113</ele>
        <time>2026-01-29T08:42:10Z</time>
      </trkpt>
      <trkpt lat="48.59343" lon="-3.32349">
        <ele>155.0205</ele>
        <time>2026-01-29T08:42:14Z</time>
      </trkpt>
      <trkpt lat="48.59347" lon="-3.32379">
        <ele>154.89442</ele>
        <time>2026-01-29T08:42:18Z</time>
      </trkpt>
      <trkpt lat="48.59349" lon="-3.32411">
        <ele>154.7656</ele>
        <time>2026-01-29T08:42:22Z</time>
      </trkpt>
      <trkpt lat="48.59351" lon="-3.32442">
        <ele>154.62411</ele>
        <time>2026-01-29T08:42:26Z</time>
      </trkpt>
      <trkpt lat="48.59352" lon="-3.32475">
        <ele>154.50156</ele>
        <time>2026-01-29T08:42:30Z</time>
      </trkpt>
      <trkpt lat="48.59353" lon="-3.32507">
        <ele>154.40512</ele>
        <time>2026-01-29T08:42:34Z</time>
      </trkpt>
      <trkpt lat="48.59354" lon="-3.3253">
        <ele>154.34015</ele>
        <time>2026-01-29T08:42:37Z</time>
      </trkpt>
      <trkpt lat="48.59354" lon="-3.32551">
        <ele>154.30548</ele>
        <time>2026-01-29T08:42:40Z</time>
      </trkpt>
      <trkpt lat="48.59356" lon="-3.32574">
        <ele>154.30922</ele>
        <time>2026-01-29T08:42:43Z</time>
      </trkpt>
      <trkpt lat="48.59356" lon="-3.32596">
        <ele>154.35745</ele>
        <time>2026-01-29T08:42:46Z</time>
      </trkpt>
      <trkpt lat="48.59358" lon="-3.32628">
        <ele>154.46265</ele>
        <time>2026-01-29T08:42:50Z</time>
      </trkpt>
      <trkpt lat="48.5936" lon="-3.32661">
        <ele>154.61714</ele>
        <time>2026-01-29T08:42:54Z</time>
      </trkpt>
      <trkpt lat="48.59363" lon="-3.32695">
        <ele>154.77182</ele>
        <time>2026-01-29T08:42:58Z</time>
      </trkpt>
      <trkpt lat="48.59365" lon="-3.32727">
        <ele>154.90791</ele>
        <time>2026-01-29T08:43:02Z</time>
      </trkpt>
      <trkpt lat="48.59366" lon="-3.32761">
        <ele>155.00932</ele>
        <time>2026-01-29T08:43:06Z</time>
      </trkpt>
      <trkpt lat="48.59367" lon="-3.32794">
        <ele>155.09018</ele>
        <time>2026-01-29T08:43:10Z</time>
      </trkpt>
      <trkpt lat="48.59368" lon="-3.32828">
        <ele>155.16373</ele>
        <time>2026-01-29T08:43:14Z</time>
      </trkpt>
      <trkpt lat="48.5937" lon="-3.32861">
        <ele>155.20804</ele>
        <time>2026-01-29T08:43:18Z</time>
      </trkpt>
      <trkpt lat="48.59372" lon="-3.32895">
        <ele>155.2154</ele>
        <time>2026-01-29T08:43:22Z</time>
      </trkpt>
      <trkpt lat="48.59373" lon="-3.32926">
        <ele>155.20636</ele>
        <time>2026-01-29T08:43:26Z</time>
      </trkpt>
      <trkpt lat="48.59374" lon="-3.32947">
        <ele>155.21825</ele>
        <time>2026-01-29T08:43:29Z</time>
      </trkpt>
      <trkpt lat="48.59376" lon="-3.32967">
        <ele>155.2557</ele>
        <time>2026-01-29T08:43:32Z</time>
      </trkpt>
      <trkpt lat="48.59388" lon="-3.32982">
        <ele>155.34547</ele>
        <time>2026-01-29T08:43:36Z</time>
      </trkpt>
      <trkpt lat="48.59403" lon="-3.3298">
        <ele>155.45374</ele>
        <time>2026-01-29T08:43:41Z</time>
      </trkpt>
      <trkpt lat="48.59414" lon="-3.32995">
        <ele>155.55363</ele>
        <time>2026-01-29T08:43:45Z</time>
      </trkpt>
      <trkpt lat="48.59417" lon="-3.33015">
        <ele>155.63582</ele>
        <time>2026-01-29T08:43:48Z</time>
      </trkpt>
      <trkpt lat="48.59421" lon="-3.33037">
        <ele>155.70569</ele>
        <time>2026-01-29T08:43:51Z</time>
      </trkpt>
      <trkpt lat="48.59429" lon="-3.33068">
        <ele>155.72736</ele>
        <time>2026-01-29T08:43:55Z</time>
      </trkpt>
      <trkpt lat="48.5944" lon="-3.33091">
        <ele>155.68073</ele>
        <time>2026-01-29T08:43:58Z</time>
      </trkpt>
      <trkpt lat="48.59454" lon="-3.33115">
        <ele>155.51584</ele>
        <time>2026-01-29T08:44:01Z</time>
      </trkpt>
      <trkpt lat="48.59469" lon="-3.33139">
        <ele>155.20158</ele>
        <time>2026-01-29T08:44:04Z</time>
      </trkpt>
      <trkpt lat="48.59482" lon="-3.33164">
        <ele>154.78024</ele>
        <time>2026-01-29T08:44:07Z</time>
      </trkpt>
      <trkpt lat="48.59496" lon="-3.33187">
        <ele>154.29225</ele>
        <time>2026-01-29T08:44:10Z</time>
      </trkpt>
      <trkpt lat="48.59509" lon="-3.33211">
        <ele>153.78195</ele>
        <time>2026-01-29T08:44:13Z</time>
      </trkpt>
      <trkpt lat="48.59523" lon="-3.33234">
        <ele>153.24269</ele>
        <time>2026-01-29T08:44:16Z</time>
      </trkpt>
      <trkpt lat="48.59535" lon="-3.33257">
        <ele>152.73175</ele>
        <time>2026-01-29T08:44:19Z</time>
      </trkpt>
      <trkpt lat="48.59547" lon="-3.33279">
        <ele>152.27777</ele>
        <time>2026-01-29T08:44:22Z</time>
      </trkpt>
      <trkpt lat="48.59559" lon="-3.33301">
        <ele>151.9599</ele>
        <time>2026-01-29T08:44:25Z</time>
      </trkpt>
      <trkpt lat="48.5957" lon="-3.33323">
        <ele>151.7847</ele>
        <time>2026-01-29T08:44:28Z</time>
      </trkpt>
      <trkpt lat="48.59583" lon="-3.33343">
        <ele>151.74461</ele>
        <time>2026-01-29T08:44:31Z</time>
      </trkpt>
      <trkpt lat="48.59597" lon="-3.33364">
        <ele>151.77562</ele>
        <time>2026-01-29T08:44:34Z</time>
      </trkpt>
      <trkpt lat="48.59608" lon="-3.33385">
        <ele>151.87813</ele>
        <time>2026-01-29T08:44:37Z</time>
      </trkpt>
      <trkpt lat="48.5962" lon="-3.33408">
        <ele>152.03703</ele>
        <time>2026-01-29T08:44:40Z</time>
      </trkpt>
      <trkpt lat="48.59632" lon="-3.33439">
        <ele>152.24239</ele>
        <time>2026-01-29T08:44:44Z</time>
      </trkpt>
      <trkpt lat="48.59643" lon="-3.33471">
        <ele>152.45956</ele>
        <time>2026-01-29T08:44:48Z</time>
      </trkpt>
      <trkpt lat="48.5965" lon="-3.33498">
        <ele>152.63184</ele>
        <time>2026-01-29T08:44:51Z</time>
      </trkpt>
      <trkpt lat="48.59659" lon="-3.33526">
        <ele>152.72609</ele>
        <time>2026-01-29T08:44:54Z</time>
      </trkpt>
      <trkpt lat="48.59672" lon="-3.33553">
        <ele>152.74352</ele>
        <time>2026-01-29T08:44:57Z</time>
      </trkpt>
      <trkpt lat="48.59685" lon="-3.33577">
        <ele>152.69609</ele>
        <time>2026-01-29T08:45:00Z</time>
      </trkpt>
      <trkpt lat="48.59699" lon="-3.33601">
        <ele>152.58684</ele>
        <time>2026-01-29T08:45:03Z</time>
      </trkpt>
      <trkpt lat="48.59712" lon="-3.33622">
        <ele>152.434</ele>
        <time>2026-01-29T08:45:06Z</time>
      </trkpt>
      <trkpt lat="48.59724" lon="-3.33642">
        <ele>152.20825</ele>
        <time>2026-01-29T08:45:09Z</time>
      </trkpt>
      <trkpt lat="48.59737" lon="-3.33663">
        <ele>151.9419</ele>
        <time>2026-01-29T08:45:12Z</time>
      </trkpt>
      <trkpt lat="48.5975" lon="-3.33682">
        <ele>151.6717</ele>
        <time>2026-01-29T08:45:15Z</time>
      </trkpt>
      <trkpt lat="48.59763" lon="-3.33704">
        <ele>151.42836</ele>
        <time>2026-01-29T08:45:18Z</time>
      </trkpt>
      <trkpt lat="48.59776" lon="-3.33726">
        <ele>151.19872</ele>
        <time>2026-01-29T08:45:21Z</time>
      </trkpt>
      <trkpt lat="48.59789" lon="-3.33747">
        <ele>150.96608</ele>
        <time>2026-01-29T08:45:24Z</time>
      </trkpt>
      <trkpt lat="48.59802" lon="-3.33767">
        <ele>150.69154</ele>
        <time>2026-01-29T08:45:27Z</time>
      </trkpt>
      <trkpt lat="48.59815" lon="-3.33787">
        <ele>150.42252</ele>
        <time>2026-01-29T08:45:30Z</time>
      </trkpt>
      <trkpt lat="48.59829" lon="-3.33808">
        <ele>150.20056</ele>
        <time>2026-01-29T08:45:33Z</time>
      </trkpt>
      <trkpt lat="48.59841" lon="-3.33827">
        <ele>150.02684</ele>
        <time>2026-01-29T08:45:36Z</time>
      </trkpt>
      <trkpt lat="48.59855" lon="-3.33847">
        <ele>149.87233</ele>
        <time>2026-01-29T08:45:39Z</time>
      </trkpt>
      <trkpt lat="48.59872" lon="-3.33873">
        <ele>149.76215</ele>
        <time>2026-01-29T08:45:43Z</time>
      </trkpt>
      <trkpt lat="48.59888" lon="-3.33899">
        <ele>149.72934</ele>
        <time>2026-01-29T08:45:47Z</time>
      </trkpt>
      <trkpt lat="48.59904" lon="-3.33926">
        <ele>149.78859</ele>
        <time>2026-01-29T08:45:51Z</time>
      </trkpt>
      <trkpt lat="48.59914" lon="-3.3395">
        <ele>149.9392</ele>
        <time>2026-01-29T08:45:54Z</time>
      </trkpt>
      <trkpt lat="48.59919" lon="-3.33983">
        <ele>150.08797</ele>
        <time>2026-01-29T08:45:58Z</time>
      </trkpt>
      <trkpt lat="48.5992" lon="-3.34012">
        <ele>150.16658</ele>
        <time>2026-01-29T08:46:01Z</time>
      </trkpt>
      <trkpt lat="48.59922" lon="-3.34042">
        <ele>150.17497</ele>
        <time>2026-01-29T08:46:04Z</time>
      </trkpt>
      <trkpt lat="48.59929" lon="-3.34069">
        <ele>150.12462</ele>
        <time>2026-01-29T08:46:07Z</time>
      </trkpt>
      <trkpt lat="48.59938" lon="-3.34095">
        <ele>149.97676</ele>
        <time>2026-01-29T08:46:10Z</time>
      </trkpt>
      <trkpt lat="48.59948" lon="-3.34121">
        <ele>149.70866</ele>
        <time>2026-01-29T08:46:13Z</time>
      </trkpt>
      <trkpt lat="48.59957" lon="-3.34147">
        <ele>149.32066</ele>
        <time>2026-01-29T08:46:16Z</time>
      </trkpt>
      <trkpt lat="48.59965" lon="-3.34173">
        <ele>148.84119</ele>
        <time>2026-01-29T08:46:19Z</time>
      </trkpt>
      <trkpt lat="48.59973" lon="-3.34199">
        <ele>148.36108</ele>
        <time>2026-01-29T08:46:22Z</time>
      </trkpt>
      <trkpt lat="48.59981" lon="-3.34225">
        <ele>147.92537</ele>
        <time>2026-01-29T08:46:25Z</time>
      </trkpt>
      <trkpt lat="48.59989" lon="-3.34251">
        <ele>147.54349</ele>
        <time>2026-01-29T08:46:28Z</time>
      </trkpt>
      <trkpt lat="48.59998" lon="-3.34277">
        <ele>147.21631</ele>
        <time>2026-01-29T08:46:31Z</time>
      </trkpt>
      <trkpt lat="48.60007" lon="-3.34303">
        <ele>146.96811</ele>
        <time>2026-01-29T08:46:34Z</time>
      </trkpt>
      <trkpt lat="48.60016" lon="-3.3433">
        <ele>146.78401</ele>
        <time>2026-01-29T08:46:37Z</time>
      </trkpt>
      <trkpt lat="48.60024" lon="-3.34355">
        <ele>146.69757</ele>
        <time>2026-01-29T08:46:40Z</time>
      </trkpt>
      <trkpt lat="48.60036" lon="-3.34387">
        <ele>146.6824</ele>
        <time>2026-01-29T08:46:44Z</time>
      </trkpt>
      <trkpt lat="48.60043" lon="-3.34412">
        <ele>146.69757</ele>
        <time>2026-01-29T08:46:47Z</time>
      </trkpt>
      <trkpt lat="48.60053" lon="-3.34438">
        <ele>146.71022</ele>
        <time>2026-01-29T08:46:50Z</time>
      </trkpt>
      <trkpt lat="48.60065" lon="-3.34465">
        <ele>146.71124</ele>
        <time>2026-01-29T08:46:53Z</time>
      </trkpt>
      <trkpt lat="48.60079" lon="-3.34492">
        <ele>146.71141</ele>
        <time>2026-01-29T08:46:56Z</time>
      </trkpt>
      <trkpt lat="48.60092" lon="-3.3452">
        <ele>146.71405</ele>
        <time>2026-01-29T08:46:59Z</time>
      </trkpt>
      <trkpt lat="48.60105" lon="-3.34546">
        <ele>146.7063</ele>
        <time>2026-01-29T08:47:02Z</time>
      </trkpt>
      <trkpt lat="48.60117" lon="-3.34571">
        <ele>146.66197</ele>
        <time>2026-01-29T08:47:05Z</time>
      </trkpt>
      <trkpt lat="48.60128" lon="-3.34594">
        <ele>146.59785</ele>
        <time>2026-01-29T08:47:08Z</time>
      </trkpt>
      <trkpt lat="48.6014" lon="-3.34616">
        <ele>146.50609</ele>
        <time>2026-01-29T08:47:11Z</time>
      </trkpt>
      <trkpt lat="48.60151" lon="-3.34638">
        <ele>146.39346</ele>
        <time>2026-01-29T08:47:14Z</time>
      </trkpt>
      <trkpt lat="48.60167" lon="-3.34663">
        <ele>146.26218</ele>
        <time>2026-01-29T08:47:18Z</time>
      </trkpt>
      <trkpt lat="48.60184" lon="-3.34688">
        <ele>146.10165</ele>
        <time>2026-01-29T08:47:22Z</time>
      </trkpt>
      <trkpt lat="48.60197" lon="-3.34711">
        <ele>145.93509</ele>
        <time>2026-01-29T08:47:26Z</time>
      </trkpt>
      <trkpt lat="48.60212" lon="-3.34737">
        <ele>145.79547</ele>
        <time>2026-01-29T08:47:30Z</time>
      </trkpt>
      <trkpt lat="48.60224" lon="-3.34758">
        <ele>145.67993</ele>
        <time>2026-01-29T08:47:33Z</time>
      </trkpt>
      <trkpt lat="48.60239" lon="-3.34778">
        <ele>145.59088</ele>
        <time>2026-01-29T08:47:36Z</time>
      </trkpt>
      <trkpt lat="48.60256" lon="-3.34794">
        <ele>145.54214</ele>
        <time>2026-01-29T08:47:39Z</time>
      </trkpt>
      <trkpt lat="48.60274" lon="-3.34803">
        <ele>145.5408</ele>
        <time>2026-01-29T08:47:42Z</time>
      </trkpt>
      <trkpt lat="48.60296" lon="-3.34812">
        <ele>145.58186</ele>
        <time>2026-01-29T08:47:46Z</time>
      </trkpt>
      <trkpt lat="48.60314" lon="-3.34822">
        <ele>145.6266</ele>
        <time>2026-01-29T08:47:49Z</time>
      </trkpt>
      <trkpt lat="48.6033" lon="-3.34838">
        <ele>145.6333</ele>
        <time>2026-01-29T08:47:52Z</time>
      </trkpt>
      <trkpt lat="48.60347" lon="-3.34854">
        <ele>145.60371</ele>
        <time>2026-01-29T08:47:55Z</time>
      </trkpt>
      <trkpt lat="48.60364" lon="-3.3487">
        <ele>145.53633</ele>
        <time>2026-01-29T08:47:58Z</time>
      </trkpt>
      <trkpt lat="48.60378" lon="-3.34887">
        <ele>145.44708</ele>
        <time>2026-01-29T08:48:01Z</time>
      </trkpt>
      <trkpt lat="48.60399" lon="-3.34906">
        <ele>145.35628</ele>
        <time>2026-01-29T08:48:05Z</time>
      </trkpt>
      <trkpt lat="48.60415" lon="-3.34924">
        <ele>145.24002</ele>
        <time>2026-01-29T08:48:08Z</time>
      </trkpt>
      <trkpt lat="48.6043" lon="-3.34943">
        <ele>145.11975</ele>
        <time>2026-01-29T08:48:11Z</time>
      </trkpt>
      <trkpt lat="48.60444" lon="-3.34962">
        <ele>145.05367</ele>
        <time>2026-01-29T08:48:14Z</time>
      </trkpt>
      <trkpt lat="48.60459" lon="-3.34979">
        <ele>145.03351</ele>
        <time>2026-01-29T08:48:17Z</time>
      </trkpt>
      <trkpt lat="48.60476" lon="-3.3499">
        <ele>145.03787</ele>
        <time>2026-01-29T08:48:20Z</time>
      </trkpt>
      <trkpt lat="48.60494" lon="-3.34998">
        <ele>145.03995</ele>
        <time>2026-01-29T08:48:23Z</time>
      </trkpt>
      <trkpt lat="48.60511" lon="-3.35005">
        <ele>144.99303</ele>
        <time>2026-01-29T08:48:26Z</time>
      </trkpt>
      <trkpt lat="48.60529" lon="-3.35017">
        <ele>144.91727</ele>
        <time>2026-01-29T08:48:29Z</time>
      </trkpt>
      <trkpt lat="48.60545" lon="-3.35033">
        <ele>144.8306</ele>
        <time>2026-01-29T08:48:32Z</time>
      </trkpt>
      <trkpt lat="48.6056" lon="-3.3505">
        <ele>144.69609</ele>
        <time>2026-01-29T08:48:35Z</time>
      </trkpt>
      <trkpt lat="48.60578" lon="-3.3507">
        <ele>144.51578</ele>
        <time>2026-01-29T08:48:39Z</time>
      </trkpt>
      <trkpt lat="48.60597" lon="-3.35091">
        <ele>144.34383</ele>
        <time>2026-01-29T08:48:43Z</time>
      </trkpt>
      <trkpt lat="48.60614" lon="-3.35114">
        <ele>144.2005</ele>
        <time>2026-01-29T08:48:47Z</time>
      </trkpt>
      <trkpt lat="48.60635" lon="-3.35129">
        <ele>144.12384</ele>
        <time>2026-01-29T08:48:51Z</time>
      </trkpt>
      <trkpt lat="48.60659" lon="-3.35133">
        <ele>144.13097</ele>
        <time>2026-01-29T08:48:55Z</time>
      </trkpt>
      <trkpt lat="48.60683" lon="-3.35131">
        <ele>144.2082</ele>
        <time>2026-01-29T08:48:59Z</time>
      </trkpt>
      <trkpt lat="48.60701" lon="-3.35131">
        <ele>144.34784</ele>
        <time>2026-01-29T08:49:02Z</time>
      </trkpt>
      <trkpt lat="48.6072" lon="-3.35129">
        <ele>144.56844</ele>
        <time>2026-01-29T08:49:05Z</time>
      </trkpt>
      <trkpt lat="48.60739" lon="-3.3513">
        <ele>144.84998</ele>
        <time>2026-01-29T08:49:08Z</time>
      </trkpt>
      <trkpt lat="48.60759" lon="-3.3513">
        <ele>145.15945</ele>
        <time>2026-01-29T08:49:11Z</time>
      </trkpt>
      <trkpt lat="48.60777" lon="-3.3513">
        <ele>145.48543</ele>
        <time>2026-01-29T08:49:14Z</time>
      </trkpt>
      <trkpt lat="48.60796" lon="-3.35131">
        <ele>145.80032</ele>
        <time>2026-01-29T08:49:17Z</time>
      </trkpt>
      <trkpt lat="48.6082" lon="-3.3513">
        <ele>146.08957</ele>
        <time>2026-01-29T08:49:21Z</time>
      </trkpt>
      <trkpt lat="48.6084" lon="-3.35128">
        <ele>146.33504</ele>
        <time>2026-01-29T08:49:24Z</time>
      </trkpt>
      <trkpt lat="48.6086" lon="-3.35128">
        <ele>146.53174</ele>
        <time>2026-01-29T08:49:27Z</time>
      </trkpt>
      <trkpt lat="48.6088" lon="-3.35129">
        <ele>146.6687</ele>
        <time>2026-01-29T08:49:30Z</time>
      </trkpt>
      <trkpt lat="48.609" lon="-3.35131">
        <ele>146.75034</ele>
        <time>2026-01-29T08:49:33Z</time>
      </trkpt>
      <trkpt lat="48.6092" lon="-3.35134">
        <ele>146.78586</ele>
        <time>2026-01-29T08:49:36Z</time>
      </trkpt>
      <trkpt lat="48.60939" lon="-3.35141">
        <ele>146.78609</ele>
        <time>2026-01-29T08:49:39Z</time>
      </trkpt>
      <trkpt lat="48.60959" lon="-3.35149">
        <ele>146.77293</ele>
        <time>2026-01-29T08:49:42Z</time>
      </trkpt>
      <trkpt lat="48.60982" lon="-3.35154">
        <ele>146.76433</ele>
        <time>2026-01-29T08:49:46Z</time>
      </trkpt>
      <trkpt lat="48.61001" lon="-3.3515">
        <ele>146.76237</ele>
        <time>2026-01-29T08:49:49Z</time>
      </trkpt>
      <trkpt lat="48.61018" lon="-3.35142">
        <ele>146.77695</ele>
        <time>2026-01-29T08:49:52Z</time>
      </trkpt>
      <trkpt lat="48.61035" lon="-3.35132">
        <ele>146.83083</ele>
        <time>2026-01-29T08:49:55Z</time>
      </trkpt>
      <trkpt lat="48.61052" lon="-3.35121">
        <ele>146.88507</ele>
        <time>2026-01-29T08:49:58Z</time>
      </trkpt>
      <trkpt lat="48.61072" lon="-3.35107">
        <ele>146.94537</ele>
        <time>2026-01-29T08:50:02Z</time>
      </trkpt>
      <trkpt lat="48.61091" lon="-3.35095">
        <ele>147.03903</ele>
        <time>2026-01-29T08:50:06Z</time>
      </trkpt>
      <trkpt lat="48.61104" lon="-3.35087">
        <ele>147.15077</ele>
        <time>2026-01-29T08:50:09Z</time>
      </trkpt>
      <trkpt lat="48.61121" lon="-3.35078">
        <ele>147.30345</ele>
        <time>2026-01-29T08:50:13Z</time>
      </trkpt>
      <trkpt lat="48.61134" lon="-3.35074">
        <ele>147.48006</ele>
        <time>2026-01-29T08:50:16Z</time>
      </trkpt>
      <trkpt lat="48.61151" lon="-3.35066">
        <ele>147.67053</ele>
        <time>2026-01-29T08:50:20Z</time>
      </trkpt>
      <trkpt lat="48.61163" lon="-3.35055">
        <ele>147.88223</ele>
        <time>2026-01-29T08:50:24Z</time>
      </trkpt>
      <trkpt lat="48.61176" lon="-3.35045">
        <ele>148.14175</ele>
        <time>2026-01-29T08:50:28Z</time>
      </trkpt>
      <trkpt lat="48.61193" lon="-3.35044">
        <ele>148.40216</ele>
        <time>2026-01-29T08:50:32Z</time>
      </trkpt>
      <trkpt lat="48.61213" lon="-3.35049">
        <ele>148.62648</ele>
        <time>2026-01-29T08:50:36Z</time>
      </trkpt>
      <trkpt lat="48.61237" lon="-3.35053">
        <ele>148.79346</ele>
        <time>2026-01-29T08:50:40Z</time>
      </trkpt>
      <trkpt lat="48.61257" lon="-3.35057">
        <ele>148.87302</ele>
        <time>2026-01-29T08:50:43Z</time>
      </trkpt>
      <trkpt lat="48.61278" lon="-3.35063">
        <ele>148.84099</ele>
        <time>2026-01-29T08:50:46Z</time>
      </trkpt>
      <trkpt lat="48.61298" lon="-3.35075">
        <ele>148.68848</ele>
        <time>2026-01-29T08:50:49Z</time>
      </trkpt>
      <trkpt lat="48.6132" lon="-3.35089">
        <ele>148.3673</ele>
        <time>2026-01-29T08:50:52Z</time>
      </trkpt>
      <trkpt lat="48.6134" lon="-3.35103">
        <ele>147.87227</ele>
        <time>2026-01-29T08:50:55Z</time>
      </trkpt>
      <trkpt lat="48.61362" lon="-3.35117">
        <ele>147.24677</ele>
        <time>2026-01-29T08:50:58Z</time>
      </trkpt>
      <trkpt lat="48.61382" lon="-3.3513">
        <ele>146.49661</ele>
        <time>2026-01-29T08:51:01Z</time>
      </trkpt>
      <trkpt lat="48.61401" lon="-3.35147">
        <ele>145.6841</ele>
        <time>2026-01-29T08:51:04Z</time>
      </trkpt>
      <trkpt lat="48.61417" lon="-3.35172">
        <ele>144.85165</ele>
        <time>2026-01-29T08:51:07Z</time>
      </trkpt>
      <trkpt lat="48.61428" lon="-3.352">
        <ele>144.02927</ele>
        <time>2026-01-29T08:51:10Z</time>
      </trkpt>
      <trkpt lat="48.61437" lon="-3.35231">
        <ele>143.24023</ele>
        <time>2026-01-29T08:51:13Z</time>
      </trkpt>
      <trkpt lat="48.61443" lon="-3.35264">
        <ele>142.51172</ele>
        <time>2026-01-29T08:51:16Z</time>
      </trkpt>
      <trkpt lat="48.6144" lon="-3.35297">
        <ele>141.8716</ele>
        <time>2026-01-29T08:51:19Z</time>
      </trkpt>
      <trkpt lat="48.61433" lon="-3.35327">
        <ele>141.30777</ele>
        <time>2026-01-29T08:51:22Z</time>
      </trkpt>
      <trkpt lat="48.61428" lon="-3.35355">
        <ele>140.80432</ele>
        <time>2026-01-29T08:51:25Z</time>
      </trkpt>
      <trkpt lat="48.61426" lon="-3.35383">
        <ele>140.34029</ele>
        <time>2026-01-29T08:51:28Z</time>
      </trkpt>
      <trkpt lat="48.61431" lon="-3.3541">
        <ele>139.88812</ele>
        <time>2026-01-29T08:51:31Z</time>
      </trkpt>
      <trkpt lat="48.61445" lon="-3.35434">
        <ele>139.45361</ele>
        <time>2026-01-29T08:51:34Z</time>
      </trkpt>
      <trkpt lat="48.61465" lon="-3.35449">
        <ele>139.03549</ele>
        <time>2026-01-29T08:51:37Z</time>
      </trkpt>
      <trkpt lat="48.61488" lon="-3.35461">
        <ele>138.61365</ele>
        <time>2026-01-29T08:51:40Z</time>
      </trkpt>
      <trkpt lat="48.6151" lon="-3.35472">
        <ele>138.176</ele>
        <time>2026-01-29T08:51:43Z</time>
      </trkpt>
      <trkpt lat="48.61533" lon="-3.35484">
        <ele>137.72852</ele>
        <time>2026-01-29T08:51:46Z</time>
      </trkpt>
      <trkpt lat="48.61555" lon="-3.35497">
        <ele>137.26564</ele>
        <time>2026-01-29T08:51:49Z</time>
      </trkpt>
      <trkpt lat="48.61577" lon="-3.3551">
        <ele>136.79434</ele>
        <time>2026-01-29T08:51:52Z</time>
      </trkpt>
      <trkpt lat="48.61599" lon="-3.35523">
        <ele>136.31807</ele>
        <time>2026-01-29T08:51:55Z</time>
      </trkpt>
      <trkpt lat="48.61623" lon="-3.35534">
        <ele>135.83755</ele>
        <time>2026-01-29T08:51:58Z</time>
      </trkpt>
      <trkpt lat="48.61647" lon="-3.35545">
        <ele>135.35732</ele>
        <time>2026-01-29T08:52:01Z</time>
      </trkpt>
      <trkpt lat="48.61671" lon="-3.35555">
        <ele>134.89957</ele>
        <time>2026-01-29T08:52:04Z</time>
      </trkpt>
      <trkpt lat="48.61695" lon="-3.35563">
        <ele>134.44902</ele>
        <time>2026-01-29T08:52:07Z</time>
      </trkpt>
      <trkpt lat="48.61719" lon="-3.35572">
        <ele>134.00739</ele>
        <time>2026-01-29T08:52:10Z</time>
      </trkpt>
      <trkpt lat="48.61745" lon="-3.35584">
        <ele>133.56677</ele>
        <time>2026-01-29T08:52:13Z</time>
      </trkpt>
      <trkpt lat="48.61769" lon="-3.35594">
        <ele>133.12483</ele>
        <time>2026-01-29T08:52:16Z</time>
      </trkpt>
      <trkpt lat="48.61794" lon="-3.35605">
        <ele>132.67384</ele>
        <time>2026-01-29T08:52:19Z</time>
      </trkpt>
      <trkpt lat="48.61819" lon="-3.35616">
        <ele>132.20322</ele>
        <time>2026-01-29T08:52:22Z</time>
      </trkpt>
      <trkpt lat="48.61842" lon="-3.35628">
        <ele>131.70663</ele>
        <time>2026-01-29T08:52:25Z</time>
      </trkpt>
      <trkpt lat="48.61866" lon="-3.35639">
        <ele>131.17984</ele>
        <time>2026-01-29T08:52:28Z</time>
      </trkpt>
      <trkpt lat="48.61887" lon="-3.3565">
        <ele>130.63484</ele>
        <time>2026-01-29T08:52:31Z</time>
      </trkpt>
      <trkpt lat="48.61911" lon="-3.35663">
        <ele>130.09352</ele>
        <time>2026-01-29T08:52:34Z</time>
      </trkpt>
      <trkpt lat="48.61936" lon="-3.35678">
        <ele>129.56902</ele>
        <time>2026-01-29T08:52:37Z</time>
      </trkpt>
      <trkpt lat="48.61952" lon="-3.35688">
        <ele>129.03967</ele>
        <time>2026-01-29T08:52:39Z</time>
      </trkpt>
      <trkpt lat="48.61977" lon="-3.35705">
        <ele>128.50227</ele>
        <time>2026-01-29T08:52:42Z</time>
      </trkpt>
      <trkpt lat="48.62002" lon="-3.35718">
        <ele>127.95139</ele>
        <time>2026-01-29T08:52:45Z</time>
      </trkpt>
      <trkpt lat="48.62028" lon="-3.35733">
        <ele>127.38927</ele>
        <time>2026-01-29T08:52:48Z</time>
      </trkpt>
      <trkpt lat="48.62044" lon="-3.35744">
        <ele>126.814606</ele>
        <time>2026-01-29T08:52:50Z</time>
      </trkpt>
      <trkpt lat="48.62061" lon="-3.35753">
        <ele>126.21884</ele>
        <time>2026-01-29T08:52:52Z</time>
      </trkpt>
      <trkpt lat="48.62078" lon="-3.35763">
        <ele>125.552635</ele>
        <time>2026-01-29T08:52:54Z</time>
      </trkpt>
      <trkpt lat="48.62103" lon="-3.35777">
        <ele>124.82536</ele>
        <time>2026-01-29T08:52:57Z</time>
      </trkpt>
      <trkpt lat="48.62128" lon="-3.35792">
        <ele>124.043495</ele>
        <time>2026-01-29T08:53:00Z</time>
      </trkpt>
      <trkpt lat="48.62153" lon="-3.35806">
        <ele>123.193436</ele>
        <time>2026-01-29T08:53:03Z</time>
      </trkpt>
      <trkpt lat="48.62171" lon="-3.35817">
        <ele>122.28274</ele>
        <time>2026-01-29T08:53:05Z</time>
      </trkpt>
      <trkpt lat="48.62189" lon="-3.35829">
        <ele>121.30048</ele>
        <time>2026-01-29T08:53:07Z</time>
      </trkpt>
      <trkpt lat="48.62209" lon="-3.35841">
        <ele>120.24811</ele>
        <time>2026-01-29T08:53:09Z</time>
      </trkpt>
      <trkpt lat="48.62228" lon="-3.35852">
        <ele>119.15453</ele>
        <time>2026-01-29T08:53:11Z</time>
      </trkpt>
      <trkpt lat="48.62247" lon="-3.35859">
        <ele>118.04697</ele>
        <time>2026-01-29T08:53:13Z</time>
      </trkpt>
      <trkpt lat="48.62266" lon="-3.35861">
        <ele>116.967026</ele>
        <time>2026-01-29T08:53:15Z</time>
      </trkpt>
      <trkpt lat="48.62284" lon="-3.35857">
        <ele>115.96307</ele>
        <time>2026-01-29T08:53:17Z</time>
      </trkpt>
      <trkpt lat="48.62302" lon="-3.35849">
        <ele>115.07323</ele>
        <time>2026-01-29T08:53:19Z</time>
      </trkpt>
      <trkpt lat="48.62323" lon="-3.35831">
        <ele>114.37718</ele>
        <time>2026-01-29T08:53:22Z</time>
      </trkpt>
      <trkpt lat="48.62338" lon="-3.35816">
        <ele>113.91539</ele>
        <time>2026-01-29T08:53:25Z</time>
      </trkpt>
      <trkpt lat="48.62358" lon="-3.35797">
        <ele>113.694084</ele>
        <time>2026-01-29T08:53:29Z</time>
      </trkpt>
      <trkpt lat="48.62378" lon="-3.35781">
        <ele>113.68894</ele>
        <time>2026-01-29T08:53:33Z</time>
      </trkpt>
      <trkpt lat="48.62401" lon="-3.35774">
        <ele>113.85432</ele>
        <time>2026-01-29T08:53:37Z</time>
      </trkpt>
      <trkpt lat="48.62425" lon="-3.35777">
        <ele>114.162056</ele>
        <time>2026-01-29T08:53:41Z</time>
      </trkpt>
      <trkpt lat="48.62447" lon="-3.35776">
        <ele>114.59241</ele>
        <time>2026-01-29T08:53:45Z</time>
      </trkpt>
      <trkpt lat="48.62465" lon="-3.3577">
        <ele>115.078026</ele>
        <time>2026-01-29T08:53:48Z</time>
      </trkpt>
      <trkpt lat="48.62482" lon="-3.3576">
        <ele>115.52786</ele>
        <time>2026-01-29T08:53:51Z</time>
      </trkpt>
      <trkpt lat="48.62496" lon="-3.35752">
        <ele>115.924995</ele>
        <time>2026-01-29T08:53:54Z</time>
      </trkpt>
      <trkpt lat="48.6251" lon="-3.35747">
        <ele>116.27983</ele>
        <time>2026-01-29T08:53:57Z</time>
      </trkpt>
      <trkpt lat="48.62525" lon="-3.35741">
        <ele>116.63559</ele>
        <time>2026-01-29T08:54:01Z</time>
      </trkpt>
      <trkpt lat="48.62541" lon="-3.35733">
        <ele>116.98871</ele>
        <time>2026-01-29T08:54:05Z</time>
      </trkpt>
      <trkpt lat="48.62556" lon="-3.35726">
        <ele>117.30631</ele>
        <time>2026-01-29T08:54:08Z</time>
      </trkpt>
      <trkpt lat="48.62578" lon="-3.3572">
        <ele>117.54528</ele>
        <time>2026-01-29T08:54:12Z</time>
      </trkpt>
      <trkpt lat="48.626" lon="-3.35715">
        <ele>117.7612</ele>
        <time>2026-01-29T08:54:16Z</time>
      </trkpt>
      <trkpt lat="48.62615" lon="-3.35713">
        <ele>117.96387</ele>
        <time>2026-01-29T08:54:19Z</time>
      </trkpt>
      <trkpt lat="48.62633" lon="-3.35712">
        <ele>118.166</ele>
        <time>2026-01-29T08:54:23Z</time>
      </trkpt>
      <trkpt lat="48.62647" lon="-3.35712">
        <ele>118.36852</ele>
        <time>2026-01-29T08:54:26Z</time>
      </trkpt>
      <trkpt lat="48.62665" lon="-3.35712">
        <ele>118.53316</ele>
        <time>2026-01-29T08:54:30Z</time>
      </trkpt>
      <trkpt lat="48.62681" lon="-3.3571">
        <ele>118.70988</ele>
        <time>2026-01-29T08:54:34Z</time>
      </trkpt>
      <trkpt lat="48.62698" lon="-3.35708">
        <ele>118.948784</ele>
        <time>2026-01-29T08:54:38Z</time>
      </trkpt>
      <trkpt lat="48.62712" lon="-3.35708">
        <ele>119.25956</ele>
        <time>2026-01-29T08:54:41Z</time>
      </trkpt>
      <trkpt lat="48.62729" lon="-3.35708">
        <ele>119.66138</ele>
        <time>2026-01-29T08:54:45Z</time>
      </trkpt>
      <trkpt lat="48.62752" lon="-3.35711">
        <ele>120.12086</ele>
        <time>2026-01-29T08:54:49Z</time>
      </trkpt>
      <trkpt lat="48.6277" lon="-3.35715">
        <ele>120.58378</ele>
        <time>2026-01-29T08:54:52Z</time>
      </trkpt>
      <trkpt lat="48.62788" lon="-3.35722">
        <ele>121.03967</ele>
        <time>2026-01-29T08:54:55Z</time>
      </trkpt>
      <trkpt lat="48.62806" lon="-3.35732">
        <ele>121.454346</ele>
        <time>2026-01-29T08:54:58Z</time>
      </trkpt>
      <trkpt lat="48.62825" lon="-3.35744">
        <ele>121.76594</ele>
        <time>2026-01-29T08:55:01Z</time>
      </trkpt>
      <trkpt lat="48.62844" lon="-3.35756">
        <ele>121.9147</ele>
        <time>2026-01-29T08:55:04Z</time>
      </trkpt>
      <trkpt lat="48.62864" lon="-3.35766">
        <ele>121.8571</ele>
        <time>2026-01-29T08:55:07Z</time>
      </trkpt>
      <trkpt lat="48.62885" lon="-3.35776">
        <ele>121.59358</ele>
        <time>2026-01-29T08:55:10Z</time>
      </trkpt>
      <trkpt lat="48.62907" lon="-3.35785">
        <ele>121.13732</ele>
        <time>2026-01-29T08:55:13Z</time>
      </trkpt>
      <trkpt lat="48.62929" lon="-3.35795">
        <ele>120.50404</ele>
        <time>2026-01-29T08:55:16Z</time>
      </trkpt>
      <trkpt lat="48.62953" lon="-3.35808">
        <ele>119.68483</ele>
        <time>2026-01-29T08:55:19Z</time>
      </trkpt>
      <trkpt lat="48.62979" lon="-3.35819">
        <ele>118.719536</ele>
        <time>2026-01-29T08:55:22Z</time>
      </trkpt>
      <trkpt lat="48.62996" lon="-3.35827">
        <ele>117.6671</ele>
        <time>2026-01-29T08:55:24Z</time>
      </trkpt>
      <trkpt lat="48.63014" lon="-3.35836">
        <ele>116.566376</ele>
        <time>2026-01-29T08:55:26Z</time>
      </trkpt>
      <trkpt lat="48.63033" lon="-3.35845">
        <ele>115.43006</ele>
        <time>2026-01-29T08:55:28Z</time>
      </trkpt>
      <trkpt lat="48.6305" lon="-3.35853">
        <ele>114.25468</ele>
        <time>2026-01-29T08:55:30Z</time>
      </trkpt>
      <trkpt lat="48.63067" lon="-3.35862">
        <ele>113.09352</ele>
        <time>2026-01-29T08:55:32Z</time>
      </trkpt>
      <trkpt lat="48.63084" lon="-3.35872">
        <ele>111.97071</ele>
        <time>2026-01-29T08:55:34Z</time>
      </trkpt>
      <trkpt lat="48.63101" lon="-3.35885">
        <ele>110.89054</ele>
        <time>2026-01-29T08:55:36Z</time>
      </trkpt>
      <trkpt lat="48.63118" lon="-3.35898">
        <ele>109.84535</ele>
        <time>2026-01-29T08:55:38Z</time>
      </trkpt>
      <trkpt lat="48.63134" lon="-3.35913">
        <ele>108.84517</ele>
        <time>2026-01-29T08:55:40Z</time>
      </trkpt>
      <trkpt lat="48.63151" lon="-3.35926">
        <ele>107.89605</ele>
        <time>2026-01-29T08:55:42Z</time>
      </trkpt>
      <trkpt lat="48.63168" lon="-3.35939">
        <ele>107.036415</ele>
        <time>2026-01-29T08:55:44Z</time>
      </trkpt>
      <trkpt lat="48.63184" lon="-3.35952">
        <ele>106.23854</ele>
        <time>2026-01-29T08:55:46Z</time>
      </trkpt>
      <trkpt lat="48.63201" lon="-3.35964">
        <ele>105.46455</ele>
        <time>2026-01-29T08:55:48Z</time>
      </trkpt>
      <trkpt lat="48.63217" lon="-3.35977">
        <ele>104.72519</ele>
        <time>2026-01-29T08:55:50Z</time>
      </trkpt>
      <trkpt lat="48.63235" lon="-3.35991">
        <ele>104.02361</ele>
        <time>2026-01-29T08:55:52Z</time>
      </trkpt>
      <trkpt lat="48.63252" lon="-3.36005">
        <ele>103.36084</ele>
        <time>2026-01-29T08:55:54Z</time>
      </trkpt>
      <trkpt lat="48.63267" lon="-3.36021">
        <ele>102.73481</ele>
        <time>2026-01-29T08:55:56Z</time>
      </trkpt>
      <trkpt lat="48.63287" lon="-3.36043">
        <ele>102.138824</ele>
        <time>2026-01-29T08:55:59Z</time>
      </trkpt>
      <trkpt lat="48.63302" lon="-3.36062">
        <ele>101.59808</ele>
        <time>2026-01-29T08:56:02Z</time>
      </trkpt>
      <trkpt lat="48.6332" lon="-3.36085">
        <ele>101.17195</ele>
        <time>2026-01-29T08:56:06Z</time>
      </trkpt>
      <trkpt lat="48.63337" lon="-3.36106">
        <ele>100.90402</ele>
        <time>2026-01-29T08:56:10Z</time>
      </trkpt>
      <trkpt lat="48.63351" lon="-3.36118">
        <ele>100.826256</ele>
        <time>2026-01-29T08:56:13Z</time>
      </trkpt>
      <trkpt lat="48.63373" lon="-3.3613">
        <ele>100.93927</ele>
        <time>2026-01-29T08:56:17Z</time>
      </trkpt>
      <trkpt lat="48.63387" lon="-3.36139">
        <ele>101.27669</ele>
        <time>2026-01-29T08:56:20Z</time>
      </trkpt>
      <trkpt lat="48.63401" lon="-3.36152">
        <ele>101.83087</ele>
        <time>2026-01-29T08:56:23Z</time>
      </trkpt>
      <trkpt lat="48.63414" lon="-3.36166">
        <ele>102.57799</ele>
        <time>2026-01-29T08:56:26Z</time>
      </trkpt>
      <trkpt lat="48.63424" lon="-3.36183">
        <ele>103.47619</ele>
        <time>2026-01-29T08:56:29Z</time>
      </trkpt>
      <trkpt lat="48.63433" lon="-3.362">
        <ele>104.433754</ele>
        <time>2026-01-29T08:56:32Z</time>
      </trkpt>
      <trkpt lat="48.63443" lon="-3.36226">
        <ele>105.37991</ele>
        <time>2026-01-29T08:56:36Z</time>
      </trkpt>
      <trkpt lat="48.63455" lon="-3.36255">
        <ele>106.24021</ele>
        <time>2026-01-29T08:56:40Z</time>
      </trkpt>
      <trkpt lat="48.63464" lon="-3.36279">
        <ele>106.98078</ele>
        <time>2026-01-29T08:56:43Z</time>
      </trkpt>
      <trkpt lat="48.63474" lon="-3.36304">
        <ele>107.55075</ele>
        <time>2026-01-29T08:56:46Z</time>
      </trkpt>
      <trkpt lat="48.63486" lon="-3.36333">
        <ele>107.93512</ele>
        <time>2026-01-29T08:56:50Z</time>
      </trkpt>
      <trkpt lat="48.635" lon="-3.36361">
        <ele>108.137215</ele>
        <time>2026-01-29T08:56:54Z</time>
      </trkpt>
      <trkpt lat="48.63516" lon="-3.36388">
        <ele>108.18526</ele>
        <time>2026-01-29T08:56:58Z</time>
      </trkpt>
      <trkpt lat="48.63529" lon="-3.36408">
        <ele>108.12676</ele>
        <time>2026-01-29T08:57:01Z</time>
      </trkpt>
      <trkpt lat="48.63542" lon="-3.36428">
        <ele>108.025314</ele>
        <time>2026-01-29T08:57:04Z</time>
      </trkpt>
      <trkpt lat="48.63559" lon="-3.36454">
        <ele>107.88872</ele>
        <time>2026-01-29T08:57:08Z</time>
      </trkpt>
      <trkpt lat="48.63573" lon="-3.36472">
        <ele>107.75614</ele>
        <time>2026-01-29T08:57:11Z</time>
      </trkpt>
      <trkpt lat="48.63588" lon="-3.3649">
        <ele>107.63646</ele>
        <time>2026-01-29T08:57:14Z</time>
      </trkpt>
      <trkpt lat="48.63602" lon="-3.36507">
        <ele>107.53446</ele>
        <time>2026-01-29T08:57:17Z</time>
      </trkpt>
      <trkpt lat="48.63617" lon="-3.36525">
        <ele>107.47239</ele>
        <time>2026-01-29T08:57:20Z</time>
      </trkpt>
      <trkpt lat="48.63632" lon="-3.36542">
        <ele>107.43339</ele>
        <time>2026-01-29T08:57:23Z</time>
      </trkpt>
      <trkpt lat="48.63647" lon="-3.3656">
        <ele>107.40564</ele>
        <time>2026-01-29T08:57:26Z</time>
      </trkpt>
      <trkpt lat="48.63663" lon="-3.36579">
        <ele>107.37502</ele>
        <time>2026-01-29T08:57:29Z</time>
      </trkpt>
      <trkpt lat="48.63678" lon="-3.36598">
        <ele>107.35564</ele>
        <time>2026-01-29T08:57:32Z</time>
      </trkpt>
      <trkpt lat="48.6369" lon="-3.36619">
        <ele>107.34963</ele>
        <time>2026-01-29T08:57:35Z</time>
      </trkpt>
      <trkpt lat="48.63702" lon="-3.36638">
        <ele>107.386314</ele>
        <time>2026-01-29T08:57:38Z</time>
      </trkpt>
      <trkpt lat="48.63718" lon="-3.36663">
        <ele>107.4527</ele>
        <time>2026-01-29T08:57:42Z</time>
      </trkpt>
      <trkpt lat="48.63734" lon="-3.36689">
        <ele>107.53304</ele>
        <time>2026-01-29T08:57:46Z</time>
      </trkpt>
      <trkpt lat="48.63749" lon="-3.36712">
        <ele>107.638794</ele>
        <time>2026-01-29T08:57:50Z</time>
      </trkpt>
      <trkpt lat="48.63758" lon="-3.36727">
        <ele>107.75823</ele>
        <time>2026-01-29T08:57:53Z</time>
      </trkpt>
      <trkpt lat="48.63767" lon="-3.36743">
        <ele>107.89088</ele>
        <time>2026-01-29T08:57:56Z</time>
      </trkpt>
      <trkpt lat="48.63777" lon="-3.36759">
        <ele>108.052765</ele>
        <time>2026-01-29T08:57:59Z</time>
      </trkpt>
      <trkpt lat="48.63787" lon="-3.36774">
        <ele>108.22273</ele>
        <time>2026-01-29T08:58:02Z</time>
      </trkpt>
      <trkpt lat="48.63796" lon="-3.3679">
        <ele>108.3833</ele>
        <time>2026-01-29T08:58:05Z</time>
      </trkpt>
      <trkpt lat="48.63806" lon="-3.36805">
        <ele>108.572136</ele>
        <time>2026-01-29T08:58:08Z</time>
      </trkpt>
      <trkpt lat="48.63815" lon="-3.36822">
        <ele>108.78421</ele>
        <time>2026-01-29T08:58:11Z</time>
      </trkpt>
      <trkpt lat="48.63828" lon="-3.36846">
        <ele>109.017395</ele>
        <time>2026-01-29T08:58:15Z</time>
      </trkpt>
      <trkpt lat="48.63842" lon="-3.3687">
        <ele>109.284546</ele>
        <time>2026-01-29T08:58:19Z</time>
      </trkpt>
      <trkpt lat="48.63853" lon="-3.36886">
        <ele>109.563896</ele>
        <time>2026-01-29T08:58:22Z</time>
      </trkpt>
      <trkpt lat="48.6387" lon="-3.36907">
        <ele>109.858284</ele>
        <time>2026-01-29T08:58:26Z</time>
      </trkpt>
      <trkpt lat="48.63887" lon="-3.3693">
        <ele>110.194984</ele>
        <time>2026-01-29T08:58:30Z</time>
      </trkpt>
      <trkpt lat="48.63901" lon="-3.36949">
        <ele>110.56178</ele>
        <time>2026-01-29T08:58:33Z</time>
      </trkpt>
      <trkpt lat="48.63918" lon="-3.36972">
        <ele>110.899666</ele>
        <time>2026-01-29T08:58:37Z</time>
      </trkpt>
      <trkpt lat="48.63934" lon="-3.36994">
        <ele>111.22399</ele>
        <time>2026-01-29T08:58:41Z</time>
      </trkpt>
      <trkpt lat="48.6395" lon="-3.37015">
        <ele>111.52868</ele>
        <time>2026-01-29T08:58:45Z</time>
      </trkpt>
      <trkpt lat="48.63966" lon="-3.37036">
        <ele>111.81038</ele>
        <time>2026-01-29T08:58:49Z</time>
      </trkpt>
      <trkpt lat="48.63983" lon="-3.37061">
        <ele>112.07774</ele>
        <time>2026-01-29T08:58:53Z</time>
      </trkpt>
      <trkpt lat="48.63998" lon="-3.37086">
        <ele>112.31599</ele>
        <time>2026-01-29T08:58:57Z</time>
      </trkpt>
      <trkpt lat="48.64015" lon="-3.3711">
        <ele>112.52458</ele>
        <time>2026-01-29T08:59:01Z</time>
      </trkpt>
      <trkpt lat="48.64025" lon="-3.37125">
        <ele>112.769516</ele>
        <time>2026-01-29T08:59:04Z</time>
      </trkpt>
      <trkpt lat="48.64039" lon="-3.37141">
        <ele>113.09616</ele>
        <time>2026-01-29T08:59:08Z</time>
      </trkpt>
      <trkpt lat="48.64052" lon="-3.37156">
        <ele>113.50563</ele>
        <time>2026-01-29T08:59:12Z</time>
      </trkpt>
      <trkpt lat="48.64066" lon="-3.3717">
        <ele>114.006874</ele>
        <time>2026-01-29T08:59:17Z</time>
      </trkpt>
      <trkpt lat="48.64077" lon="-3.37182">
        <ele>114.60851</ele>
        <time>2026-01-29T08:59:21Z</time>
      </trkpt>
      <trkpt lat="48.64091" lon="-3.37194">
        <ele>115.32711</ele>
        <time>2026-01-29T08:59:25Z</time>
      </trkpt>
      <trkpt lat="48.64103" lon="-3.37208">
        <ele>116.12136</ele>
        <time>2026-01-29T08:59:29Z</time>
      </trkpt>
      <trkpt lat="48.64119" lon="-3.37202">
        <ele>116.91499</ele>
        <time>2026-01-29T08:59:33Z</time>
      </trkpt>
      <trkpt lat="48.64132" lon="-3.37184">
        <ele>117.6617</ele>
        <time>2026-01-29T08:59:37Z</time>
      </trkpt>
      <trkpt lat="48.64145" lon="-3.37169">
        <ele>118.344345</ele>
        <time>2026-01-29T08:59:41Z</time>
      </trkpt>
      <trkpt lat="48.6416" lon="-3.37153">
        <ele>118.928024</ele>
        <time>2026-01-29T08:59:45Z</time>
      </trkpt>
      <trkpt lat="48.64171" lon="-3.37142">
        <ele>119.37308</ele>
        <time>2026-01-29T08:59:48Z</time>
      </trkpt>
      <trkpt lat="48.64182" lon="-3.3713">
        <ele>119.646454</ele>
        <time>2026-01-29T08:59:51Z</time>
      </trkpt>
      <trkpt lat="48.64194" lon="-3.37111">
        <ele>119.73212</ele>
        <time>2026-01-29T08:59:55Z</time>
      </trkpt>
      <trkpt lat="48.64196" lon="-3.37079">
        <ele>119.69415</ele>
        <time>2026-01-29T08:59:59Z</time>
      </trkpt>
      <trkpt lat="48.64199" lon="-3.3705">
        <ele>119.55276</ele>
        <time>2026-01-29T09:00:02Z</time>
      </trkpt>
      <trkpt lat="48.64204" lon="-3.37012">
        <ele>119.28187</ele>
        <time>2026-01-29T09:00:05Z</time>
      </trkpt>
      <trkpt lat="48.64206" lon="-3.36983">
        <ele>118.915245</ele>
        <time>2026-01-29T09:00:07Z</time>
      </trkpt>
      <trkpt lat="48.6421" lon="-3.36954">
        <ele>118.466255</ele>
        <time>2026-01-29T09:00:09Z</time>
      </trkpt>
      <trkpt lat="48.64215" lon="-3.36926">
        <ele>117.937096</ele>
        <time>2026-01-29T09:00:11Z</time>
      </trkpt>
      <trkpt lat="48.6422" lon="-3.36899">
        <ele>117.36909</ele>
        <time>2026-01-29T09:00:13Z</time>
      </trkpt>
      <trkpt lat="48.64227" lon="-3.36861">
        <ele>116.73035</ele>
        <time>2026-01-29T09:00:16Z</time>
      </trkpt>
      <trkpt lat="48.64234" lon="-3.36826">
        <ele>115.98034</ele>
        <time>2026-01-29T09:00:19Z</time>
      </trkpt>
      <trkpt lat="48.64242" lon="-3.36795">
        <ele>115.13004</ele>
        <time>2026-01-29T09:00:22Z</time>
      </trkpt>
      <trkpt lat="48.64251" lon="-3.36765">
        <ele>114.18601</ele>
        <time>2026-01-29T09:00:25Z</time>
      </trkpt>
      <trkpt lat="48.64261" lon="-3.36736">
        <ele>113.11743</ele>
        <time>2026-01-29T09:00:28Z</time>
      </trkpt>
      <trkpt lat="48.64271" lon="-3.36705">
        <ele>111.95337</ele>
        <time>2026-01-29T09:00:31Z</time>
      </trkpt>
      <trkpt lat="48.64281" lon="-3.36671">
        <ele>110.6906</ele>
        <time>2026-01-29T09:00:34Z</time>
      </trkpt>
      <trkpt lat="48.64288" lon="-3.36645">
        <ele>109.349304</ele>
        <time>2026-01-29T09:00:36Z</time>
      </trkpt>
      <trkpt lat="48.64294" lon="-3.36617">
        <ele>107.95012</ele>
        <time>2026-01-29T09:00:38Z</time>
      </trkpt>
      <trkpt lat="48.64301" lon="-3.36587">
        <ele>106.50892</ele>
        <time>2026-01-29T09:00:40Z</time>
      </trkpt>
      <trkpt lat="48.64308" lon="-3.36556">
        <ele>105.018234</ele>
        <time>2026-01-29T09:00:42Z</time>
      </trkpt>
      <trkpt lat="48.64316" lon="-3.36522">
        <ele>103.495224</ele>
        <time>2026-01-29T09:00:44Z</time>
      </trkpt>
      <trkpt lat="48.64324" lon="-3.36489">
        <ele>101.926506</ele>
        <time>2026-01-29T09:00:46Z</time>
      </trkpt>
      <trkpt lat="48.64333" lon="-3.36457">
        <ele>100.32797</ele>
        <time>2026-01-29T09:00:48Z</time>
      </trkpt>
      <trkpt lat="48.64341" lon="-3.36424">
        <ele>98.72233</ele>
        <time>2026-01-29T09:00:50Z</time>
      </trkpt>
      <trkpt lat="48.6435" lon="-3.36393">
        <ele>97.12927</ele>
        <time>2026-01-29T09:00:52Z</time>
      </trkpt>
      <trkpt lat="48.64357" lon="-3.36365">
        <ele>95.60413</ele>
        <time>2026-01-29T09:00:54Z</time>
      </trkpt>
      <trkpt lat="48.64362" lon="-3.36335">
        <ele>94.20418</ele>
        <time>2026-01-29T09:00:56Z</time>
      </trkpt>
      <trkpt lat="48.64366" lon="-3.36308">
        <ele>93.00742</ele>
        <time>2026-01-29T09:00:58Z</time>
      </trkpt>
      <trkpt lat="48.64369" lon="-3.36277">
        <ele>92.0503</ele>
        <time>2026-01-29T09:01:01Z</time>
      </trkpt>
      <trkpt lat="48.64371" lon="-3.36254">
        <ele>91.37249</ele>
        <time>2026-01-29T09:01:04Z</time>
      </trkpt>
      <trkpt lat="48.64374" lon="-3.36231">
        <ele>90.97871</ele>
        <time>2026-01-29T09:01:08Z</time>
      </trkpt>
      <trkpt lat="48.64376" lon="-3.36206">
        <ele>90.89976</ele>
        <time>2026-01-29T09:01:13Z</time>
      </trkpt>
      <trkpt lat="48.64379" lon="-3.36186">
        <ele>91.077866</ele>
        <time>2026-01-29T09:01:17Z</time>
      </trkpt>
      <trkpt lat="48.64385" lon="-3.36163">
        <ele>91.46413</ele>
        <time>2026-01-29T09:01:21Z</time>
      </trkpt>
      <trkpt lat="48.64393" lon="-3.36141">
        <ele>91.98908</ele>
        <time>2026-01-29T09:01:25Z</time>
      </trkpt>
      <trkpt lat="48.64402" lon="-3.36118">
        <ele>92.629524</ele>
        <time>2026-01-29T09:01:29Z</time>
      </trkpt>
      <trkpt lat="48.64407" lon="-3.36092">
        <ele>93.35454</ele>
        <time>2026-01-29T09:01:33Z</time>
      </trkpt>
      <trkpt lat="48.64412" lon="-3.36066">
        <ele>94.1348</ele>
        <time>2026-01-29T09:01:37Z</time>
      </trkpt>
      <trkpt lat="48.64415" lon="-3.36045">
        <ele>94.92996</ele>
        <time>2026-01-29T09:01:40Z</time>
      </trkpt>
      <trkpt lat="48.64418" lon="-3.36023">
        <ele>95.71004</ele>
        <time>2026-01-29T09:01:43Z</time>
      </trkpt>
      <trkpt lat="48.64423" lon="-3.36002">
        <ele>96.473274</ele>
        <time>2026-01-29T09:01:46Z</time>
      </trkpt>
      <trkpt lat="48.64429" lon="-3.35983">
        <ele>97.22918</ele>
        <time>2026-01-29T09:01:49Z</time>
      </trkpt>
      <trkpt lat="48.64436" lon="-3.35964">
        <ele>97.96223</ele>
        <time>2026-01-29T09:01:52Z</time>
      </trkpt>
      <trkpt lat="48.64444" lon="-3.35947">
        <ele>98.64116</ele>
        <time>2026-01-29T09:01:55Z</time>
      </trkpt>
      <trkpt lat="48.64455" lon="-3.35924">
        <ele>99.24736</ele>
        <time>2026-01-29T09:01:59Z</time>
      </trkpt>
      <trkpt lat="48.64463" lon="-3.35907">
        <ele>99.77743</ele>
        <time>2026-01-29T09:02:02Z</time>
      </trkpt>
      <trkpt lat="48.64473" lon="-3.35882">
        <ele>100.24587</ele>
        <time>2026-01-29T09:02:06Z</time>
      </trkpt>
      <trkpt lat="48.64483" lon="-3.35865">
        <ele>100.64977</ele>
        <time>2026-01-29T09:02:09Z</time>
      </trkpt>
      <trkpt lat="48.64494" lon="-3.35845">
        <ele>101.00761</ele>
        <time>2026-01-29T09:02:13Z</time>
      </trkpt>
      <trkpt lat="48.64503" lon="-3.35829">
        <ele>101.31987</ele>
        <time>2026-01-29T09:02:16Z</time>
      </trkpt>
      <trkpt lat="48.64512" lon="-3.35807">
        <ele>101.61088</ele>
        <time>2026-01-29T09:02:20Z</time>
      </trkpt>
      <trkpt lat="48.64519" lon="-3.35782">
        <ele>101.90486</ele>
        <time>2026-01-29T09:02:24Z</time>
      </trkpt>
      <trkpt lat="48.64527" lon="-3.35755">
        <ele>102.21028</ele>
        <time>2026-01-29T09:02:28Z</time>
      </trkpt>
      <trkpt lat="48.64534" lon="-3.35724">
        <ele>102.52921</ele>
        <time>2026-01-29T09:02:32Z</time>
      </trkpt>
      <trkpt lat="48.64541" lon="-3.35691">
        <ele>102.86447</ele>
        <time>2026-01-29T09:02:36Z</time>
      </trkpt>
      <trkpt lat="48.64549" lon="-3.35666">
        <ele>103.18441</ele>
        <time>2026-01-29T09:02:39Z</time>
      </trkpt>
      <trkpt lat="48.64558" lon="-3.35643">
        <ele>103.47979</ele>
        <time>2026-01-29T09:02:42Z</time>
      </trkpt>
      <trkpt lat="48.64572" lon="-3.35613">
        <ele>103.734436</ele>
        <time>2026-01-29T09:02:46Z</time>
      </trkpt>
      <trkpt lat="48.64586" lon="-3.35585">
        <ele>103.959496</ele>
        <time>2026-01-29T09:02:50Z</time>
      </trkpt>
      <trkpt lat="48.64598" lon="-3.35563">
        <ele>104.12717</ele>
        <time>2026-01-29T09:02:53Z</time>
      </trkpt>
      <trkpt lat="48.64608" lon="-3.35536">
        <ele>104.25801</ele>
        <time>2026-01-29T09:02:56Z</time>
      </trkpt>
      <trkpt lat="48.64618" lon="-3.35509">
        <ele>104.3566</ele>
        <time>2026-01-29T09:02:59Z</time>
      </trkpt>
      <trkpt lat="48.64627" lon="-3.35484">
        <ele>104.436844</ele>
        <time>2026-01-29T09:03:02Z</time>
      </trkpt>
      <trkpt lat="48.64637" lon="-3.35458">
        <ele>104.53873</ele>
        <time>2026-01-29T09:03:05Z</time>
      </trkpt>
      <trkpt lat="48.64648" lon="-3.35433">
        <ele>104.68126</ele>
        <time>2026-01-29T09:03:08Z</time>
      </trkpt>
      <trkpt lat="48.64657" lon="-3.35406">
        <ele>104.862915</ele>
        <time>2026-01-29T09:03:11Z</time>
      </trkpt>
      <trkpt lat="48.64666" lon="-3.35381">
        <ele>105.07571</ele>
        <time>2026-01-29T09:03:14Z</time>
      </trkpt>
      <trkpt lat="48.64675" lon="-3.35355">
        <ele>105.31501</ele>
        <time>2026-01-29T09:03:17Z</time>
      </trkpt>
      <trkpt lat="48.64681" lon="-3.35327">
        <ele>105.54898</ele>
        <time>2026-01-29T09:03:20Z</time>
      </trkpt>
      <trkpt lat="48.64687" lon="-3.35298">
        <ele>105.770355</ele>
        <time>2026-01-29T09:03:23Z</time>
      </trkpt>
      <trkpt lat="48.6469" lon="-3.35268">
        <ele>105.95675</ele>
        <time>2026-01-29T09:03:26Z</time>
      </trkpt>
      <trkpt lat="48.64693" lon="-3.35238">
        <ele>106.10497</ele>
        <time>2026-01-29T09:03:29Z</time>
      </trkpt>
      <trkpt lat="48.64698" lon="-3.3521">
        <ele>106.17176</ele>
        <time>2026-01-29T09:03:32Z</time>
      </trkpt>
      <trkpt lat="48.64705" lon="-3.35181">
        <ele>106.18805</ele>
        <time>2026-01-29T09:03:35Z</time>
      </trkpt>
      <trkpt lat="48.64711" lon="-3.35149">
        <ele>106.15615</ele>
        <time>2026-01-29T09:03:38Z</time>
      </trkpt>
      <trkpt lat="48.64717" lon="-3.35121">
        <ele>106.086205</ele>
        <time>2026-01-29T09:03:41Z</time>
      </trkpt>
      <trkpt lat="48.64723" lon="-3.35091">
        <ele>105.99636</ele>
        <time>2026-01-29T09:03:44Z</time>
      </trkpt>
      <trkpt lat="48.64731" lon="-3.35063">
        <ele>105.9077</ele>
        <time>2026-01-29T09:03:47Z</time>
      </trkpt>
      <trkpt lat="48.64737" lon="-3.35034">
        <ele>105.81053</ele>
        <time>2026-01-29T09:03:50Z</time>
      </trkpt>
      <trkpt lat="48.64744" lon="-3.35007">
        <ele>105.74422</ele>
        <time>2026-01-29T09:03:53Z</time>
      </trkpt>
      <trkpt lat="48.6475" lon="-3.3498">
        <ele>105.74865</ele>
        <time>2026-01-29T09:03:56Z</time>
      </trkpt>
      <trkpt lat="48.64758" lon="-3.34954">
        <ele>105.80851</ele>
        <time>2026-01-29T09:03:59Z</time>
      </trkpt>
      <trkpt lat="48.64765" lon="-3.34927">
        <ele>105.95871</ele>
        <time>2026-01-29T09:04:02Z</time>
      </trkpt>
      <trkpt lat="48.64772" lon="-3.34902">
        <ele>106.20431</ele>
        <time>2026-01-29T09:04:05Z</time>
      </trkpt>
      <trkpt lat="48.64782" lon="-3.3487">
        <ele>106.54054</ele>
        <time>2026-01-29T09:04:09Z</time>
      </trkpt>
      <trkpt lat="48.64794" lon="-3.34843">
        <ele>106.95676</ele>
        <time>2026-01-29T09:04:13Z</time>
      </trkpt>
      <trkpt lat="48.6481" lon="-3.34821">
        <ele>107.45129</ele>
        <time>2026-01-29T09:04:17Z</time>
      </trkpt>
      <trkpt lat="48.6483" lon="-3.34804">
        <ele>107.95367</ele>
        <time>2026-01-29T09:04:21Z</time>
      </trkpt>
      <trkpt lat="48.6485" lon="-3.34788">
        <ele>108.466415</ele>
        <time>2026-01-29T09:04:25Z</time>
      </trkpt>
      <trkpt lat="48.6487" lon="-3.34775">
        <ele>108.98425</ele>
        <time>2026-01-29T09:04:29Z</time>
      </trkpt>
      <trkpt lat="48.64893" lon="-3.34766">
        <ele>109.46864</ele>
        <time>2026-01-29T09:04:33Z</time>
      </trkpt>
      <trkpt lat="48.64912" lon="-3.3476">
        <ele>109.90862</ele>
        <time>2026-01-29T09:04:36Z</time>
      </trkpt>
      <trkpt lat="48.64929" lon="-3.34754">
        <ele>110.31013</ele>
        <time>2026-01-29T09:04:39Z</time>
      </trkpt>
      <trkpt lat="48.64947" lon="-3.34746">
        <ele>110.666016</ele>
        <time>2026-01-29T09:04:42Z</time>
      </trkpt>
      <trkpt lat="48.64969" lon="-3.34734">
        <ele>110.99608</ele>
        <time>2026-01-29T09:04:46Z</time>
      </trkpt>
      <trkpt lat="48.64987" lon="-3.34723">
        <ele>111.3236</ele>
        <time>2026-01-29T09:04:49Z</time>
      </trkpt>
      <trkpt lat="48.65008" lon="-3.34706">
        <ele>111.61782</ele>
        <time>2026-01-29T09:04:53Z</time>
      </trkpt>
      <trkpt lat="48.6503" lon="-3.34691">
        <ele>111.902695</ele>
        <time>2026-01-29T09:04:57Z</time>
      </trkpt>
      <trkpt lat="48.65053" lon="-3.34679">
        <ele>112.18176</ele>
        <time>2026-01-29T09:05:01Z</time>
      </trkpt>
      <trkpt lat="48.65075" lon="-3.34668">
        <ele>112.461945</ele>
        <time>2026-01-29T09:05:05Z</time>
      </trkpt>
      <trkpt lat="48.65097" lon="-3.34656">
        <ele>112.72915</ele>
        <time>2026-01-29T09:05:09Z</time>
      </trkpt>
      <trkpt lat="48.65119" lon="-3.34643">
        <ele>112.96724</ele>
        <time>2026-01-29T09:05:13Z</time>
      </trkpt>
      <trkpt lat="48.65137" lon="-3.34633">
        <ele>113.15148</ele>
        <time>2026-01-29T09:05:16Z</time>
      </trkpt>
      <trkpt lat="48.65155" lon="-3.34622">
        <ele>113.29962</ele>
        <time>2026-01-29T09:05:19Z</time>
      </trkpt>
      <trkpt lat="48.65172" lon="-3.34611">
        <ele>113.385956</ele>
        <time>2026-01-29T09:05:22Z</time>
      </trkpt>
      <trkpt lat="48.65189" lon="-3.34594">
        <ele>113.3793</ele>
        <time>2026-01-29T09:05:25Z</time>
      </trkpt>
      <trkpt lat="48.65206" lon="-3.34575">
        <ele>113.29082</ele>
        <time>2026-01-29T09:05:28Z</time>
      </trkpt>
      <trkpt lat="48.65221" lon="-3.34556">
        <ele>113.12126</ele>
        <time>2026-01-29T09:05:31Z</time>
      </trkpt>
      <trkpt lat="48.65237" lon="-3.34533">
        <ele>112.902534</ele>
        <time>2026-01-29T09:05:35Z</time>
      </trkpt>
      <trkpt lat="48.6525" lon="-3.34513">
        <ele>112.66335</ele>
        <time>2026-01-29T09:05:38Z</time>
      </trkpt>
      <trkpt lat="48.65264" lon="-3.34496">
        <ele>112.42007</ele>
        <time>2026-01-29T09:05:41Z</time>
      </trkpt>
      <trkpt lat="48.65283" lon="-3.34474">
        <ele>112.207466</ele>
        <time>2026-01-29T09:05:45Z</time>
      </trkpt>
      <trkpt lat="48.65304" lon="-3.34458">
        <ele>112.05177</ele>
        <time>2026-01-29T09:05:49Z</time>
      </trkpt>
      <trkpt lat="48.65325" lon="-3.34443">
        <ele>111.94794</ele>
        <time>2026-01-29T09:05:53Z</time>
      </trkpt>
      <trkpt lat="48.65342" lon="-3.34432">
        <ele>111.891396</ele>
        <time>2026-01-29T09:05:56Z</time>
      </trkpt>
      <trkpt lat="48.65358" lon="-3.34417">
        <ele>111.87861</ele>
        <time>2026-01-29T09:05:59Z</time>
      </trkpt>
      <trkpt lat="48.65371" lon="-3.34397">
        <ele>111.87643</ele>
        <time>2026-01-29T09:06:02Z</time>
      </trkpt>
      <trkpt lat="48.65382" lon="-3.34376">
        <ele>111.874886</ele>
        <time>2026-01-29T09:06:05Z</time>
      </trkpt>
      <trkpt lat="48.65393" lon="-3.34353">
        <ele>111.85994</ele>
        <time>2026-01-29T09:06:08Z</time>
      </trkpt>
      <trkpt lat="48.65406" lon="-3.34323">
        <ele>111.81696</ele>
        <time>2026-01-29T09:06:12Z</time>
      </trkpt>
      <trkpt lat="48.6542" lon="-3.34294">
        <ele>111.74306</ele>
        <time>2026-01-29T09:06:16Z</time>
      </trkpt>
      <trkpt lat="48.65434" lon="-3.34265">
        <ele>111.64535</ele>
        <time>2026-01-29T09:06:20Z</time>
      </trkpt>
      <trkpt lat="48.65444" lon="-3.34243">
        <ele>111.513016</ele>
        <time>2026-01-29T09:06:23Z</time>
      </trkpt>
      <trkpt lat="48.65457" lon="-3.34215">
        <ele>111.359955</ele>
        <time>2026-01-29T09:06:27Z</time>
      </trkpt>
      <trkpt lat="48.65468" lon="-3.34184">
        <ele>111.18789</ele>
        <time>2026-01-29T09:06:31Z</time>
      </trkpt>
      <trkpt lat="48.65479" lon="-3.34154">
        <ele>111.006485</ele>
        <time>2026-01-29T09:06:35Z</time>
      </trkpt>
      <trkpt lat="48.65486" lon="-3.34129">
        <ele>110.79613</ele>
        <time>2026-01-29T09:06:38Z</time>
      </trkpt>
      <trkpt lat="48.65494" lon="-3.34103">
        <ele>110.56943</ele>
        <time>2026-01-29T09:06:41Z</time>
      </trkpt>
      <trkpt lat="48.65501" lon="-3.34074">
        <ele>110.33671</ele>
        <time>2026-01-29T09:06:44Z</time>
      </trkpt>
      <trkpt lat="48.65509" lon="-3.34047">
        <ele>110.116104</ele>
        <time>2026-01-29T09:06:47Z</time>
      </trkpt>
      <trkpt lat="48.6552" lon="-3.34022">
        <ele>109.91629</ele>
        <time>2026-01-29T09:06:50Z</time>
      </trkpt>
      <trkpt lat="48.65536" lon="-3.34002">
        <ele>109.7489</ele>
        <time>2026-01-29T09:06:53Z</time>
      </trkpt>
      <trkpt lat="48.6555" lon="-3.33983">
        <ele>109.60734</ele>
        <time>2026-01-29T09:06:56Z</time>
      </trkpt>
      <trkpt lat="48.65566" lon="-3.33967">
        <ele>109.51496</ele>
        <time>2026-01-29T09:06:59Z</time>
      </trkpt>
      <trkpt lat="48.65582" lon="-3.33953">
        <ele>109.47402</ele>
        <time>2026-01-29T09:07:02Z</time>
      </trkpt>
      <trkpt lat="48.656" lon="-3.33943">
        <ele>109.48514</ele>
        <time>2026-01-29T09:07:05Z</time>
      </trkpt>
      <trkpt lat="48.65618" lon="-3.33936">
        <ele>109.53956</ele>
        <time>2026-01-29T09:07:08Z</time>
      </trkpt>
      <trkpt lat="48.65638" lon="-3.3393">
        <ele>109.58867</ele>
        <time>2026-01-29T09:07:11Z</time>
      </trkpt>
      <trkpt lat="48.65656" lon="-3.33925">
        <ele>109.61169</ele>
        <time>2026-01-29T09:07:14Z</time>
      </trkpt>
      <trkpt lat="48.65678" lon="-3.33917">
        <ele>109.59904</ele>
        <time>2026-01-29T09:07:18Z</time>
      </trkpt>
      <trkpt lat="48.657" lon="-3.33906">
        <ele>109.55292</ele>
        <time>2026-01-29T09:07:22Z</time>
      </trkpt>
      <trkpt lat="48.65719" lon="-3.33891">
        <ele>109.47088</ele>
        <time>2026-01-29T09:07:26Z</time>
      </trkpt>
      <trkpt lat="48.65732" lon="-3.33877">
        <ele>109.366035</ele>
        <time>2026-01-29T09:07:31Z</time>
      </trkpt>
      <trkpt lat="48.6574" lon="-3.33858">
        <ele>109.209335</ele>
        <time>2026-01-29T09:07:35Z</time>
      </trkpt>
      <trkpt lat="48.65748" lon="-3.33842">
        <ele>109.040146</ele>
        <time>2026-01-29T09:07:38Z</time>
      </trkpt>
      <trkpt lat="48.65767" lon="-3.3383">
        <ele>108.910355</ele>
        <time>2026-01-29T09:07:42Z</time>
      </trkpt>
      <trkpt lat="48.65782" lon="-3.33814">
        <ele>108.8199</ele>
        <time>2026-01-29T09:07:45Z</time>
      </trkpt>
      <trkpt lat="48.65797" lon="-3.33793">
        <ele>108.796326</ele>
        <time>2026-01-29T09:07:48Z</time>
      </trkpt>
      <trkpt lat="48.6581" lon="-3.33771">
        <ele>108.83574</ele>
        <time>2026-01-29T09:07:51Z</time>
      </trkpt>
      <trkpt lat="48.65824" lon="-3.3375">
        <ele>108.91244</ele>
        <time>2026-01-29T09:07:54Z</time>
      </trkpt>
      <trkpt lat="48.65838" lon="-3.33729">
        <ele>109.06793</ele>
        <time>2026-01-29T09:07:57Z</time>
      </trkpt>
      <trkpt lat="48.65853" lon="-3.33713">
        <ele>109.30666</ele>
        <time>2026-01-29T09:08:00Z</time>
      </trkpt>
      <trkpt lat="48.65871" lon="-3.33704">
        <ele>109.60598</ele>
        <time>2026-01-29T09:08:03Z</time>
      </trkpt>
      <trkpt lat="48.65891" lon="-3.33704">
        <ele>109.94539</ele>
        <time>2026-01-29T09:08:06Z</time>
      </trkpt>
      <trkpt lat="48.65911" lon="-3.33714">
        <ele>110.29507</ele>
        <time>2026-01-29T09:08:09Z</time>
      </trkpt>
      <trkpt lat="48.65928" lon="-3.33733">
        <ele>110.595985</ele>
        <time>2026-01-29T09:08:12Z</time>
      </trkpt>
      <trkpt lat="48.65945" lon="-3.33755">
        <ele>110.81597</ele>
        <time>2026-01-29T09:08:15Z</time>
      </trkpt>
      <trkpt lat="48.65964" lon="-3.33778">
        <ele>110.90544</ele>
        <time>2026-01-29T09:08:18Z</time>
      </trkpt>
      <trkpt lat="48.65985" lon="-3.33799">
        <ele>110.82266</ele>
        <time>2026-01-29T09:08:21Z</time>
      </trkpt>
      <trkpt lat="48.66008" lon="-3.33816">
        <ele>110.53353</ele>
        <time>2026-01-29T09:08:24Z</time>
      </trkpt>
      <trkpt lat="48.66031" lon="-3.33827">
        <ele>110.03324</ele>
        <time>2026-01-29T09:08:27Z</time>
      </trkpt>
      <trkpt lat="48.66054" lon="-3.33832">
        <ele>109.34817</ele>
        <time>2026-01-29T09:08:30Z</time>
      </trkpt>
      <trkpt lat="48.66075" lon="-3.33834">
        <ele>108.530655</ele>
        <time>2026-01-29T09:08:33Z</time>
      </trkpt>
      <trkpt lat="48.66094" lon="-3.33832">
        <ele>107.655365</ele>
        <time>2026-01-29T09:08:36Z</time>
      </trkpt>
      <trkpt lat="48.66113" lon="-3.33833">
        <ele>106.80042</ele>
        <time>2026-01-29T09:08:39Z</time>
      </trkpt>
      <trkpt lat="48.66132" lon="-3.33832">
        <ele>106.04505</ele>
        <time>2026-01-29T09:08:42Z</time>
      </trkpt>
      <trkpt lat="48.66151" lon="-3.33831">
        <ele>105.44036</ele>
        <time>2026-01-29T09:08:45Z</time>
      </trkpt>
      <trkpt lat="48.66174" lon="-3.33831">
        <ele>105.05808</ele>
        <time>2026-01-29T09:08:49Z</time>
      </trkpt>
      <trkpt lat="48.66197" lon="-3.33828">
        <ele>104.91513</ele>
        <time>2026-01-29T09:08:53Z</time>
      </trkpt>
      <trkpt lat="48.66219" lon="-3.33827">
        <ele>104.999275</ele>
        <time>2026-01-29T09:08:57Z</time>
      </trkpt>
      <trkpt lat="48.6624" lon="-3.33825">
        <ele>105.272156</ele>
        <time>2026-01-29T09:09:01Z</time>
      </trkpt>
      <trkpt lat="48.66256" lon="-3.33808">
        <ele>105.67137</ele>
        <time>2026-01-29T09:09:05Z</time>
      </trkpt>
      <trkpt lat="48.66269" lon="-3.33777">
        <ele>106.134094</ele>
        <time>2026-01-29T09:09:09Z</time>
      </trkpt>
      <trkpt lat="48.66283" lon="-3.33758">
        <ele>106.608215</ele>
        <time>2026-01-29T09:09:12Z</time>
      </trkpt>
      <trkpt lat="48.66299" lon="-3.33742">
        <ele>107.01443</ele>
        <time>2026-01-29T09:09:15Z</time>
      </trkpt>
      <trkpt lat="48.66316" lon="-3.33727">
        <ele>107.28886</ele>
        <time>2026-01-29T09:09:18Z</time>
      </trkpt>
      <trkpt lat="48.66334" lon="-3.33711">
        <ele>107.419495</ele>
        <time>2026-01-29T09:09:21Z</time>
      </trkpt>
      <trkpt lat="48.66353" lon="-3.33695">
        <ele>107.42163</ele>
        <time>2026-01-29T09:09:24Z</time>
      </trkpt>
      <trkpt lat="48.6637" lon="-3.33679">
        <ele>107.33754</ele>
        <time>2026-01-29T09:09:27Z</time>
      </trkpt>
      <trkpt lat="48.66386" lon="-3.33664">
        <ele>107.214355</ele>
        <time>2026-01-29T09:09:30Z</time>
      </trkpt>
      <trkpt lat="48.66402" lon="-3.33649">
        <ele>107.071945</ele>
        <time>2026-01-29T09:09:33Z</time>
      </trkpt>
      <trkpt lat="48.66418" lon="-3.33633">
        <ele>106.93052</ele>
        <time>2026-01-29T09:09:36Z</time>
      </trkpt>
      <trkpt lat="48.66436" lon="-3.33616">
        <ele>106.83255</ele>
        <time>2026-01-29T09:09:39Z</time>
      </trkpt>
      <trkpt lat="48.66454" lon="-3.33599">
        <ele>106.77621</ele>
        <time>2026-01-29T09:09:42Z</time>
      </trkpt>
      <trkpt lat="48.66471" lon="-3.33579">
        <ele>106.73796</ele>
        <time>2026-01-29T09:09:45Z</time>
      </trkpt>
      <trkpt lat="48.66489" lon="-3.33558">
        <ele>106.67983</ele>
        <time>2026-01-29T09:09:48Z</time>
      </trkpt>
      <trkpt lat="48.66505" lon="-3.3354">
        <ele>106.57662</ele>
        <time>2026-01-29T09:09:51Z</time>
      </trkpt>
      <trkpt lat="48.66521" lon="-3.33522">
        <ele>106.413734</ele>
        <time>2026-01-29T09:09:54Z</time>
      </trkpt>
      <trkpt lat="48.66537" lon="-3.33504">
        <ele>106.21253</ele>
        <time>2026-01-29T09:09:57Z</time>
      </trkpt>
      <trkpt lat="48.66552" lon="-3.33487">
        <ele>105.97022</ele>
        <time>2026-01-29T09:10:00Z</time>
      </trkpt>
      <trkpt lat="48.66567" lon="-3.33469">
        <ele>105.70265</ele>
        <time>2026-01-29T09:10:03Z</time>
      </trkpt>
      <trkpt lat="48.66583" lon="-3.33452">
        <ele>105.45356</ele>
        <time>2026-01-29T09:10:06Z</time>
      </trkpt>
      <trkpt lat="48.66597" lon="-3.33435">
        <ele>105.243744</ele>
        <time>2026-01-29T09:10:09Z</time>
      </trkpt>
      <trkpt lat="48.66613" lon="-3.33418">
        <ele>105.08736</ele>
        <time>2026-01-29T09:10:12Z</time>
      </trkpt>
      <trkpt lat="48.66629" lon="-3.33401">
        <ele>104.984184</ele>
        <time>2026-01-29T09:10:15Z</time>
      </trkpt>
      <trkpt lat="48.66645" lon="-3.33385">
        <ele>104.927284</ele>
        <time>2026-01-29T09:10:18Z</time>
      </trkpt>
      <trkpt lat="48.66661" lon="-3.33368">
        <ele>104.903534</ele>
        <time>2026-01-29T09:10:21Z</time>
      </trkpt>
      <trkpt lat="48.66677" lon="-3.33351">
        <ele>104.925865</ele>
        <time>2026-01-29T09:10:24Z</time>
      </trkpt>
      <trkpt lat="48.66693" lon="-3.33335">
        <ele>104.973495</ele>
        <time>2026-01-29T09:10:27Z</time>
      </trkpt>
      <trkpt lat="48.66708" lon="-3.33319">
        <ele>105.02929</ele>
        <time>2026-01-29T09:10:30Z</time>
      </trkpt>
      <trkpt lat="48.66723" lon="-3.33303">
        <ele>105.08748</ele>
        <time>2026-01-29T09:10:33Z</time>
      </trkpt>
      <trkpt lat="48.66739" lon="-3.33288">
        <ele>105.14632</ele>
        <time>2026-01-29T09:10:36Z</time>
      </trkpt>
      <trkpt lat="48.66755" lon="-3.33271">
        <ele>105.225075</ele>
        <time>2026-01-29T09:10:39Z</time>
      </trkpt>
      <trkpt lat="48.66771" lon="-3.33256">
        <ele>105.30969</ele>
        <time>2026-01-29T09:10:42Z</time>
      </trkpt>
      <trkpt lat="48.66787" lon="-3.3324">
        <ele>105.404</ele>
        <time>2026-01-29T09:10:45Z</time>
      </trkpt>
      <trkpt lat="48.66802" lon="-3.33225">
        <ele>105.50798</ele>
        <time>2026-01-29T09:10:48Z</time>
      </trkpt>
      <trkpt lat="48.66821" lon="-3.33205">
        <ele>105.64228</ele>
        <time>2026-01-29T09:10:52Z</time>
      </trkpt>
      <trkpt lat="48.66836" lon="-3.3319">
        <ele>105.80593</ele>
        <time>2026-01-29T09:10:55Z</time>
      </trkpt>
      <trkpt lat="48.66856" lon="-3.3317">
        <ele>106.00253</ele>
        <time>2026-01-29T09:10:59Z</time>
      </trkpt>
      <trkpt lat="48.66876" lon="-3.33149">
        <ele>106.22836</ele>
        <time>2026-01-29T09:11:03Z</time>
      </trkpt>
      <trkpt lat="48.6689" lon="-3.33132">
        <ele>106.4798</ele>
        <time>2026-01-29T09:11:06Z</time>
      </trkpt>
      <trkpt lat="48.66904" lon="-3.33114">
        <ele>106.734634</ele>
        <time>2026-01-29T09:11:09Z</time>
      </trkpt>
      <trkpt lat="48.66923" lon="-3.33092">
        <ele>106.988785</ele>
        <time>2026-01-29T09:11:13Z</time>
      </trkpt>
      <trkpt lat="48.66937" lon="-3.33075">
        <ele>107.21638</ele>
        <time>2026-01-29T09:11:16Z</time>
      </trkpt>
      <trkpt lat="48.66954" lon="-3.33053">
        <ele>107.40072</ele>
        <time>2026-01-29T09:11:20Z</time>
      </trkpt>
      <trkpt lat="48.66971" lon="-3.3303">
        <ele>107.53395</ele>
        <time>2026-01-29T09:11:24Z</time>
      </trkpt>
      <trkpt lat="48.66984" lon="-3.3301">
        <ele>107.58946</ele>
        <time>2026-01-29T09:11:27Z</time>
      </trkpt>
      <trkpt lat="48.67001" lon="-3.32985">
        <ele>107.54868</ele>
        <time>2026-01-29T09:11:31Z</time>
      </trkpt>
      <trkpt lat="48.67016" lon="-3.32959">
        <ele>107.4138</ele>
        <time>2026-01-29T09:11:35Z</time>
      </trkpt>
      <trkpt lat="48.67028" lon="-3.32937">
        <ele>107.20259</ele>
        <time>2026-01-29T09:11:38Z</time>
      </trkpt>
      <trkpt lat="48.6704" lon="-3.32916">
        <ele>106.939285</ele>
        <time>2026-01-29T09:11:41Z</time>
      </trkpt>
      <trkpt lat="48.67053" lon="-3.32894">
        <ele>106.6586</ele>
        <time>2026-01-29T09:11:44Z</time>
      </trkpt>
      <trkpt lat="48.67065" lon="-3.32874">
        <ele>106.370995</ele>
        <time>2026-01-29T09:11:47Z</time>
      </trkpt>
      <trkpt lat="48.67078" lon="-3.32853">
        <ele>106.08922</ele>
        <time>2026-01-29T09:11:50Z</time>
      </trkpt>
      <trkpt lat="48.67094" lon="-3.32827">
        <ele>105.86301</ele>
        <time>2026-01-29T09:11:54Z</time>
      </trkpt>
      <trkpt lat="48.67107" lon="-3.32806">
        <ele>105.728714</ele>
        <time>2026-01-29T09:11:57Z</time>
      </trkpt>
      <trkpt lat="48.67121" lon="-3.32785">
        <ele>105.687065</ele>
        <time>2026-01-29T09:12:00Z</time>
      </trkpt>
      <trkpt lat="48.67134" lon="-3.32766">
        <ele>105.72097</ele>
        <time>2026-01-29T09:12:03Z</time>
      </trkpt>
      <trkpt lat="48.67149" lon="-3.32745">
        <ele>105.78289</ele>
        <time>2026-01-29T09:12:06Z</time>
      </trkpt>
      <trkpt lat="48.67163" lon="-3.32725">
        <ele>105.8538</ele>
        <time>2026-01-29T09:12:09Z</time>
      </trkpt>
      <trkpt lat="48.67176" lon="-3.32707">
        <ele>105.93933</ele>
        <time>2026-01-29T09:12:12Z</time>
      </trkpt>
      <trkpt lat="48.67189" lon="-3.32687">
        <ele>106.03494</ele>
        <time>2026-01-29T09:12:15Z</time>
      </trkpt>
      <trkpt lat="48.67202" lon="-3.32667">
        <ele>106.10908</ele>
        <time>2026-01-29T09:12:18Z</time>
      </trkpt>
      <trkpt lat="48.67219" lon="-3.32642">
        <ele>106.15345</ele>
        <time>2026-01-29T09:12:22Z</time>
      </trkpt>
      <trkpt lat="48.67235" lon="-3.32617">
        <ele>106.186104</ele>
        <time>2026-01-29T09:12:26Z</time>
      </trkpt>
      <trkpt lat="48.67251" lon="-3.32591">
        <ele>106.232376</ele>
        <time>2026-01-29T09:12:30Z</time>
      </trkpt>
      <trkpt lat="48.67264" lon="-3.32562">
        <ele>106.32475</ele>
        <time>2026-01-29T09:12:34Z</time>
      </trkpt>
      <trkpt lat="48.67265" lon="-3.32528">
        <ele>106.47392</ele>
        <time>2026-01-29T09:12:38Z</time>
      </trkpt>
      <trkpt lat="48.67261" lon="-3.32492">
        <ele>106.65571</ele>
        <time>2026-01-29T09:12:42Z</time>
      </trkpt>
      <trkpt lat="48.67255" lon="-3.32465">
        <ele>106.8765</ele>
        <time>2026-01-29T09:12:45Z</time>
      </trkpt>
      <trkpt lat="48.67249" lon="-3.32439">
        <ele>107.13955</ele>
        <time>2026-01-29T09:12:48Z</time>
      </trkpt>
      <trkpt lat="48.67243" lon="-3.32413">
        <ele>107.41872</ele>
        <time>2026-01-29T09:12:51Z</time>
      </trkpt>
      <trkpt lat="48.67237" lon="-3.32386">
        <ele>107.68941</ele>
        <time>2026-01-29T09:12:54Z</time>
      </trkpt>
      <trkpt lat="48.67232" lon="-3.32359">
        <ele>107.94763</ele>
        <time>2026-01-29T09:12:57Z</time>
      </trkpt>
      <trkpt lat="48.67226" lon="-3.32332">
        <ele>108.16019</ele>
        <time>2026-01-29T09:13:00Z</time>
      </trkpt>
      <trkpt lat="48.6722" lon="-3.32305">
        <ele>108.326324</ele>
        <time>2026-01-29T09:13:03Z</time>
      </trkpt>
      <trkpt lat="48.67214" lon="-3.32278">
        <ele>108.449486</ele>
        <time>2026-01-29T09:13:06Z</time>
      </trkpt>
      <trkpt lat="48.67208" lon="-3.3225">
        <ele>108.51122</ele>
        <time>2026-01-29T09:13:09Z</time>
      </trkpt>
      <trkpt lat="48.67202" lon="-3.32224">
        <ele>108.50889</ele>
        <time>2026-01-29T09:13:12Z</time>
      </trkpt>
      <trkpt lat="48.67196" lon="-3.32197">
        <ele>108.478004</ele>
        <time>2026-01-29T09:13:15Z</time>
      </trkpt>
      <trkpt lat="48.6719" lon="-3.32168">
        <ele>108.405426</ele>
        <time>2026-01-29T09:13:18Z</time>
      </trkpt>
      <trkpt lat="48.67184" lon="-3.32142">
        <ele>108.31174</ele>
        <time>2026-01-29T09:13:21Z</time>
      </trkpt>
      <trkpt lat="48.67178" lon="-3.32114">
        <ele>108.20384</ele>
        <time>2026-01-29T09:13:24Z</time>
      </trkpt>
      <trkpt lat="48.67172" lon="-3.32088">
        <ele>108.08115</ele>
        <time>2026-01-29T09:13:27Z</time>
      </trkpt>
      <trkpt lat="48.67162" lon="-3.32054">
        <ele>107.98324</ele>
        <time>2026-01-29T09:13:31Z</time>
      </trkpt>
      <trkpt lat="48.67152" lon="-3.32028">
        <ele>107.92076</ele>
        <time>2026-01-29T09:13:34Z</time>
      </trkpt>
      <trkpt lat="48.67142" lon="-3.32004">
        <ele>107.89198</ele>
        <time>2026-01-29T09:13:37Z</time>
      </trkpt>
      <trkpt lat="48.67131" lon="-3.31981">
        <ele>107.887985</ele>
        <time>2026-01-29T09:13:40Z</time>
      </trkpt>
      <trkpt lat="48.67119" lon="-3.31959">
        <ele>107.9117</ele>
        <time>2026-01-29T09:13:43Z</time>
      </trkpt>
      <trkpt lat="48.67109" lon="-3.31936">
        <ele>107.96477</ele>
        <time>2026-01-29T09:13:46Z</time>
      </trkpt>
      <trkpt lat="48.67096" lon="-3.31912">
        <ele>108.05476</ele>
        <time>2026-01-29T09:13:49Z</time>
      </trkpt>
      <trkpt lat="48.67085" lon="-3.31889">
        <ele>108.157036</ele>
        <time>2026-01-29T09:13:52Z</time>
      </trkpt>
      <trkpt lat="48.67075" lon="-3.31863">
        <ele>108.23388</ele>
        <time>2026-01-29T09:13:55Z</time>
      </trkpt>
      <trkpt lat="48.67066" lon="-3.31836">
        <ele>108.263306</ele>
        <time>2026-01-29T09:13:58Z</time>
      </trkpt>
      <trkpt lat="48.67059" lon="-3.31809">
        <ele>108.25457</ele>
        <time>2026-01-29T09:14:01Z</time>
      </trkpt>
      <trkpt lat="48.67052" lon="-3.31781">
        <ele>108.19253</ele>
        <time>2026-01-29T09:14:04Z</time>
      </trkpt>
      <trkpt lat="48.67047" lon="-3.31752">
        <ele>108.08097</ele>
        <time>2026-01-29T09:14:07Z</time>
      </trkpt>
      <trkpt lat="48.67043" lon="-3.31724">
        <ele>107.90345</ele>
        <time>2026-01-29T09:14:10Z</time>
      </trkpt>
      <trkpt lat="48.67039" lon="-3.31694">
        <ele>107.65582</ele>
        <time>2026-01-29T09:14:13Z</time>
      </trkpt>
      <trkpt lat="48.67038" lon="-3.31665">
        <ele>107.39193</ele>
        <time>2026-01-29T09:14:16Z</time>
      </trkpt>
      <trkpt lat="48.67038" lon="-3.31635">
        <ele>107.12507</ele>
        <time>2026-01-29T09:14:19Z</time>
      </trkpt>
      <trkpt lat="48.67039" lon="-3.31607">
        <ele>106.86677</ele>
        <time>2026-01-29T09:14:22Z</time>
      </trkpt>
      <trkpt lat="48.67039" lon="-3.31578">
        <ele>106.62039</ele>
        <time>2026-01-29T09:14:25Z</time>
      </trkpt>
      <trkpt lat="48.6704" lon="-3.3155">
        <ele>106.40056</ele>
        <time>2026-01-29T09:14:28Z</time>
      </trkpt>
      <trkpt lat="48.67042" lon="-3.31521">
        <ele>106.217995</ele>
        <time>2026-01-29T09:14:31Z</time>
      </trkpt>
      <trkpt lat="48.67042" lon="-3.31491">
        <ele>106.05149</ele>
        <time>2026-01-29T09:14:34Z</time>
      </trkpt>
      <trkpt lat="48.67043" lon="-3.31462">
        <ele>105.8824</ele>
        <time>2026-01-29T09:14:37Z</time>
      </trkpt>
      <trkpt lat="48.67044" lon="-3.31432">
        <ele>105.69423</ele>
        <time>2026-01-29T09:14:40Z</time>
      </trkpt>
      <trkpt lat="48.67045" lon="-3.31404">
        <ele>105.49566</ele>
        <time>2026-01-29T09:14:43Z</time>
      </trkpt>
      <trkpt lat="48.67046" lon="-3.31377">
        <ele>105.30251</ele>
        <time>2026-01-29T09:14:46Z</time>
      </trkpt>
      <trkpt lat="48.67048" lon="-3.31349">
        <ele>105.1077</ele>
        <time>2026-01-29T09:14:49Z</time>
      </trkpt>
      <trkpt lat="48.67052" lon="-3.31321">
        <ele>104.90062</ele>
        <time>2026-01-29T09:14:52Z</time>
      </trkpt>
      <trkpt lat="48.6706" lon="-3.31294">
        <ele>104.6991</ele>
        <time>2026-01-29T09:14:55Z</time>
      </trkpt>
      <trkpt lat="48.6707" lon="-3.31272">
        <ele>104.5359</ele>
        <time>2026-01-29T09:14:58Z</time>
      </trkpt>
      <trkpt lat="48.67083" lon="-3.31251">
        <ele>104.437805</ele>
        <time>2026-01-29T09:15:01Z</time>
      </trkpt>
      <trkpt lat="48.67099" lon="-3.31234">
        <ele>104.38712</ele>
        <time>2026-01-29T09:15:04Z</time>
      </trkpt>
      <trkpt lat="48.67115" lon="-3.31218">
        <ele>104.3539</ele>
        <time>2026-01-29T09:15:07Z</time>
      </trkpt>
      <trkpt lat="48.67132" lon="-3.31203">
        <ele>104.31752</ele>
        <time>2026-01-29T09:15:10Z</time>
      </trkpt>
      <trkpt lat="48.67149" lon="-3.31188">
        <ele>104.27733</ele>
        <time>2026-01-29T09:15:13Z</time>
      </trkpt>
      <trkpt lat="48.67167" lon="-3.31173">
        <ele>104.22069</ele>
        <time>2026-01-29T09:15:16Z</time>
      </trkpt>
      <trkpt lat="48.67184" lon="-3.31158">
        <ele>104.13375</ele>
        <time>2026-01-29T09:15:19Z</time>
      </trkpt>
      <trkpt lat="48.67202" lon="-3.31143">
        <ele>103.99206</ele>
        <time>2026-01-29T09:15:22Z</time>
      </trkpt>
      <trkpt lat="48.67219" lon="-3.31128">
        <ele>103.793205</ele>
        <time>2026-01-29T09:15:25Z</time>
      </trkpt>
      <trkpt lat="48.67236" lon="-3.31113">
        <ele>103.5336</ele>
        <time>2026-01-29T09:15:28Z</time>
      </trkpt>
      <trkpt lat="48.67253" lon="-3.31099">
        <ele>103.24702</ele>
        <time>2026-01-29T09:15:31Z</time>
      </trkpt>
      <trkpt lat="48.67271" lon="-3.31086">
        <ele>102.95408</ele>
        <time>2026-01-29T09:15:34Z</time>
      </trkpt>
      <trkpt lat="48.67289" lon="-3.31073">
        <ele>102.66958</ele>
        <time>2026-01-29T09:15:37Z</time>
      </trkpt>
      <trkpt lat="48.67307" lon="-3.31062">
        <ele>102.398</ele>
        <time>2026-01-29T09:15:40Z</time>
      </trkpt>
      <trkpt lat="48.67325" lon="-3.31053">
        <ele>102.142265</ele>
        <time>2026-01-29T09:15:43Z</time>
      </trkpt>
      <trkpt lat="48.67348" lon="-3.31045">
        <ele>101.90855</ele>
        <time>2026-01-29T09:15:47Z</time>
      </trkpt>
      <trkpt lat="48.67371" lon="-3.31037">
        <ele>101.72296</ele>
        <time>2026-01-29T09:15:51Z</time>
      </trkpt>
      <trkpt lat="48.67392" lon="-3.31029">
        <ele>101.59237</ele>
        <time>2026-01-29T09:15:55Z</time>
      </trkpt>
      <trkpt lat="48.67414" lon="-3.3102">
        <ele>101.48954</ele>
        <time>2026-01-29T09:15:59Z</time>
      </trkpt>
      <trkpt lat="48.67435" lon="-3.31004">
        <ele>101.39874</ele>
        <time>2026-01-29T09:16:03Z</time>
      </trkpt>
      <trkpt lat="48.6745" lon="-3.30988">
        <ele>101.320984</ele>
        <time>2026-01-29T09:16:06Z</time>
      </trkpt>
      <trkpt lat="48.67463" lon="-3.30965">
        <ele>101.268074</ele>
        <time>2026-01-29T09:16:09Z</time>
      </trkpt>
      <trkpt lat="48.67473" lon="-3.30939">
        <ele>101.239426</ele>
        <time>2026-01-29T09:16:12Z</time>
      </trkpt>
      <trkpt lat="48.67482" lon="-3.30914">
        <ele>101.24255</ele>
        <time>2026-01-29T09:16:15Z</time>
      </trkpt>
      <trkpt lat="48.67492" lon="-3.30883">
        <ele>101.256676</ele>
        <time>2026-01-29T09:16:19Z</time>
      </trkpt>
      <trkpt lat="48.67505" lon="-3.30854">
        <ele>101.26431</ele>
        <time>2026-01-29T09:16:23Z</time>
      </trkpt>
      <trkpt lat="48.67522" lon="-3.30827">
        <ele>101.256195</ele>
        <time>2026-01-29T09:16:27Z</time>
      </trkpt>
      <trkpt lat="48.67537" lon="-3.30808">
        <ele>101.21118</ele>
        <time>2026-01-29T09:16:30Z</time>
      </trkpt>
      <trkpt lat="48.67552" lon="-3.30785">
        <ele>101.08075</ele>
        <time>2026-01-29T09:16:33Z</time>
      </trkpt>
      <trkpt lat="48.67563" lon="-3.30752">
        <ele>100.81844</ele>
        <time>2026-01-29T09:16:36Z</time>
      </trkpt>
      <trkpt lat="48.67568" lon="-3.30726">
        <ele>100.38221</ele>
        <time>2026-01-29T09:16:38Z</time>
      </trkpt>
      <trkpt lat="48.67573" lon="-3.30697">
        <ele>99.736404</ele>
        <time>2026-01-29T09:16:40Z</time>
      </trkpt>
      <trkpt lat="48.67577" lon="-3.30666">
        <ele>98.882034</ele>
        <time>2026-01-29T09:16:42Z</time>
      </trkpt>
      <trkpt lat="48.67581" lon="-3.30636">
        <ele>97.83931</ele>
        <time>2026-01-29T09:16:44Z</time>
      </trkpt>
      <trkpt lat="48.67584" lon="-3.30607">
        <ele>96.6408</ele>
        <time>2026-01-29T09:16:46Z</time>
      </trkpt>
      <trkpt lat="48.67588" lon="-3.30578">
        <ele>95.33824</ele>
        <time>2026-01-29T09:16:48Z</time>
      </trkpt>
      <trkpt lat="48.67592" lon="-3.3055">
        <ele>94.014786</ele>
        <time>2026-01-29T09:16:50Z</time>
      </trkpt>
      <trkpt lat="48.67597" lon="-3.3051">
        <ele>92.73686</ele>
        <time>2026-01-29T09:16:53Z</time>
      </trkpt>
      <trkpt lat="48.67603" lon="-3.30473">
        <ele>91.56718</ele>
        <time>2026-01-29T09:16:56Z</time>
      </trkpt>
      <trkpt lat="48.67608" lon="-3.30439">
        <ele>90.56399</ele>
        <time>2026-01-29T09:16:59Z</time>
      </trkpt>
      <trkpt lat="48.67614" lon="-3.30407">
        <ele>89.73</ele>
        <time>2026-01-29T09:17:02Z</time>
      </trkpt>
      <trkpt lat="48.67618" lon="-3.30376">
        <ele>89.0543</ele>
        <time>2026-01-29T09:17:05Z</time>
      </trkpt>
      <trkpt lat="48.67621" lon="-3.30347">
        <ele>88.535355</ele>
        <time>2026-01-29T09:17:08Z</time>
      </trkpt>
      <trkpt lat="48.67624" lon="-3.30318">
        <ele>88.15283</ele>
        <time>2026-01-29T09:17:11Z</time>
      </trkpt>
      <trkpt lat="48.67628" lon="-3.30284">
        <ele>87.86656</ele>
        <time>2026-01-29T09:17:15Z</time>
      </trkpt>
      <trkpt lat="48.67629" lon="-3.30261">
        <ele>87.64146</ele>
        <time>2026-01-29T09:17:19Z</time>
      </trkpt>
      <trkpt lat="48.67628" lon="-3.30237">
        <ele>87.42131</ele>
        <time>2026-01-29T09:17:23Z</time>
      </trkpt>
      <trkpt lat="48.67628" lon="-3.30204">
        <ele>87.17892</ele>
        <time>2026-01-29T09:17:27Z</time>
      </trkpt>
      <trkpt lat="48.67628" lon="-3.30168">
        <ele>86.90584</ele>
        <time>2026-01-29T09:17:31Z</time>
      </trkpt>
      <trkpt lat="48.67629" lon="-3.30134">
        <ele>86.60574</ele>
        <time>2026-01-29T09:17:35Z</time>
      </trkpt>
      <trkpt lat="48.6763" lon="-3.30099">
        <ele>86.24177</ele>
        <time>2026-01-29T09:17:39Z</time>
      </trkpt>
      <trkpt lat="48.67631" lon="-3.30067">
        <ele>85.83392</ele>
        <time>2026-01-29T09:17:43Z</time>
      </trkpt>
      <trkpt lat="48.67632" lon="-3.30046">
        <ele>85.39259</ele>
        <time>2026-01-29T09:17:46Z</time>
      </trkpt>
      <trkpt lat="48.67631" lon="-3.30017">
        <ele>84.95236</ele>
        <time>2026-01-29T09:17:50Z</time>
      </trkpt>
      <trkpt lat="48.67631" lon="-3.29983">
        <ele>84.55432</ele>
        <time>2026-01-29T09:17:54Z</time>
      </trkpt>
      <trkpt lat="48.6763" lon="-3.29948">
        <ele>84.218315</ele>
        <time>2026-01-29T09:17:58Z</time>
      </trkpt>
      <trkpt lat="48.67629" lon="-3.29916">
        <ele>83.96705</ele>
        <time>2026-01-29T09:18:02Z</time>
      </trkpt>
      <trkpt lat="48.67625" lon="-3.29893">
        <ele>83.83266</ele>
        <time>2026-01-29T09:18:05Z</time>
      </trkpt>
      <trkpt lat="48.67619" lon="-3.29862">
        <ele>83.83005</ele>
        <time>2026-01-29T09:18:09Z</time>
      </trkpt>
      <trkpt lat="48.67618" lon="-3.2984">
        <ele>83.95</ele>
        <time>2026-01-29T09:18:12Z</time>
      </trkpt>
      <trkpt lat="48.6762" lon="-3.29815">
        <ele>84.18722</ele>
        <time>2026-01-29T09:18:16Z</time>
      </trkpt>
      <trkpt lat="48.67623" lon="-3.2979">
        <ele>84.49</ele>
        <time>2026-01-29T09:18:20Z</time>
      </trkpt>
      <trkpt lat="48.67619" lon="-3.2977">
        <ele>84.82654</ele>
        <time>2026-01-29T09:18:23Z</time>
      </trkpt>
      <trkpt lat="48.67614" lon="-3.29751">
        <ele>85.16004</ele>
        <time>2026-01-29T09:18:26Z</time>
      </trkpt>
      <trkpt lat="48.67604" lon="-3.29722">
        <ele>85.432175</ele>
        <time>2026-01-29T09:18:30Z</time>
      </trkpt>
      <trkpt lat="48.67596" lon="-3.29704">
        <ele>85.60933</ele>
        <time>2026-01-29T09:18:33Z</time>
      </trkpt>
      <trkpt lat="48.67588" lon="-3.29684">
        <ele>85.707855</ele>
        <time>2026-01-29T09:18:36Z</time>
      </trkpt>
      <trkpt lat="48.67583" lon="-3.29664">
        <ele>85.69943</ele>
        <time>2026-01-29T09:18:39Z</time>
      </trkpt>
      <trkpt lat="48.67578" lon="-3.29634">
        <ele>85.61256</ele>
        <time>2026-01-29T09:18:43Z</time>
      </trkpt>
      <trkpt lat="48.67572" lon="-3.29613">
        <ele>85.48724</ele>
        <time>2026-01-29T09:18:46Z</time>
      </trkpt>
      <trkpt lat="48.67563" lon="-3.29584">
        <ele>85.31946</ele>
        <time>2026-01-29T09:18:50Z</time>
      </trkpt>
      <trkpt lat="48.67555" lon="-3.29552">
        <ele>85.14444</ele>
        <time>2026-01-29T09:18:54Z</time>
      </trkpt>
      <trkpt lat="48.67547" lon="-3.29526">
        <ele>84.984726</ele>
        <time>2026-01-29T09:18:57Z</time>
      </trkpt>
      <trkpt lat="48.67539" lon="-3.29502">
        <ele>84.79674</ele>
        <time>2026-01-29T09:19:00Z</time>
      </trkpt>
      <trkpt lat="48.67529" lon="-3.2947">
        <ele>84.55905</ele>
        <time>2026-01-29T09:19:04Z</time>
      </trkpt>
      <trkpt lat="48.67517" lon="-3.29439">
        <ele>84.2437</ele>
        <time>2026-01-29T09:19:08Z</time>
      </trkpt>
      <trkpt lat="48.67506" lon="-3.29415">
        <ele>83.80824</ele>
        <time>2026-01-29T09:19:11Z</time>
      </trkpt>
      <trkpt lat="48.67493" lon="-3.29385">
        <ele>83.25281</ele>
        <time>2026-01-29T09:19:15Z</time>
      </trkpt>
      <trkpt lat="48.67486" lon="-3.29358">
        <ele>82.602104</ele>
        <time>2026-01-29T09:19:18Z</time>
      </trkpt>
      <trkpt lat="48.67485" lon="-3.29326">
        <ele>81.82354</ele>
        <time>2026-01-29T09:19:21Z</time>
      </trkpt>
      <trkpt lat="48.67485" lon="-3.29293">
        <ele>80.908844</ele>
        <time>2026-01-29T09:19:24Z</time>
      </trkpt>
      <trkpt lat="48.67486" lon="-3.2926">
        <ele>79.89824</ele>
        <time>2026-01-29T09:19:27Z</time>
      </trkpt>
      <trkpt lat="48.6748" lon="-3.29229">
        <ele>78.812744</ele>
        <time>2026-01-29T09:19:30Z</time>
      </trkpt>
      <trkpt lat="48.67462" lon="-3.29203">
        <ele>77.680504</ele>
        <time>2026-01-29T09:19:33Z</time>
      </trkpt>
      <trkpt lat="48.6744" lon="-3.29188">
        <ele>76.52947</ele>
        <time>2026-01-29T09:19:36Z</time>
      </trkpt>
      <trkpt lat="48.67417" lon="-3.29172">
        <ele>75.36313</ele>
        <time>2026-01-29T09:19:39Z</time>
      </trkpt>
      <trkpt lat="48.67399" lon="-3.29153">
        <ele>74.20992</ele>
        <time>2026-01-29T09:19:42Z</time>
      </trkpt>
      <trkpt lat="48.67385" lon="-3.29131">
        <ele>73.12195</ele>
        <time>2026-01-29T09:19:45Z</time>
      </trkpt>
      <trkpt lat="48.67373" lon="-3.29108">
        <ele>72.14564</ele>
        <time>2026-01-29T09:19:48Z</time>
      </trkpt>
      <trkpt lat="48.6736" lon="-3.29084">
        <ele>71.306496</ele>
        <time>2026-01-29T09:19:51Z</time>
      </trkpt>
      <trkpt lat="48.67347" lon="-3.29058">
        <ele>70.63121</ele>
        <time>2026-01-29T09:19:54Z</time>
      </trkpt>
      <trkpt lat="48.67333" lon="-3.29033">
        <ele>70.11403</ele>
        <time>2026-01-29T09:19:57Z</time>
      </trkpt>
      <trkpt lat="48.67318" lon="-3.29011">
        <ele>69.71973</ele>
        <time>2026-01-29T09:20:00Z</time>
      </trkpt>
      <trkpt lat="48.67302" lon="-3.2899">
        <ele>69.396774</ele>
        <time>2026-01-29T09:20:03Z</time>
      </trkpt>
      <trkpt lat="48.67286" lon="-3.28968">
        <ele>69.15097</ele>
        <time>2026-01-29T09:20:06Z</time>
      </trkpt>
      <trkpt lat="48.6727" lon="-3.28946">
        <ele>68.88585</ele>
        <time>2026-01-29T09:20:10Z</time>
      </trkpt>
      <trkpt lat="48.67254" lon="-3.28931">
        <ele>68.572365</ele>
        <time>2026-01-29T09:20:13Z</time>
      </trkpt>
      <trkpt lat="48.67237" lon="-3.28915">
        <ele>68.20194</ele>
        <time>2026-01-29T09:20:16Z</time>
      </trkpt>
      <trkpt lat="48.6722" lon="-3.28898">
        <ele>67.75358</ele>
        <time>2026-01-29T09:20:19Z</time>
      </trkpt>
      <trkpt lat="48.67202" lon="-3.28884">
        <ele>67.2774</ele>
        <time>2026-01-29T09:20:22Z</time>
      </trkpt>
      <trkpt lat="48.67185" lon="-3.28872">
        <ele>66.81292</ele>
        <time>2026-01-29T09:20:25Z</time>
      </trkpt>
      <trkpt lat="48.67166" lon="-3.28861">
        <ele>66.36716</ele>
        <time>2026-01-29T09:20:28Z</time>
      </trkpt>
      <trkpt lat="48.6715" lon="-3.28857">
        <ele>65.962746</ele>
        <time>2026-01-29T09:20:31Z</time>
      </trkpt>
      <trkpt lat="48.67134" lon="-3.28862">
        <ele>65.66727</ele>
        <time>2026-01-29T09:20:35Z</time>
      </trkpt>
      <trkpt lat="48.67122" lon="-3.28874">
        <ele>65.480835</ele>
        <time>2026-01-29T09:20:39Z</time>
      </trkpt>
      <trkpt lat="48.67107" lon="-3.28863">
        <ele>65.40703</ele>
        <time>2026-01-29T09:20:44Z</time>
      </trkpt>
      <trkpt lat="48.67098" lon="-3.28847">
        <ele>65.41066</ele>
        <time>2026-01-29T09:20:47Z</time>
      </trkpt>
      <trkpt lat="48.67086" lon="-3.28829">
        <ele>65.45984</ele>
        <time>2026-01-29T09:20:51Z</time>
      </trkpt>
      <trkpt lat="48.67072" lon="-3.28809">
        <ele>65.5544</ele>
        <time>2026-01-29T09:20:55Z</time>
      </trkpt>
      <trkpt lat="48.6706" lon="-3.28787">
        <ele>65.673355</ele>
        <time>2026-01-29T09:20:58Z</time>
      </trkpt>
      <trkpt lat="48.67047" lon="-3.28759">
        <ele>65.73641</ele>
        <time>2026-01-29T09:21:01Z</time>
      </trkpt>
      <trkpt lat="48.67035" lon="-3.28732">
        <ele>65.7332</ele>
        <time>2026-01-29T09:21:04Z</time>
      </trkpt>
      <trkpt lat="48.67026" lon="-3.28714">
        <ele>65.64337</ele>
        <time>2026-01-29T09:21:07Z</time>
      </trkpt>
      <trkpt lat="48.67015" lon="-3.28694">
        <ele>65.46064</ele>
        <time>2026-01-29T09:21:11Z</time>
      </trkpt>
      <trkpt lat="48.67006" lon="-3.28677">
        <ele>65.254486</ele>
        <time>2026-01-29T09:21:15Z</time>
      </trkpt>
      <trkpt lat="48.66995" lon="-3.28658">
        <ele>65.01487</ele>
        <time>2026-01-29T09:21:19Z</time>
      </trkpt>
      <trkpt lat="48.66982" lon="-3.28629">
        <ele>64.760704</ele>
        <time>2026-01-29T09:21:23Z</time>
      </trkpt>
      <trkpt lat="48.66971" lon="-3.28606">
        <ele>64.5786</ele>
        <time>2026-01-29T09:21:26Z</time>
      </trkpt>
      <trkpt lat="48.66959" lon="-3.28585">
        <ele>64.50984</ele>
        <time>2026-01-29T09:21:29Z</time>
      </trkpt>
      <trkpt lat="48.66943" lon="-3.2856">
        <ele>64.57167</ele>
        <time>2026-01-29T09:21:33Z</time>
      </trkpt>
      <trkpt lat="48.66929" lon="-3.28543">
        <ele>64.78241</ele>
        <time>2026-01-29T09:21:36Z</time>
      </trkpt>
      <trkpt lat="48.66911" lon="-3.28524">
        <ele>65.09398</ele>
        <time>2026-01-29T09:21:40Z</time>
      </trkpt>
      <trkpt lat="48.66897" lon="-3.28513">
        <ele>65.420555</ele>
        <time>2026-01-29T09:21:43Z</time>
      </trkpt>
      <trkpt lat="48.66881" lon="-3.28502">
        <ele>65.779015</ele>
        <time>2026-01-29T09:21:47Z</time>
      </trkpt>
      <trkpt lat="48.66865" lon="-3.28491">
        <ele>66.12798</ele>
        <time>2026-01-29T09:21:51Z</time>
      </trkpt>
      <trkpt lat="48.66853" lon="-3.28479">
        <ele>66.45417</ele>
        <time>2026-01-29T09:21:55Z</time>
      </trkpt>
      <trkpt lat="48.66839" lon="-3.28467">
        <ele>66.75102</ele>
        <time>2026-01-29T09:21:59Z</time>
      </trkpt>
      <trkpt lat="48.66827" lon="-3.28454">
        <ele>67.02443</ele>
        <time>2026-01-29T09:22:03Z</time>
      </trkpt>
      <trkpt lat="48.66815" lon="-3.2844">
        <ele>67.29881</ele>
        <time>2026-01-29T09:22:07Z</time>
      </trkpt>
      <trkpt lat="48.66802" lon="-3.28425">
        <ele>67.63501</ele>
        <time>2026-01-29T09:22:11Z</time>
      </trkpt>
      <trkpt lat="48.66791" lon="-3.28411">
        <ele>68.08049</ele>
        <time>2026-01-29T09:22:15Z</time>
      </trkpt>
      <trkpt lat="48.6678" lon="-3.28396">
        <ele>68.653305</ele>
        <time>2026-01-29T09:22:19Z</time>
      </trkpt>
      <trkpt lat="48.66768" lon="-3.28381">
        <ele>69.30058</ele>
        <time>2026-01-29T09:22:23Z</time>
      </trkpt>
      <trkpt lat="48.66755" lon="-3.28365">
        <ele>69.97327</ele>
        <time>2026-01-29T09:22:27Z</time>
      </trkpt>
      <trkpt lat="48.6674" lon="-3.28352">
        <ele>70.652504</ele>
        <time>2026-01-29T09:22:31Z</time>
      </trkpt>
      <trkpt lat="48.66724" lon="-3.28345">
        <ele>71.29195</ele>
        <time>2026-01-29T09:22:35Z</time>
      </trkpt>
      <trkpt lat="48.66708" lon="-3.28339">
        <ele>71.89649</ele>
        <time>2026-01-29T09:22:39Z</time>
      </trkpt>
      <trkpt lat="48.66696" lon="-3.28332">
        <ele>72.457054</ele>
        <time>2026-01-29T09:22:42Z</time>
      </trkpt>
      <trkpt lat="48.66683" lon="-3.28326">
        <ele>72.94827</ele>
        <time>2026-01-29T09:22:45Z</time>
      </trkpt>
      <trkpt lat="48.66669" lon="-3.28319">
        <ele>73.36489</ele>
        <time>2026-01-29T09:22:48Z</time>
      </trkpt>
      <trkpt lat="48.66655" lon="-3.28312">
        <ele>73.77325</ele>
        <time>2026-01-29T09:22:51Z</time>
      </trkpt>
      <trkpt lat="48.66642" lon="-3.28305">
        <ele>74.17938</ele>
        <time>2026-01-29T09:22:54Z</time>
      </trkpt>
      <trkpt lat="48.66625" lon="-3.28296">
        <ele>74.613174</ele>
        <time>2026-01-29T09:22:58Z</time>
      </trkpt>
      <trkpt lat="48.66611" lon="-3.28288">
        <ele>75.07489</ele>
        <time>2026-01-29T09:23:01Z</time>
      </trkpt>
      <trkpt lat="48.66598" lon="-3.28281">
        <ele>75.53342</ele>
        <time>2026-01-29T09:23:04Z</time>
      </trkpt>
      <trkpt lat="48.6658" lon="-3.28278">
        <ele>75.971054</ele>
        <time>2026-01-29T09:23:08Z</time>
      </trkpt>
      <trkpt lat="48.66567" lon="-3.28267">
        <ele>76.40335</ele>
        <time>2026-01-29T09:23:12Z</time>
      </trkpt>
      <trkpt lat="48.66552" lon="-3.28259">
        <ele>76.83203</ele>
        <time>2026-01-29T09:23:16Z</time>
      </trkpt>
      <trkpt lat="48.66539" lon="-3.28251">
        <ele>77.2786</ele>
        <time>2026-01-29T09:23:19Z</time>
      </trkpt>
      <trkpt lat="48.6652" lon="-3.2824">
        <ele>77.74744</ele>
        <time>2026-01-29T09:23:23Z</time>
      </trkpt>
      <trkpt lat="48.66502" lon="-3.28224">
        <ele>78.2487</ele>
        <time>2026-01-29T09:23:27Z</time>
      </trkpt>
      <trkpt lat="48.66482" lon="-3.2821">
        <ele>78.78821</ele>
        <time>2026-01-29T09:23:31Z</time>
      </trkpt>
      <trkpt lat="48.66462" lon="-3.28194">
        <ele>79.38814</ele>
        <time>2026-01-29T09:23:35Z</time>
      </trkpt>
      <trkpt lat="48.66446" lon="-3.28177">
        <ele>80.06274</ele>
        <time>2026-01-29T09:23:39Z</time>
      </trkpt>
      <trkpt lat="48.66433" lon="-3.28151">
        <ele>80.81537</ele>
        <time>2026-01-29T09:23:43Z</time>
      </trkpt>
      <trkpt lat="48.66426" lon="-3.2813">
        <ele>81.59041</ele>
        <time>2026-01-29T09:23:46Z</time>
      </trkpt>
      <trkpt lat="48.6642" lon="-3.28109">
        <ele>82.35428</ele>
        <time>2026-01-29T09:23:49Z</time>
      </trkpt>
      <trkpt lat="48.66409" lon="-3.28083">
        <ele>83.095406</ele>
        <time>2026-01-29T09:23:53Z</time>
      </trkpt>
      <trkpt lat="48.66393" lon="-3.28061">
        <ele>83.79083</ele>
        <time>2026-01-29T09:23:57Z</time>
      </trkpt>
      <trkpt lat="48.66375" lon="-3.28043">
        <ele>84.44975</ele>
        <time>2026-01-29T09:24:01Z</time>
      </trkpt>
      <trkpt lat="48.66356" lon="-3.28027">
        <ele>85.03359</ele>
        <time>2026-01-29T09:24:05Z</time>
      </trkpt>
      <trkpt lat="48.66337" lon="-3.28014">
        <ele>85.48098</ele>
        <time>2026-01-29T09:24:09Z</time>
      </trkpt>
      <trkpt lat="48.66317" lon="-3.28001">
        <ele>85.80389</ele>
        <time>2026-01-29T09:24:13Z</time>
      </trkpt>
      <trkpt lat="48.66297" lon="-3.27989">
        <ele>86.045845</ele>
        <time>2026-01-29T09:24:17Z</time>
      </trkpt>
      <trkpt lat="48.66284" lon="-3.27978">
        <ele>86.219536</ele>
        <time>2026-01-29T09:24:20Z</time>
      </trkpt>
      <trkpt lat="48.66266" lon="-3.27963">
        <ele>86.37802</ele>
        <time>2026-01-29T09:24:24Z</time>
      </trkpt>
      <trkpt lat="48.66254" lon="-3.27952">
        <ele>86.52445</ele>
        <time>2026-01-29T09:24:27Z</time>
      </trkpt>
      <trkpt lat="48.66242" lon="-3.2794">
        <ele>86.67668</ele>
        <time>2026-01-29T09:24:30Z</time>
      </trkpt>
      <trkpt lat="48.66231" lon="-3.2793">
        <ele>86.88236</ele>
        <time>2026-01-29T09:24:33Z</time>
      </trkpt>
      <trkpt lat="48.66218" lon="-3.27919">
        <ele>87.18756</ele>
        <time>2026-01-29T09:24:36Z</time>
      </trkpt>
      <trkpt lat="48.66207" lon="-3.27907">
        <ele>87.5795</ele>
        <time>2026-01-29T09:24:39Z</time>
      </trkpt>
      <trkpt lat="48.66194" lon="-3.27895">
        <ele>88.039375</ele>
        <time>2026-01-29T09:24:42Z</time>
      </trkpt>
      <trkpt lat="48.66176" lon="-3.27877">
        <ele>88.506004</ele>
        <time>2026-01-29T09:24:46Z</time>
      </trkpt>
      <trkpt lat="48.66158" lon="-3.27861">
        <ele>88.942215</ele>
        <time>2026-01-29T09:24:50Z</time>
      </trkpt>
      <trkpt lat="48.6614" lon="-3.27843">
        <ele>89.32716</ele>
        <time>2026-01-29T09:24:54Z</time>
      </trkpt>
      <trkpt lat="48.66122" lon="-3.27824">
        <ele>89.67354</ele>
        <time>2026-01-29T09:24:58Z</time>
      </trkpt>
      <trkpt lat="48.66104" lon="-3.27806">
        <ele>89.97892</ele>
        <time>2026-01-29T09:25:02Z</time>
      </trkpt>
      <trkpt lat="48.66092" lon="-3.27796">
        <ele>90.24949</ele>
        <time>2026-01-29T09:25:05Z</time>
      </trkpt>
      <trkpt lat="48.66077" lon="-3.27778">
        <ele>90.49073</ele>
        <time>2026-01-29T09:25:09Z</time>
      </trkpt>
      <trkpt lat="48.66063" lon="-3.27754">
        <ele>90.7226</ele>
        <time>2026-01-29T09:25:13Z</time>
      </trkpt>
      <trkpt lat="48.66048" lon="-3.2773">
        <ele>90.96262</ele>
        <time>2026-01-29T09:25:17Z</time>
      </trkpt>
      <trkpt lat="48.6604" lon="-3.27712">
        <ele>91.23305</ele>
        <time>2026-01-29T09:25:20Z</time>
      </trkpt>
      <trkpt lat="48.66028" lon="-3.27685">
        <ele>91.533264</ele>
        <time>2026-01-29T09:25:24Z</time>
      </trkpt>
      <trkpt lat="48.66016" lon="-3.27656">
        <ele>91.82767</ele>
        <time>2026-01-29T09:25:28Z</time>
      </trkpt>
      <trkpt lat="48.66007" lon="-3.27627">
        <ele>92.107895</ele>
        <time>2026-01-29T09:25:32Z</time>
      </trkpt>
      <trkpt lat="48.65999" lon="-3.27594">
        <ele>92.37463</ele>
        <time>2026-01-29T09:25:36Z</time>
      </trkpt>
      <trkpt lat="48.65991" lon="-3.27562">
        <ele>92.6362</ele>
        <time>2026-01-29T09:25:40Z</time>
      </trkpt>
      <trkpt lat="48.65982" lon="-3.27532">
        <ele>92.89043</ele>
        <time>2026-01-29T09:25:44Z</time>
      </trkpt>
      <trkpt lat="48.6597" lon="-3.27506">
        <ele>93.16363</ele>
        <time>2026-01-29T09:25:48Z</time>
      </trkpt>
      <trkpt lat="48.6596" lon="-3.27489">
        <ele>93.4458</ele>
        <time>2026-01-29T09:25:51Z</time>
      </trkpt>
      <trkpt lat="48.65945" lon="-3.27471">
        <ele>93.7373</ele>
        <time>2026-01-29T09:25:55Z</time>
      </trkpt>
      <trkpt lat="48.65934" lon="-3.27457">
        <ele>94.03113</ele>
        <time>2026-01-29T09:25:58Z</time>
      </trkpt>
      <trkpt lat="48.65922" lon="-3.27439">
        <ele>94.33423</ele>
        <time>2026-01-29T09:26:02Z</time>
      </trkpt>
      <trkpt lat="48.65911" lon="-3.27419">
        <ele>94.6432</ele>
        <time>2026-01-29T09:26:06Z</time>
      </trkpt>
      <trkpt lat="48.65903" lon="-3.27402">
        <ele>94.972725</ele>
        <time>2026-01-29T09:26:09Z</time>
      </trkpt>
      <trkpt lat="48.65897" lon="-3.27383">
        <ele>95.33299</ele>
        <time>2026-01-29T09:26:12Z</time>
      </trkpt>
      <trkpt lat="48.6589" lon="-3.27364">
        <ele>95.72346</ele>
        <time>2026-01-29T09:26:15Z</time>
      </trkpt>
      <trkpt lat="48.65883" lon="-3.27346">
        <ele>96.147095</ele>
        <time>2026-01-29T09:26:18Z</time>
      </trkpt>
      <trkpt lat="48.65877" lon="-3.27326">
        <ele>96.59897</ele>
        <time>2026-01-29T09:26:21Z</time>
      </trkpt>
      <trkpt lat="48.6587" lon="-3.27308">
        <ele>97.04928</ele>
        <time>2026-01-29T09:26:24Z</time>
      </trkpt>
      <trkpt lat="48.65863" lon="-3.27289">
        <ele>97.47518</ele>
        <time>2026-01-29T09:26:27Z</time>
      </trkpt>
      <trkpt lat="48.65856" lon="-3.27272">
        <ele>97.85388</ele>
        <time>2026-01-29T09:26:30Z</time>
      </trkpt>
      <trkpt lat="48.65847" lon="-3.27253">
        <ele>98.13059</ele>
        <time>2026-01-29T09:26:33Z</time>
      </trkpt>
      <trkpt lat="48.65835" lon="-3.27234">
        <ele>98.285225</ele>
        <time>2026-01-29T09:26:37Z</time>
      </trkpt>
      <trkpt lat="48.6582" lon="-3.2722">
        <ele>98.33398</ele>
        <time>2026-01-29T09:26:41Z</time>
      </trkpt>
      <trkpt lat="48.65808" lon="-3.27211">
        <ele>98.30487</ele>
        <time>2026-01-29T09:26:44Z</time>
      </trkpt>
      <trkpt lat="48.65795" lon="-3.27203">
        <ele>98.24849</ele>
        <time>2026-01-29T09:26:47Z</time>
      </trkpt>
      <trkpt lat="48.65782" lon="-3.27196">
        <ele>98.237</ele>
        <time>2026-01-29T09:26:50Z</time>
      </trkpt>
      <trkpt lat="48.65769" lon="-3.27188">
        <ele>98.29546</ele>
        <time>2026-01-29T09:26:53Z</time>
      </trkpt>
      <trkpt lat="48.65755" lon="-3.2718">
        <ele>98.43206</ele>
        <time>2026-01-29T09:26:56Z</time>
      </trkpt>
      <trkpt lat="48.6574" lon="-3.27162">
        <ele>98.671524</ele>
        <time>2026-01-29T09:27:00Z</time>
      </trkpt>
      <trkpt lat="48.65734" lon="-3.27143">
        <ele>99.017494</ele>
        <time>2026-01-29T09:27:03Z</time>
      </trkpt>
      <trkpt lat="48.65731" lon="-3.27122">
        <ele>99.438484</ele>
        <time>2026-01-29T09:27:06Z</time>
      </trkpt>
      <trkpt lat="48.65728" lon="-3.27102">
        <ele>99.8851</ele>
        <time>2026-01-29T09:27:09Z</time>
      </trkpt>
      <trkpt lat="48.65726" lon="-3.2708">
        <ele>100.30115</ele>
        <time>2026-01-29T09:27:12Z</time>
      </trkpt>
      <trkpt lat="48.65723" lon="-3.27053">
        <ele>100.66593</ele>
        <time>2026-01-29T09:27:16Z</time>
      </trkpt>
      <trkpt lat="48.6572" lon="-3.27026">
        <ele>100.98407</ele>
        <time>2026-01-29T09:27:20Z</time>
      </trkpt>
      <trkpt lat="48.65718" lon="-3.27005">
        <ele>101.29221</ele>
        <time>2026-01-29T09:27:23Z</time>
      </trkpt>
      <trkpt lat="48.65716" lon="-3.26984">
        <ele>101.56507</ele>
        <time>2026-01-29T09:27:26Z</time>
      </trkpt>
      <trkpt lat="48.65714" lon="-3.26963">
        <ele>101.80268</ele>
        <time>2026-01-29T09:27:29Z</time>
      </trkpt>
      <trkpt lat="48.65712" lon="-3.26941">
        <ele>102.02341</ele>
        <time>2026-01-29T09:27:32Z</time>
      </trkpt>
      <trkpt lat="48.6571" lon="-3.2692">
        <ele>102.25223</ele>
        <time>2026-01-29T09:27:35Z</time>
      </trkpt>
      <trkpt lat="48.6571" lon="-3.26899">
        <ele>102.50022</ele>
        <time>2026-01-29T09:27:38Z</time>
      </trkpt>
      <trkpt lat="48.6571" lon="-3.26877">
        <ele>102.77049</ele>
        <time>2026-01-29T09:27:41Z</time>
      </trkpt>
      <trkpt lat="48.65708" lon="-3.26856">
        <ele>103.01809</ele>
        <time>2026-01-29T09:27:44Z</time>
      </trkpt>
      <trkpt lat="48.65705" lon="-3.26835">
        <ele>103.22595</ele>
        <time>2026-01-29T09:27:47Z</time>
      </trkpt>
      <trkpt lat="48.65701" lon="-3.26813">
        <ele>103.411</ele>
        <time>2026-01-29T09:27:50Z</time>
      </trkpt>
      <trkpt lat="48.65699" lon="-3.26791">
        <ele>103.58347</ele>
        <time>2026-01-29T09:27:53Z</time>
      </trkpt>
      <trkpt lat="48.65696" lon="-3.26769">
        <ele>103.76078</ele>
        <time>2026-01-29T09:27:56Z</time>
      </trkpt>
      <trkpt lat="48.65694" lon="-3.26747">
        <ele>103.93756</ele>
        <time>2026-01-29T09:27:59Z</time>
      </trkpt>
      <trkpt lat="48.65689" lon="-3.26718">
        <ele>104.1002</ele>
        <time>2026-01-29T09:28:03Z</time>
      </trkpt>
      <trkpt lat="48.65682" lon="-3.26687">
        <ele>104.22653</ele>
        <time>2026-01-29T09:28:07Z</time>
      </trkpt>
      <trkpt lat="48.65672" lon="-3.2666">
        <ele>104.35199</ele>
        <time>2026-01-29T09:28:11Z</time>
      </trkpt>
      <trkpt lat="48.6566" lon="-3.26634">
        <ele>104.47888</ele>
        <time>2026-01-29T09:28:15Z</time>
      </trkpt>
      <trkpt lat="48.6565" lon="-3.26608">
        <ele>104.60554</ele>
        <time>2026-01-29T09:28:19Z</time>
      </trkpt>
      <trkpt lat="48.65643" lon="-3.26588">
        <ele>104.7139</ele>
        <time>2026-01-29T09:28:22Z</time>
      </trkpt>
      <trkpt lat="48.65633" lon="-3.2656">
        <ele>104.79158</ele>
        <time>2026-01-29T09:28:26Z</time>
      </trkpt>
      <trkpt lat="48.65622" lon="-3.26532">
        <ele>104.83287</ele>
        <time>2026-01-29T09:28:30Z</time>
      </trkpt>
      <trkpt lat="48.6561" lon="-3.26505">
        <ele>104.860855</ele>
        <time>2026-01-29T09:28:34Z</time>
      </trkpt>
      <trkpt lat="48.65598" lon="-3.26479">
        <ele>104.883995</ele>
        <time>2026-01-29T09:28:38Z</time>
      </trkpt>
      <trkpt lat="48.65586" lon="-3.26452">
        <ele>104.89326</ele>
        <time>2026-01-29T09:28:42Z</time>
      </trkpt>
      <trkpt lat="48.65573" lon="-3.26428">
        <ele>104.901955</ele>
        <time>2026-01-29T09:28:46Z</time>
      </trkpt>
      <trkpt lat="48.65555" lon="-3.26406">
        <ele>104.9113</ele>
        <time>2026-01-29T09:28:50Z</time>
      </trkpt>
      <trkpt lat="48.6554" lon="-3.2639">
        <ele>104.90717</ele>
        <time>2026-01-29T09:28:53Z</time>
      </trkpt>
      <trkpt lat="48.65525" lon="-3.26374">
        <ele>104.88509</ele>
        <time>2026-01-29T09:28:56Z</time>
      </trkpt>
      <trkpt lat="48.65508" lon="-3.2635">
        <ele>104.83095</ele>
        <time>2026-01-29T09:29:00Z</time>
      </trkpt>
      <trkpt lat="48.65498" lon="-3.26334">
        <ele>104.79209</ele>
        <time>2026-01-29T09:29:03Z</time>
      </trkpt>
      <trkpt lat="48.65483" lon="-3.26312">
        <ele>104.81394</ele>
        <time>2026-01-29T09:29:07Z</time>
      </trkpt>
      <trkpt lat="48.65469" lon="-3.26292">
        <ele>104.89202</ele>
        <time>2026-01-29T09:29:10Z</time>
      </trkpt>
      <trkpt lat="48.65455" lon="-3.26268">
        <ele>104.99542</ele>
        <time>2026-01-29T09:29:13Z</time>
      </trkpt>
      <trkpt lat="48.65441" lon="-3.26249">
        <ele>105.14487</ele>
        <time>2026-01-29T09:29:16Z</time>
      </trkpt>
      <trkpt lat="48.65426" lon="-3.2623">
        <ele>105.35767</ele>
        <time>2026-01-29T09:29:19Z</time>
      </trkpt>
      <trkpt lat="48.6541" lon="-3.26214">
        <ele>105.65839</ele>
        <time>2026-01-29T09:29:22Z</time>
      </trkpt>
      <trkpt lat="48.65394" lon="-3.26198">
        <ele>105.985535</ele>
        <time>2026-01-29T09:29:25Z</time>
      </trkpt>
      <trkpt lat="48.65377" lon="-3.26182">
        <ele>106.22434</ele>
        <time>2026-01-29T09:29:28Z</time>
      </trkpt>
      <trkpt lat="48.65361" lon="-3.26167">
        <ele>106.32096</ele>
        <time>2026-01-29T09:29:31Z</time>
      </trkpt>
      <trkpt lat="48.65341" lon="-3.26147">
        <ele>106.28419</ele>
        <time>2026-01-29T09:29:35Z</time>
      </trkpt>
      <trkpt lat="48.65326" lon="-3.2613">
        <ele>106.11722</ele>
        <time>2026-01-29T09:29:38Z</time>
      </trkpt>
      <trkpt lat="48.65311" lon="-3.26114">
        <ele>105.809746</ele>
        <time>2026-01-29T09:29:41Z</time>
      </trkpt>
      <trkpt lat="48.65296" lon="-3.26098">
        <ele>105.362206</ele>
        <time>2026-01-29T09:29:44Z</time>
      </trkpt>
      <trkpt lat="48.65281" lon="-3.26083">
        <ele>104.781204</ele>
        <time>2026-01-29T09:29:47Z</time>
      </trkpt>
      <trkpt lat="48.65262" lon="-3.26062">
        <ele>104.18123</ele>
        <time>2026-01-29T09:29:51Z</time>
      </trkpt>
      <trkpt lat="48.65242" lon="-3.26041">
        <ele>103.6222</ele>
        <time>2026-01-29T09:29:55Z</time>
      </trkpt>
      <trkpt lat="48.65223" lon="-3.26021">
        <ele>103.12774</ele>
        <time>2026-01-29T09:29:59Z</time>
      </trkpt>
      <trkpt lat="48.65205" lon="-3.26001">
        <ele>102.690216</ele>
        <time>2026-01-29T09:30:03Z</time>
      </trkpt>
      <trkpt lat="48.65186" lon="-3.25983">
        <ele>102.31976</ele>
        <time>2026-01-29T09:30:07Z</time>
      </trkpt>
      <trkpt lat="48.65167" lon="-3.25966">
        <ele>102.01576</ele>
        <time>2026-01-29T09:30:11Z</time>
      </trkpt>
      <trkpt lat="48.65149" lon="-3.25949">
        <ele>101.78064</ele>
        <time>2026-01-29T09:30:15Z</time>
      </trkpt>
      <trkpt lat="48.65136" lon="-3.25933">
        <ele>101.56436</ele>
        <time>2026-01-29T09:30:19Z</time>
      </trkpt>
      <trkpt lat="48.65137" lon="-3.259">
        <ele>101.358826</ele>
        <time>2026-01-29T09:30:24Z</time>
      </trkpt>
      <trkpt lat="48.65141" lon="-3.25869">
        <ele>101.16953</ele>
        <time>2026-01-29T09:30:28Z</time>
      </trkpt>
      <trkpt lat="48.6514" lon="-3.25837">
        <ele>100.97766</ele>
        <time>2026-01-29T09:30:32Z</time>
      </trkpt>
      <trkpt lat="48.65138" lon="-3.25802">
        <ele>100.79273</ele>
        <time>2026-01-29T09:30:36Z</time>
      </trkpt>
      <trkpt lat="48.65137" lon="-3.25768">
        <ele>100.628845</ele>
        <time>2026-01-29T09:30:40Z</time>
      </trkpt>
      <trkpt lat="48.65136" lon="-3.25734">
        <ele>100.46706</ele>
        <time>2026-01-29T09:30:44Z</time>
      </trkpt>
      <trkpt lat="48.65133" lon="-3.25701">
        <ele>100.326965</ele>
        <time>2026-01-29T09:30:48Z</time>
      </trkpt>
      <trkpt lat="48.65124" lon="-3.25669">
        <ele>100.20446</ele>
        <time>2026-01-29T09:30:52Z</time>
      </trkpt>
      <trkpt lat="48.65115" lon="-3.25636">
        <ele>100.07627</ele>
        <time>2026-01-29T09:30:56Z</time>
      </trkpt>
      <trkpt lat="48.6511" lon="-3.25609">
        <ele>99.965614</ele>
        <time>2026-01-29T09:30:59Z</time>
      </trkpt>
      <trkpt lat="48.65107" lon="-3.25577">
        <ele>99.88394</ele>
        <time>2026-01-29T09:31:03Z</time>
      </trkpt>
      <trkpt lat="48.65104" lon="-3.25546">
        <ele>99.80958</ele>
        <time>2026-01-29T09:31:07Z</time>
      </trkpt>
      <trkpt lat="48.65101" lon="-3.25514">
        <ele>99.7362</ele>
        <time>2026-01-29T09:31:11Z</time>
      </trkpt>
      <trkpt lat="48.651" lon="-3.25481">
        <ele>99.66438</ele>
        <time>2026-01-29T09:31:15Z</time>
      </trkpt>
      <trkpt lat="48.65098" lon="-3.2545">
        <ele>99.58531</ele>
        <time>2026-01-29T09:31:19Z</time>
      </trkpt>
      <trkpt lat="48.65098" lon="-3.25428">
        <ele>99.52159</ele>
        <time>2026-01-29T09:31:23Z</time>
      </trkpt>
      <trkpt lat="48.65092" lon="-3.25407">
        <ele>99.47448</ele>
        <time>2026-01-29T09:31:28Z</time>
      </trkpt>
      <trkpt lat="48.65092" lon="-3.25383">
        <ele>99.421295</ele>
        <time>2026-01-29T09:31:33Z</time>
      </trkpt>
      <trkpt lat="48.65099" lon="-3.25366">
        <ele>99.37676</ele>
        <time>2026-01-29T09:31:36Z</time>
      </trkpt>
      <trkpt lat="48.65106" lon="-3.25338">
        <ele>99.34944</ele>
        <time>2026-01-29T09:31:40Z</time>
      </trkpt>
      <trkpt lat="48.65112" lon="-3.25304">
        <ele>99.31486</ele>
        <time>2026-01-29T09:31:44Z</time>
      </trkpt>
      <trkpt lat="48.65118" lon="-3.25275">
        <ele>99.27244</ele>
        <time>2026-01-29T09:31:47Z</time>
      </trkpt>
      <trkpt lat="48.65123" lon="-3.25241">
        <ele>99.18829</ele>
        <time>2026-01-29T09:31:50Z</time>
      </trkpt>
      <trkpt lat="48.65128" lon="-3.25207">
        <ele>99.03829</ele>
        <time>2026-01-29T09:31:53Z</time>
      </trkpt>
      <trkpt lat="48.65134" lon="-3.25171">
        <ele>98.813324</ele>
        <time>2026-01-29T09:31:56Z</time>
      </trkpt>
      <trkpt lat="48.65142" lon="-3.25139">
        <ele>98.49821</ele>
        <time>2026-01-29T09:31:59Z</time>
      </trkpt>
      <trkpt lat="48.65155" lon="-3.25111">
        <ele>98.07652</ele>
        <time>2026-01-29T09:32:02Z</time>
      </trkpt>
      <trkpt lat="48.65173" lon="-3.25097">
        <ele>97.58338</ele>
        <time>2026-01-29T09:32:05Z</time>
      </trkpt>
      <trkpt lat="48.65191" lon="-3.25092">
        <ele>97.03502</ele>
        <time>2026-01-29T09:32:08Z</time>
      </trkpt>
      <trkpt lat="48.65212" lon="-3.25096">
        <ele>96.45185</ele>
        <time>2026-01-29T09:32:11Z</time>
      </trkpt>
      <trkpt lat="48.65233" lon="-3.25101">
        <ele>95.875244</ele>
        <time>2026-01-29T09:32:14Z</time>
      </trkpt>
      <trkpt lat="48.65252" lon="-3.25107">
        <ele>95.32903</ele>
        <time>2026-01-29T09:32:17Z</time>
      </trkpt>
      <trkpt lat="48.65274" lon="-3.25115">
        <ele>94.839134</ele>
        <time>2026-01-29T09:32:21Z</time>
      </trkpt>
      <trkpt lat="48.65298" lon="-3.25122">
        <ele>94.4087</ele>
        <time>2026-01-29T09:32:25Z</time>
      </trkpt>
      <trkpt lat="48.65317" lon="-3.25129">
        <ele>94.01449</ele>
        <time>2026-01-29T09:32:28Z</time>
      </trkpt>
      <trkpt lat="48.65336" lon="-3.25135">
        <ele>93.60426</ele>
        <time>2026-01-29T09:32:31Z</time>
      </trkpt>
      <trkpt lat="48.65355" lon="-3.2514">
        <ele>93.2034</ele>
        <time>2026-01-29T09:32:34Z</time>
      </trkpt>
      <trkpt lat="48.65373" lon="-3.25146">
        <ele>92.783806</ele>
        <time>2026-01-29T09:32:37Z</time>
      </trkpt>
      <trkpt lat="48.65392" lon="-3.25142">
        <ele>92.31726</ele>
        <time>2026-01-29T09:32:40Z</time>
      </trkpt>
      <trkpt lat="48.6541" lon="-3.25124">
        <ele>91.76164</ele>
        <time>2026-01-29T09:32:43Z</time>
      </trkpt>
      <trkpt lat="48.65424" lon="-3.25097">
        <ele>91.11332</ele>
        <time>2026-01-29T09:32:46Z</time>
      </trkpt>
      <trkpt lat="48.65442" lon="-3.25069">
        <ele>90.386185</ele>
        <time>2026-01-29T09:32:49Z</time>
      </trkpt>
      <trkpt lat="48.65463" lon="-3.25045">
        <ele>89.64289</ele>
        <time>2026-01-29T09:32:52Z</time>
      </trkpt>
      <trkpt lat="48.65483" lon="-3.25017">
        <ele>88.885956</ele>
        <time>2026-01-29T09:32:55Z</time>
      </trkpt>
      <trkpt lat="48.65492" lon="-3.24994">
        <ele>88.10077</ele>
        <time>2026-01-29T09:32:57Z</time>
      </trkpt>
      <trkpt lat="48.65499" lon="-3.24967">
        <ele>87.29419</ele>
        <time>2026-01-29T09:32:59Z</time>
      </trkpt>
      <trkpt lat="48.65502" lon="-3.2494">
        <ele>86.47375</ele>
        <time>2026-01-29T09:33:01Z</time>
      </trkpt>
      <trkpt lat="48.65501" lon="-3.24903">
        <ele>85.63588</ele>
        <time>2026-01-29T09:33:04Z</time>
      </trkpt>
      <trkpt lat="48.65489" lon="-3.24871">
        <ele>84.74707</ele>
        <time>2026-01-29T09:33:07Z</time>
      </trkpt>
      <trkpt lat="48.65469" lon="-3.24843">
        <ele>83.780594</ele>
        <time>2026-01-29T09:33:10Z</time>
      </trkpt>
      <trkpt lat="48.65448" lon="-3.24816">
        <ele>82.67775</ele>
        <time>2026-01-29T09:33:13Z</time>
      </trkpt>
      <trkpt lat="48.65431" lon="-3.24785">
        <ele>81.42972</ele>
        <time>2026-01-29T09:33:16Z</time>
      </trkpt>
      <trkpt lat="48.65422" lon="-3.24757">
        <ele>80.07974</ele>
        <time>2026-01-29T09:33:18Z</time>
      </trkpt>
      <trkpt lat="48.65413" lon="-3.24729">
        <ele>78.65457</ele>
        <time>2026-01-29T09:33:20Z</time>
      </trkpt>
      <trkpt lat="48.65406" lon="-3.247">
        <ele>77.18704</ele>
        <time>2026-01-29T09:33:22Z</time>
      </trkpt>
      <trkpt lat="48.65398" lon="-3.24671">
        <ele>75.748405</ele>
        <time>2026-01-29T09:33:24Z</time>
      </trkpt>
      <trkpt lat="48.65392" lon="-3.24641">
        <ele>74.32981</ele>
        <time>2026-01-29T09:33:26Z</time>
      </trkpt>
      <trkpt lat="48.6539" lon="-3.2461">
        <ele>72.95753</ele>
        <time>2026-01-29T09:33:28Z</time>
      </trkpt>
      <trkpt lat="48.65389" lon="-3.24578">
        <ele>71.69825</ele>
        <time>2026-01-29T09:33:30Z</time>
      </trkpt>
      <trkpt lat="48.6539" lon="-3.24546">
        <ele>70.54942</ele>
        <time>2026-01-29T09:33:32Z</time>
      </trkpt>
      <trkpt lat="48.65389" lon="-3.24514">
        <ele>69.44634</ele>
        <time>2026-01-29T09:33:34Z</time>
      </trkpt>
      <trkpt lat="48.65388" lon="-3.24482">
        <ele>68.36551</ele>
        <time>2026-01-29T09:33:36Z</time>
      </trkpt>
      <trkpt lat="48.65382" lon="-3.24452">
        <ele>67.255394</ele>
        <time>2026-01-29T09:33:38Z</time>
      </trkpt>
      <trkpt lat="48.65375" lon="-3.24422">
        <ele>66.13032</ele>
        <time>2026-01-29T09:33:40Z</time>
      </trkpt>
      <trkpt lat="48.65371" lon="-3.24393">
        <ele>65.04185</ele>
        <time>2026-01-29T09:33:42Z</time>
      </trkpt>
      <trkpt lat="48.65369" lon="-3.24364">
        <ele>63.947464</ele>
        <time>2026-01-29T09:33:44Z</time>
      </trkpt>
      <trkpt lat="48.65367" lon="-3.24336">
        <ele>62.801968</ele>
        <time>2026-01-29T09:33:46Z</time>
      </trkpt>
      <trkpt lat="48.65369" lon="-3.24295">
        <ele>61.614555</ele>
        <time>2026-01-29T09:33:49Z</time>
      </trkpt>
      <trkpt lat="48.65372" lon="-3.24266">
        <ele>60.422844</ele>
        <time>2026-01-29T09:33:51Z</time>
      </trkpt>
      <trkpt lat="48.65382" lon="-3.24238">
        <ele>59.25545</ele>
        <time>2026-01-29T09:33:53Z</time>
      </trkpt>
      <trkpt lat="48.65393" lon="-3.24211">
        <ele>58.121315</ele>
        <time>2026-01-29T09:33:55Z</time>
      </trkpt>
      <trkpt lat="48.65405" lon="-3.24186">
        <ele>56.952087</ele>
        <time>2026-01-29T09:33:57Z</time>
      </trkpt>
      <trkpt lat="48.65417" lon="-3.24163">
        <ele>55.75061</ele>
        <time>2026-01-29T09:33:59Z</time>
      </trkpt>
      <trkpt lat="48.65429" lon="-3.24141">
        <ele>54.53933</ele>
        <time>2026-01-29T09:34:01Z</time>
      </trkpt>
      <trkpt lat="48.65446" lon="-3.24112">
        <ele>53.37711</ele>
        <time>2026-01-29T09:34:04Z</time>
      </trkpt>
      <trkpt lat="48.65465" lon="-3.24091">
        <ele>52.30397</ele>
        <time>2026-01-29T09:34:07Z</time>
      </trkpt>
      <trkpt lat="48.65483" lon="-3.24076">
        <ele>51.32753</ele>
        <time>2026-01-29T09:34:10Z</time>
      </trkpt>
      <trkpt lat="48.65499" lon="-3.24065">
        <ele>50.477856</ele>
        <time>2026-01-29T09:34:13Z</time>
      </trkpt>
      <trkpt lat="48.65516" lon="-3.24053">
        <ele>49.811363</ele>
        <time>2026-01-29T09:34:16Z</time>
      </trkpt>
      <trkpt lat="48.6553" lon="-3.2404">
        <ele>49.387253</ele>
        <time>2026-01-29T09:34:19Z</time>
      </trkpt>
      <trkpt lat="48.65549" lon="-3.24025">
        <ele>49.14471</ele>
        <time>2026-01-29T09:34:22Z</time>
      </trkpt>
      <trkpt lat="48.65567" lon="-3.24011">
        <ele>49.084335</ele>
        <time>2026-01-29T09:34:25Z</time>
      </trkpt>
      <trkpt lat="48.65588" lon="-3.23999">
        <ele>49.16831</ele>
        <time>2026-01-29T09:34:29Z</time>
      </trkpt>
      <trkpt lat="48.65602" lon="-3.23994">
        <ele>49.436</ele>
        <time>2026-01-29T09:34:32Z</time>
      </trkpt>
      <trkpt lat="48.65623" lon="-3.23987">
        <ele>49.844315</ele>
        <time>2026-01-29T09:34:36Z</time>
      </trkpt>
      <trkpt lat="48.65645" lon="-3.2398">
        <ele>50.351055</ele>
        <time>2026-01-29T09:34:40Z</time>
      </trkpt>
      <trkpt lat="48.65658" lon="-3.23974">
        <ele>50.88042</ele>
        <time>2026-01-29T09:34:43Z</time>
      </trkpt>
      <trkpt lat="48.65675" lon="-3.23969">
        <ele>51.484055</ele>
        <time>2026-01-29T09:34:47Z</time>
      </trkpt>
      <trkpt lat="48.65692" lon="-3.23955">
        <ele>52.20468</ele>
        <time>2026-01-29T09:34:50Z</time>
      </trkpt>
      <trkpt lat="48.65706" lon="-3.23945">
        <ele>53.014793</ele>
        <time>2026-01-29T09:34:53Z</time>
      </trkpt>
      <trkpt lat="48.6572" lon="-3.23936">
        <ele>53.835327</ele>
        <time>2026-01-29T09:34:56Z</time>
      </trkpt>
      <trkpt lat="48.65739" lon="-3.2393">
        <ele>54.683887</ele>
        <time>2026-01-29T09:35:00Z</time>
      </trkpt>
      <trkpt lat="48.65755" lon="-3.2392">
        <ele>55.529438</ele>
        <time>2026-01-29T09:35:03Z</time>
      </trkpt>
      <trkpt lat="48.65778" lon="-3.23909">
        <ele>56.40844</ele>
        <time>2026-01-29T09:35:07Z</time>
      </trkpt>
      <trkpt lat="48.65792" lon="-3.23903">
        <ele>57.35639</ele>
        <time>2026-01-29T09:35:10Z</time>
      </trkpt>
      <trkpt lat="48.65814" lon="-3.23894">
        <ele>58.338768</ele>
        <time>2026-01-29T09:35:14Z</time>
      </trkpt>
      <trkpt lat="48.65829" lon="-3.23887">
        <ele>59.356876</ele>
        <time>2026-01-29T09:35:17Z</time>
      </trkpt>
      <trkpt lat="48.65843" lon="-3.23882">
        <ele>60.42581</ele>
        <time>2026-01-29T09:35:20Z</time>
      </trkpt>
      <trkpt lat="48.65858" lon="-3.23872">
        <ele>61.451527</ele>
        <time>2026-01-29T09:35:23Z</time>
      </trkpt>
      <trkpt lat="48.65872" lon="-3.23861">
        <ele>62.33801</ele>
        <time>2026-01-29T09:35:26Z</time>
      </trkpt>
      <trkpt lat="48.6589" lon="-3.23841">
        <ele>63.048744</ele>
        <time>2026-01-29T09:35:30Z</time>
      </trkpt>
      <trkpt lat="48.65904" lon="-3.23817">
        <ele>63.442997</ele>
        <time>2026-01-29T09:35:33Z</time>
      </trkpt>
      <trkpt lat="48.65914" lon="-3.23786">
        <ele>63.475407</ele>
        <time>2026-01-29T09:35:37Z</time>
      </trkpt>
      <trkpt lat="48.65919" lon="-3.23753">
        <ele>63.119144</ele>
        <time>2026-01-29T09:35:41Z</time>
      </trkpt>
      <trkpt lat="48.65925" lon="-3.23719">
        <ele>62.344902</ele>
        <time>2026-01-29T09:35:45Z</time>
      </trkpt>
      <trkpt lat="48.65933" lon="-3.23692">
        <ele>61.229553</ele>
        <time>2026-01-29T09:35:49Z</time>
      </trkpt>
      <trkpt lat="48.6594" lon="-3.23668">
        <ele>59.961773</ele>
        <time>2026-01-29T09:35:52Z</time>
      </trkpt>
      <trkpt lat="48.65949" lon="-3.23652">
        <ele>58.678764</ele>
        <time>2026-01-29T09:35:55Z</time>
      </trkpt>
      <trkpt lat="48.65954" lon="-3.23628">
        <ele>57.59985</ele>
        <time>2026-01-29T09:35:59Z</time>
      </trkpt>
      <trkpt lat="48.65963" lon="-3.23606">
        <ele>56.73577</ele>
        <time>2026-01-29T09:36:03Z</time>
      </trkpt>
      <trkpt lat="48.6597" lon="-3.23586">
        <ele>56.14307</ele>
        <time>2026-01-29T09:36:07Z</time>
      </trkpt>
      <trkpt lat="48.65978" lon="-3.23568">
        <ele>55.911465</ele>
        <time>2026-01-29T09:36:11Z</time>
      </trkpt>
      <trkpt lat="48.65986" lon="-3.2355">
        <ele>56.031944</ele>
        <time>2026-01-29T09:36:14Z</time>
      </trkpt>
      <trkpt lat="48.65995" lon="-3.23527">
        <ele>56.4607</ele>
        <time>2026-01-29T09:36:18Z</time>
      </trkpt>
      <trkpt lat="48.66004" lon="-3.23506">
        <ele>57.127037</ele>
        <time>2026-01-29T09:36:22Z</time>
      </trkpt>
      <trkpt lat="48.66014" lon="-3.23486">
        <ele>57.867203</ele>
        <time>2026-01-29T09:36:26Z</time>
      </trkpt>
      <trkpt lat="48.66021" lon="-3.23466">
        <ele>58.669716</ele>
        <time>2026-01-29T09:36:30Z</time>
      </trkpt>
      <trkpt lat="48.6603" lon="-3.23447">
        <ele>59.607445</ele>
        <time>2026-01-29T09:36:34Z</time>
      </trkpt>
      <trkpt lat="48.66039" lon="-3.2343">
        <ele>60.571053</ele>
        <time>2026-01-29T09:36:38Z</time>
      </trkpt>
      <trkpt lat="48.66048" lon="-3.23409">
        <ele>61.51069</ele>
        <time>2026-01-29T09:36:43Z</time>
      </trkpt>
      <trkpt lat="48.66051" lon="-3.23399">
        <ele>62.40937</ele>
        <time>2026-01-29T09:36:45Z</time>
      </trkpt>
      <trkpt lat="48.66054" lon="-3.23378">
        <ele>63.229797</ele>
        <time>2026-01-29T09:36:49Z</time>
      </trkpt>
      <trkpt lat="48.66054" lon="-3.23356">
        <ele>63.98531</ele>
        <time>2026-01-29T09:36:53Z</time>
      </trkpt>
      <trkpt lat="48.66053" lon="-3.23334">
        <ele>64.68176</ele>
        <time>2026-01-29T09:36:57Z</time>
      </trkpt>
      <trkpt lat="48.66049" lon="-3.23313">
        <ele>65.20101</ele>
        <time>2026-01-29T09:37:01Z</time>
      </trkpt>
      <trkpt lat="48.66044" lon="-3.23293">
        <ele>65.55914</ele>
        <time>2026-01-29T09:37:05Z</time>
      </trkpt>
      <trkpt lat="48.66035" lon="-3.23276">
        <ele>65.815</ele>
        <time>2026-01-29T09:37:09Z</time>
      </trkpt>
      <trkpt lat="48.66021" lon="-3.23261">
        <ele>65.97852</ele>
        <time>2026-01-29T09:37:14Z</time>
      </trkpt>
      <trkpt lat="48.66007" lon="-3.23249">
        <ele>66.10278</ele>
        <time>2026-01-29T09:37:18Z</time>
      </trkpt>
      <trkpt lat="48.6599" lon="-3.23243">
        <ele>66.24966</ele>
        <time>2026-01-29T09:37:22Z</time>
      </trkpt>
      <trkpt lat="48.65974" lon="-3.23233">
        <ele>66.462166</ele>
        <time>2026-01-29T09:37:26Z</time>
      </trkpt>
      <trkpt lat="48.65962" lon="-3.23224">
        <ele>66.78049</ele>
        <time>2026-01-29T09:37:29Z</time>
      </trkpt>
      <trkpt lat="48.65946" lon="-3.23209">
        <ele>67.217865</ele>
        <time>2026-01-29T09:37:33Z</time>
      </trkpt>
      <trkpt lat="48.65937" lon="-3.23194">
        <ele>67.811844</ele>
        <time>2026-01-29T09:37:36Z</time>
      </trkpt>
      <trkpt lat="48.65929" lon="-3.23177">
        <ele>68.585434</ele>
        <time>2026-01-29T09:37:39Z</time>
      </trkpt>
      <trkpt lat="48.65923" lon="-3.23159">
        <ele>69.46413</ele>
        <time>2026-01-29T09:37:42Z</time>
      </trkpt>
      <trkpt lat="48.65916" lon="-3.23134">
        <ele>70.41446</ele>
        <time>2026-01-29T09:37:46Z</time>
      </trkpt>
      <trkpt lat="48.65909" lon="-3.23111">
        <ele>71.40235</ele>
        <time>2026-01-29T09:37:50Z</time>
      </trkpt>
      <trkpt lat="48.65903" lon="-3.23088">
        <ele>72.39402</ele>
        <time>2026-01-29T09:37:54Z</time>
      </trkpt>
      <trkpt lat="48.65898" lon="-3.23066">
        <ele>73.3974</ele>
        <time>2026-01-29T09:37:58Z</time>
      </trkpt>
      <trkpt lat="48.65893" lon="-3.23046">
        <ele>74.35583</ele>
        <time>2026-01-29T09:38:02Z</time>
      </trkpt>
      <trkpt lat="48.65887" lon="-3.23025">
        <ele>75.22089</ele>
        <time>2026-01-29T09:38:06Z</time>
      </trkpt>
      <trkpt lat="48.65881" lon="-3.23006">
        <ele>76.00642</ele>
        <time>2026-01-29T09:38:10Z</time>
      </trkpt>
      <trkpt lat="48.65875" lon="-3.22982">
        <ele>76.715</ele>
        <time>2026-01-29T09:38:15Z</time>
      </trkpt>
      <trkpt lat="48.65868" lon="-3.22959">
        <ele>77.39417</ele>
        <time>2026-01-29T09:38:20Z</time>
      </trkpt>
      <trkpt lat="48.65861" lon="-3.22937">
        <ele>78.03848</ele>
        <time>2026-01-29T09:38:25Z</time>
      </trkpt>
      <trkpt lat="48.65855" lon="-3.22915">
        <ele>78.64986</ele>
        <time>2026-01-29T09:38:30Z</time>
      </trkpt>
      <trkpt lat="48.6585" lon="-3.22894">
        <ele>79.23655</ele>
        <time>2026-01-29T09:38:35Z</time>
      </trkpt>
      <trkpt lat="48.65844" lon="-3.22874">
        <ele>79.86133</ele>
        <time>2026-01-29T09:38:40Z</time>
      </trkpt>
      <trkpt lat="48.65837" lon="-3.22855">
        <ele>80.54518</ele>
        <time>2026-01-29T09:38:45Z</time>
      </trkpt>
      <trkpt lat="48.65832" lon="-3.22835">
        <ele>81.2942</ele>
        <time>2026-01-29T09:38:50Z</time>
      </trkpt>
      <trkpt lat="48.65828" lon="-3.22824">
        <ele>82.048416</ele>
        <time>2026-01-29T09:38:53Z</time>
      </trkpt>
      <trkpt lat="48.65824" lon="-3.22801">
        <ele>82.792694</ele>
        <time>2026-01-29T09:38:59Z</time>
      </trkpt>
      <trkpt lat="48.65823" lon="-3.22777">
        <ele>83.51138</ele>
        <time>2026-01-29T09:39:05Z</time>
      </trkpt>
      <trkpt lat="48.65826" lon="-3.22756">
        <ele>84.201614</ele>
        <time>2026-01-29T09:39:10Z</time>
      </trkpt>
      <trkpt lat="48.65831" lon="-3.22764">
        <ele>84.82482</ele>
        <time>2026-01-29T09:39:20Z</time>
      </trkpt>
      <trkpt lat="48.65828" lon="-3.22774">
        <ele>85.33539</ele>
        <time>2026-01-29T09:39:23Z</time>
      </trkpt>
      <trkpt lat="48.65817" lon="-3.22787">
        <ele>85.71491</ele>
        <time>2026-01-29T09:39:28Z</time>
      </trkpt>
      <trkpt lat="48.65808" lon="-3.22785">
        <ele>85.979805</ele>
        <time>2026-01-29T09:39:31Z</time>
      </trkpt>
      <trkpt lat="48.65801" lon="-3.2278">
        <ele>86.21147</ele>
        <time>2026-01-29T09:39:34Z</time>
      </trkpt>
      <trkpt lat="48.65793" lon="-3.22774">
        <ele>86.418076</ele>
        <time>2026-01-29T09:39:38Z</time>
      </trkpt>
      <trkpt lat="48.65778" lon="-3.22766">
        <ele>86.639694</ele>
        <time>2026-01-29T09:39:44Z</time>
      </trkpt>
      <trkpt lat="48.65765" lon="-3.22759">
        <ele>86.871704</ele>
        <time>2026-01-29T09:39:48Z</time>
      </trkpt>
      <trkpt lat="48.65746" lon="-3.22757">
        <ele>87.12192</ele>
        <time>2026-01-29T09:39:52Z</time>
      </trkpt>
      <trkpt lat="48.65726" lon="-3.22756">
        <ele>87.399376</ele>
        <time>2026-01-29T09:39:56Z</time>
      </trkpt>
      <trkpt lat="48.6571" lon="-3.22755">
        <ele>87.70039</ele>
        <time>2026-01-29T09:39:59Z</time>
      </trkpt>
      <trkpt lat="48.65695" lon="-3.22754">
        <ele>87.974594</ele>
        <time>2026-01-29T09:40:02Z</time>
      </trkpt>
      <trkpt lat="48.65674" lon="-3.22751">
        <ele>88.207466</ele>
        <time>2026-01-29T09:40:06Z</time>
      </trkpt>
      <trkpt lat="48.65651" lon="-3.22747">
        <ele>88.39826</ele>
        <time>2026-01-29T09:40:10Z</time>
      </trkpt>
      <trkpt lat="48.65633" lon="-3.22743">
        <ele>88.56015</ele>
        <time>2026-01-29T09:40:13Z</time>
      </trkpt>
      <trkpt lat="48.65611" lon="-3.22736">
        <ele>88.72586</ele>
        <time>2026-01-29T09:40:17Z</time>
      </trkpt>
      <trkpt lat="48.65589" lon="-3.22732">
        <ele>88.895744</ele>
        <time>2026-01-29T09:40:21Z</time>
      </trkpt>
      <trkpt lat="48.65567" lon="-3.22728">
        <ele>89.057396</ele>
        <time>2026-01-29T09:40:25Z</time>
      </trkpt>
      <trkpt lat="48.65545" lon="-3.22723">
        <ele>89.28574</ele>
        <time>2026-01-29T09:40:29Z</time>
      </trkpt>
      <trkpt lat="48.65531" lon="-3.22718">
        <ele>89.62416</ele>
        <time>2026-01-29T09:40:32Z</time>
      </trkpt>
      <trkpt lat="48.65517" lon="-3.22714">
        <ele>90.029594</ele>
        <time>2026-01-29T09:40:35Z</time>
      </trkpt>
      <trkpt lat="48.65504" lon="-3.22708">
        <ele>90.44457</ele>
        <time>2026-01-29T09:40:38Z</time>
      </trkpt>
      <trkpt lat="48.6549" lon="-3.22704">
        <ele>90.8202</ele>
        <time>2026-01-29T09:40:42Z</time>
      </trkpt>
      <trkpt lat="48.65475" lon="-3.22699">
        <ele>91.166016</ele>
        <time>2026-01-29T09:40:46Z</time>
      </trkpt>
      <trkpt lat="48.6546" lon="-3.22695">
        <ele>91.508026</ele>
        <time>2026-01-29T09:40:50Z</time>
      </trkpt>
      <trkpt lat="48.65445" lon="-3.22691">
        <ele>91.798676</ele>
        <time>2026-01-29T09:40:54Z</time>
      </trkpt>
      <trkpt lat="48.65432" lon="-3.22687">
        <ele>91.94557</ele>
        <time>2026-01-29T09:40:58Z</time>
      </trkpt>
      <trkpt lat="48.65425" lon="-3.22685">
        <ele>91.94348</ele>
        <time>2026-01-29T09:41:01Z</time>
      </trkpt>
      <trkpt lat="48.65418" lon="-3.2268">
        <ele>91.86629</ele>
        <time>2026-01-29T09:41:08Z</time>
      </trkpt>
      <trkpt lat="48.65412" lon="-3.22683">
        <ele>91.76741</ele>
        <time>2026-01-29T09:41:14Z</time>
      </trkpt>
      <trkpt lat="48.65404" lon="-3.22685">
        <ele>91.657364</ele>
        <time>2026-01-29T09:41:20Z</time>
      </trkpt>
      <trkpt lat="48.65398" lon="-3.2269">
        <ele>91.52132</ele>
        <time>2026-01-29T09:41:25Z</time>
      </trkpt>
      <trkpt lat="48.65391" lon="-3.22696">
        <ele>91.33688</ele>
        <time>2026-01-29T09:41:30Z</time>
      </trkpt>
      <trkpt lat="48.65383" lon="-3.22701">
        <ele>91.15722</ele>
        <time>2026-01-29T09:41:35Z</time>
      </trkpt>
      <trkpt lat="48.65377" lon="-3.22706">
        <ele>91.02222</ele>
        <time>2026-01-29T09:41:39Z</time>
      </trkpt>
      <trkpt lat="48.6537" lon="-3.2271">
        <ele>90.90935</ele>
        <time>2026-01-29T09:41:43Z</time>
      </trkpt>
      <trkpt lat="48.65362" lon="-3.22713">
        <ele>90.790695</ele>
        <time>2026-01-29T09:41:47Z</time>
      </trkpt>
      <trkpt lat="48.65356" lon="-3.22717">
        <ele>90.673584</ele>
        <time>2026-01-29T09:41:50Z</time>
      </trkpt>
      <trkpt lat="48.65341" lon="-3.22725">
        <ele>90.572136</ele>
        <time>2026-01-29T09:41:56Z</time>
      </trkpt>
      <trkpt lat="48.65327" lon="-3.22732">
        <ele>90.489624</ele>
        <time>2026-01-29T09:42:02Z</time>
      </trkpt>
      <trkpt lat="48.65319" lon="-3.22737">
        <ele>90.45105</ele>
        <time>2026-01-29T09:42:06Z</time>
      </trkpt>
      <trkpt lat="48.6531" lon="-3.22743">
        <ele>90.466034</ele>
        <time>2026-01-29T09:42:10Z</time>
      </trkpt>
      <trkpt lat="48.65304" lon="-3.22748">
        <ele>90.52009</ele>
        <time>2026-01-29T09:42:13Z</time>
      </trkpt>
      <trkpt lat="48.65297" lon="-3.22753">
        <ele>90.62697</ele>
        <time>2026-01-29T09:42:16Z</time>
      </trkpt>
      <trkpt lat="48.65291" lon="-3.22758">
        <ele>90.761536</ele>
        <time>2026-01-29T09:42:19Z</time>
      </trkpt>
      <trkpt lat="48.65285" lon="-3.22762">
        <ele>90.90445</ele>
        <time>2026-01-29T09:42:22Z</time>
      </trkpt>
      <trkpt lat="48.65278" lon="-3.22766">
        <ele>91.06404</ele>
        <time>2026-01-29T09:42:25Z</time>
      </trkpt>
      <trkpt lat="48.65262" lon="-3.22772">
        <ele>91.227875</ele>
        <time>2026-01-29T09:42:30Z</time>
      </trkpt>
      <trkpt lat="48.65249" lon="-3.22769">
        <ele>91.37943</ele>
        <time>2026-01-29T09:42:34Z</time>
      </trkpt>
      <trkpt lat="48.65234" lon="-3.22756">
        <ele>91.517044</ele>
        <time>2026-01-29T09:42:39Z</time>
      </trkpt>
      <trkpt lat="48.65222" lon="-3.22744">
        <ele>91.638985</ele>
        <time>2026-01-29T09:42:43Z</time>
      </trkpt>
      <trkpt lat="48.65208" lon="-3.22733">
        <ele>91.749115</ele>
        <time>2026-01-29T09:42:48Z</time>
      </trkpt>
      <trkpt lat="48.65195" lon="-3.22726">
        <ele>91.87187</ele>
        <time>2026-01-29T09:42:53Z</time>
      </trkpt>
      <trkpt lat="48.6518" lon="-3.22717">
        <ele>92.001526</ele>
        <time>2026-01-29T09:42:58Z</time>
      </trkpt>
      <trkpt lat="48.65167" lon="-3.22709">
        <ele>92.13475</ele>
        <time>2026-01-29T09:43:02Z</time>
      </trkpt>
      <trkpt lat="48.65153" lon="-3.22701">
        <ele>92.267525</ele>
        <time>2026-01-29T09:43:06Z</time>
      </trkpt>
      <trkpt lat="48.65139" lon="-3.22694">
        <ele>92.40889</ele>
        <time>2026-01-29T09:43:10Z</time>
      </trkpt>
      <trkpt lat="48.65124" lon="-3.22685">
        <ele>92.55422</ele>
        <time>2026-01-29T09:43:14Z</time>
      </trkpt>
      <trkpt lat="48.65108" lon="-3.22675">
        <ele>92.69325</ele>
        <time>2026-01-29T09:43:18Z</time>
      </trkpt>
      <trkpt lat="48.65095" lon="-3.22667">
        <ele>92.79134</ele>
        <time>2026-01-29T09:43:21Z</time>
      </trkpt>
      <trkpt lat="48.65082" lon="-3.22659">
        <ele>92.82801</ele>
        <time>2026-01-29T09:43:24Z</time>
      </trkpt>
      <trkpt lat="48.6507" lon="-3.22651">
        <ele>92.80552</ele>
        <time>2026-01-29T09:43:27Z</time>
      </trkpt>
      <trkpt lat="48.65057" lon="-3.22643">
        <ele>92.71988</ele>
        <time>2026-01-29T09:43:30Z</time>
      </trkpt>
      <trkpt lat="48.65043" lon="-3.22634">
        <ele>92.57483</ele>
        <time>2026-01-29T09:43:33Z</time>
      </trkpt>
      <trkpt lat="48.65025" lon="-3.2262">
        <ele>92.36237</ele>
        <time>2026-01-29T09:43:37Z</time>
      </trkpt>
      <trkpt lat="48.65006" lon="-3.22604">
        <ele>92.10444</ele>
        <time>2026-01-29T09:43:41Z</time>
      </trkpt>
      <trkpt lat="48.64985" lon="-3.22592">
        <ele>91.82613</ele>
        <time>2026-01-29T09:43:45Z</time>
      </trkpt>
      <trkpt lat="48.64965" lon="-3.22588">
        <ele>91.544815</ele>
        <time>2026-01-29T09:43:48Z</time>
      </trkpt>
      <trkpt lat="48.64946" lon="-3.22586">
        <ele>91.27669</ele>
        <time>2026-01-29T09:43:51Z</time>
      </trkpt>
      <trkpt lat="48.64925" lon="-3.22577">
        <ele>91.084816</ele>
        <time>2026-01-29T09:43:55Z</time>
      </trkpt>
      <trkpt lat="48.64908" lon="-3.22564">
        <ele>90.96994</ele>
        <time>2026-01-29T09:43:58Z</time>
      </trkpt>
      <trkpt lat="48.64888" lon="-3.22545">
        <ele>90.93926</ele>
        <time>2026-01-29T09:44:02Z</time>
      </trkpt>
      <trkpt lat="48.64875" lon="-3.2253">
        <ele>91.012344</ele>
        <time>2026-01-29T09:44:05Z</time>
      </trkpt>
      <trkpt lat="48.64856" lon="-3.22509">
        <ele>91.15142</ele>
        <time>2026-01-29T09:44:09Z</time>
      </trkpt>
      <trkpt lat="48.64841" lon="-3.22499">
        <ele>91.34068</ele>
        <time>2026-01-29T09:44:12Z</time>
      </trkpt>
      <trkpt lat="48.64822" lon="-3.22487">
        <ele>91.57882</ele>
        <time>2026-01-29T09:44:16Z</time>
      </trkpt>
      <trkpt lat="48.64808" lon="-3.22482">
        <ele>91.79659</ele>
        <time>2026-01-29T09:44:19Z</time>
      </trkpt>
      <trkpt lat="48.64793" lon="-3.22477">
        <ele>91.92512</ele>
        <time>2026-01-29T09:44:22Z</time>
      </trkpt>
      <trkpt lat="48.64773" lon="-3.22471">
        <ele>91.98528</ele>
        <time>2026-01-29T09:44:26Z</time>
      </trkpt>
      <trkpt lat="48.64758" lon="-3.22465">
        <ele>91.94034</ele>
        <time>2026-01-29T09:44:29Z</time>
      </trkpt>
      <trkpt lat="48.64743" lon="-3.22459">
        <ele>91.812096</ele>
        <time>2026-01-29T09:44:32Z</time>
      </trkpt>
      <trkpt lat="48.64723" lon="-3.2245">
        <ele>91.63667</ele>
        <time>2026-01-29T09:44:36Z</time>
      </trkpt>
      <trkpt lat="48.64701" lon="-3.22444">
        <ele>91.427704</ele>
        <time>2026-01-29T09:44:40Z</time>
      </trkpt>
      <trkpt lat="48.64686" lon="-3.2244">
        <ele>91.1859</ele>
        <time>2026-01-29T09:44:43Z</time>
      </trkpt>
      <trkpt lat="48.6467" lon="-3.22437">
        <ele>90.9629</ele>
        <time>2026-01-29T09:44:46Z</time>
      </trkpt>
      <trkpt lat="48.6465" lon="-3.22434">
        <ele>90.74924</ele>
        <time>2026-01-29T09:44:50Z</time>
      </trkpt>
      <trkpt lat="48.64629" lon="-3.22431">
        <ele>90.55774</ele>
        <time>2026-01-29T09:44:54Z</time>
      </trkpt>
      <trkpt lat="48.64615" lon="-3.22431">
        <ele>90.415924</ele>
        <time>2026-01-29T09:44:57Z</time>
      </trkpt>
      <trkpt lat="48.64599" lon="-3.22433">
        <ele>90.29776</ele>
        <time>2026-01-29T09:45:00Z</time>
      </trkpt>
      <trkpt lat="48.64584" lon="-3.22434">
        <ele>90.20013</ele>
        <time>2026-01-29T09:45:03Z</time>
      </trkpt>
      <trkpt lat="48.64569" lon="-3.22438">
        <ele>90.1237</ele>
        <time>2026-01-29T09:45:06Z</time>
      </trkpt>
      <trkpt lat="48.64554" lon="-3.2244">
        <ele>90.10125</ele>
        <time>2026-01-29T09:45:09Z</time>
      </trkpt>
      <trkpt lat="48.64534" lon="-3.2244">
        <ele>90.144806</ele>
        <time>2026-01-29T09:45:13Z</time>
      </trkpt>
      <trkpt lat="48.64515" lon="-3.22433">
        <ele>90.2275</ele>
        <time>2026-01-29T09:45:17Z</time>
      </trkpt>
      <trkpt lat="48.64495" lon="-3.22423">
        <ele>90.30153</ele>
        <time>2026-01-29T09:45:21Z</time>
      </trkpt>
      <trkpt lat="48.64474" lon="-3.22412">
        <ele>90.33682</ele>
        <time>2026-01-29T09:45:25Z</time>
      </trkpt>
      <trkpt lat="48.64458" lon="-3.224">
        <ele>90.31165</ele>
        <time>2026-01-29T09:45:28Z</time>
      </trkpt>
      <trkpt lat="48.64441" lon="-3.22373">
        <ele>90.22553</ele>
        <time>2026-01-29T09:45:32Z</time>
      </trkpt>
      <trkpt lat="48.64431" lon="-3.22342">
        <ele>90.06886</ele>
        <time>2026-01-29T09:45:36Z</time>
      </trkpt>
      <trkpt lat="48.64421" lon="-3.22319">
        <ele>89.82261</ele>
        <time>2026-01-29T09:45:39Z</time>
      </trkpt>
      <trkpt lat="48.64407" lon="-3.22292">
        <ele>89.51143</ele>
        <time>2026-01-29T09:45:43Z</time>
      </trkpt>
      <trkpt lat="48.64393" lon="-3.22267">
        <ele>89.19584</ele>
        <time>2026-01-29T09:45:47Z</time>
      </trkpt>
      <trkpt lat="48.64378" lon="-3.22243">
        <ele>88.92586</ele>
        <time>2026-01-29T09:45:51Z</time>
      </trkpt>
      <trkpt lat="48.64364" lon="-3.22218">
        <ele>88.726585</ele>
        <time>2026-01-29T09:45:55Z</time>
      </trkpt>
      <trkpt lat="48.64348" lon="-3.22193">
        <ele>88.60919</ele>
        <time>2026-01-29T09:45:59Z</time>
      </trkpt>
      <trkpt lat="48.64334" lon="-3.22168">
        <ele>88.57294</ele>
        <time>2026-01-29T09:46:03Z</time>
      </trkpt>
      <trkpt lat="48.64318" lon="-3.22144">
        <ele>88.599</ele>
        <time>2026-01-29T09:46:07Z</time>
      </trkpt>
      <trkpt lat="48.64304" lon="-3.22127">
        <ele>88.67693</ele>
        <time>2026-01-29T09:46:10Z</time>
      </trkpt>
      <trkpt lat="48.64282" lon="-3.22114">
        <ele>88.76518</ele>
        <time>2026-01-29T09:46:14Z</time>
      </trkpt>
      <trkpt lat="48.64261" lon="-3.22107">
        <ele>88.83847</ele>
        <time>2026-01-29T09:46:18Z</time>
      </trkpt>
      <trkpt lat="48.64247" lon="-3.22102">
        <ele>88.86339</ele>
        <time>2026-01-29T09:46:21Z</time>
      </trkpt>
      <trkpt lat="48.6423" lon="-3.22092">
        <ele>88.84895</ele>
        <time>2026-01-29T09:46:25Z</time>
      </trkpt>
      <trkpt lat="48.64214" lon="-3.22074">
        <ele>88.775665</ele>
        <time>2026-01-29T09:46:29Z</time>
      </trkpt>
      <trkpt lat="48.64201" lon="-3.22054">
        <ele>88.61894</ele>
        <time>2026-01-29T09:46:32Z</time>
      </trkpt>
      <trkpt lat="48.64187" lon="-3.22031">
        <ele>88.360725</ele>
        <time>2026-01-29T09:46:35Z</time>
      </trkpt>
      <trkpt lat="48.64171" lon="-3.22003">
        <ele>87.956566</ele>
        <time>2026-01-29T09:46:38Z</time>
      </trkpt>
      <trkpt lat="48.64153" lon="-3.21972">
        <ele>87.34886</ele>
        <time>2026-01-29T09:46:41Z</time>
      </trkpt>
      <trkpt lat="48.64141" lon="-3.21949">
        <ele>86.52086</ele>
        <time>2026-01-29T09:46:43Z</time>
      </trkpt>
      <trkpt lat="48.64125" lon="-3.21926">
        <ele>85.40802</ele>
        <time>2026-01-29T09:46:45Z</time>
      </trkpt>
      <trkpt lat="48.6411" lon="-3.21901">
        <ele>83.97963</ele>
        <time>2026-01-29T09:46:47Z</time>
      </trkpt>
      <trkpt lat="48.64095" lon="-3.21878">
        <ele>82.25586</ele>
        <time>2026-01-29T09:46:49Z</time>
      </trkpt>
      <trkpt lat="48.6408" lon="-3.21854">
        <ele>80.26427</ele>
        <time>2026-01-29T09:46:51Z</time>
      </trkpt>
      <trkpt lat="48.64066" lon="-3.21832">
        <ele>78.09281</ele>
        <time>2026-01-29T09:46:53Z</time>
      </trkpt>
      <trkpt lat="48.64052" lon="-3.21809">
        <ele>75.84486</ele>
        <time>2026-01-29T09:46:55Z</time>
      </trkpt>
      <trkpt lat="48.64039" lon="-3.21783">
        <ele>73.607506</ele>
        <time>2026-01-29T09:46:57Z</time>
      </trkpt>
      <trkpt lat="48.64027" lon="-3.21758">
        <ele>71.44653</ele>
        <time>2026-01-29T09:46:59Z</time>
      </trkpt>
      <trkpt lat="48.64014" lon="-3.21736">
        <ele>69.451126</ele>
        <time>2026-01-29T09:47:01Z</time>
      </trkpt>
      <trkpt lat="48.63999" lon="-3.21718">
        <ele>67.68666</ele>
        <time>2026-01-29T09:47:03Z</time>
      </trkpt>
      <trkpt lat="48.63981" lon="-3.21702">
        <ele>66.24333</ele>
        <time>2026-01-29T09:47:06Z</time>
      </trkpt>
      <trkpt lat="48.63969" lon="-3.21691">
        <ele>65.12352</ele>
        <time>2026-01-29T09:47:09Z</time>
      </trkpt>
      <trkpt lat="48.63957" lon="-3.21678">
        <ele>64.34951</ele>
        <time>2026-01-29T09:47:14Z</time>
      </trkpt>
      <trkpt lat="48.63945" lon="-3.21665">
        <ele>63.917572</ele>
        <time>2026-01-29T09:47:18Z</time>
      </trkpt>
      <trkpt lat="48.6393" lon="-3.21653">
        <ele>63.856544</ele>
        <time>2026-01-29T09:47:22Z</time>
      </trkpt>
      <trkpt lat="48.63916" lon="-3.21642">
        <ele>64.153656</ele>
        <time>2026-01-29T09:47:26Z</time>
      </trkpt>
      <trkpt lat="48.639" lon="-3.21633">
        <ele>64.78823</ele>
        <time>2026-01-29T09:47:30Z</time>
      </trkpt>
      <trkpt lat="48.63886" lon="-3.2163">
        <ele>65.65242</ele>
        <time>2026-01-29T09:47:33Z</time>
      </trkpt>
      <trkpt lat="48.63872" lon="-3.2163">
        <ele>66.64195</ele>
        <time>2026-01-29T09:47:36Z</time>
      </trkpt>
      <trkpt lat="48.63857" lon="-3.21629">
        <ele>67.70084</ele>
        <time>2026-01-29T09:47:39Z</time>
      </trkpt>
      <trkpt lat="48.63837" lon="-3.21627">
        <ele>68.73178</ele>
        <time>2026-01-29T09:47:43Z</time>
      </trkpt>
      <trkpt lat="48.63818" lon="-3.21611">
        <ele>69.66199</ele>
        <time>2026-01-29T09:47:47Z</time>
      </trkpt>
      <trkpt lat="48.63802" lon="-3.21589">
        <ele>70.445625</ele>
        <time>2026-01-29T09:47:51Z</time>
      </trkpt>
      <trkpt lat="48.63786" lon="-3.21569">
        <ele>71.05872</ele>
        <time>2026-01-29T09:47:55Z</time>
      </trkpt>
      <trkpt lat="48.63768" lon="-3.21547">
        <ele>71.47706</ele>
        <time>2026-01-29T09:47:59Z</time>
      </trkpt>
      <trkpt lat="48.63752" lon="-3.21525">
        <ele>71.78449</ele>
        <time>2026-01-29T09:48:03Z</time>
      </trkpt>
      <trkpt lat="48.63736" lon="-3.21504">
        <ele>71.997986</ele>
        <time>2026-01-29T09:48:07Z</time>
      </trkpt>
      <trkpt lat="48.63718" lon="-3.21483">
        <ele>72.14501</ele>
        <time>2026-01-29T09:48:11Z</time>
      </trkpt>
      <trkpt lat="48.63705" lon="-3.21471">
        <ele>72.24529</ele>
        <time>2026-01-29T09:48:14Z</time>
      </trkpt>
      <trkpt lat="48.63692" lon="-3.2146">
        <ele>72.32339</ele>
        <time>2026-01-29T09:48:17Z</time>
      </trkpt>
      <trkpt lat="48.63673" lon="-3.21447">
        <ele>72.345856</ele>
        <time>2026-01-29T09:48:21Z</time>
      </trkpt>
      <trkpt lat="48.63661" lon="-3.21433">
        <ele>72.332245</ele>
        <time>2026-01-29T09:48:24Z</time>
      </trkpt>
      <trkpt lat="48.63642" lon="-3.21417">
        <ele>72.28311</ele>
        <time>2026-01-29T09:48:28Z</time>
      </trkpt>
      <trkpt lat="48.63628" lon="-3.21411">
        <ele>72.1878</ele>
        <time>2026-01-29T09:48:31Z</time>
      </trkpt>
      <trkpt lat="48.63615" lon="-3.21407">
        <ele>72.06914</ele>
        <time>2026-01-29T09:48:34Z</time>
      </trkpt>
      <trkpt lat="48.63599" lon="-3.21403">
        <ele>71.94409</ele>
        <time>2026-01-29T09:48:38Z</time>
      </trkpt>
      <trkpt lat="48.63583" lon="-3.21399">
        <ele>71.782486</ele>
        <time>2026-01-29T09:48:42Z</time>
      </trkpt>
      <trkpt lat="48.63566" lon="-3.21393">
        <ele>71.56061</ele>
        <time>2026-01-29T09:48:46Z</time>
      </trkpt>
      <trkpt lat="48.63553" lon="-3.21367">
        <ele>71.28619</ele>
        <time>2026-01-29T09:48:51Z</time>
      </trkpt>
      <trkpt lat="48.63548" lon="-3.21331">
        <ele>70.96867</ele>
        <time>2026-01-29T09:48:55Z</time>
      </trkpt>
      <trkpt lat="48.63543" lon="-3.21302">
        <ele>70.62607</ele>
        <time>2026-01-29T09:48:58Z</time>
      </trkpt>
      <trkpt lat="48.63539" lon="-3.21274">
        <ele>70.24205</ele>
        <time>2026-01-29T09:49:01Z</time>
      </trkpt>
      <trkpt lat="48.63536" lon="-3.21242">
        <ele>69.80389</ele>
        <time>2026-01-29T09:49:05Z</time>
      </trkpt>
      <trkpt lat="48.63528" lon="-3.21211">
        <ele>69.3042</ele>
        <time>2026-01-29T09:49:09Z</time>
      </trkpt>
      <trkpt lat="48.63523" lon="-3.21187">
        <ele>68.892044</ele>
        <time>2026-01-29T09:49:13Z</time>
      </trkpt>
      <trkpt lat="48.63519" lon="-3.21167">
        <ele>68.62799</ele>
        <time>2026-01-29T09:49:17Z</time>
      </trkpt>
      <trkpt lat="48.6352" lon="-3.21144">
        <ele>68.51485</ele>
        <time>2026-01-29T09:49:21Z</time>
      </trkpt>
      <trkpt lat="48.63526" lon="-3.21123">
        <ele>68.554405</ele>
        <time>2026-01-29T09:49:25Z</time>
      </trkpt>
      <trkpt lat="48.6353" lon="-3.21102">
        <ele>68.76159</ele>
        <time>2026-01-29T09:49:29Z</time>
      </trkpt>
      <trkpt lat="48.63534" lon="-3.21083">
        <ele>69.192215</ele>
        <time>2026-01-29T09:49:33Z</time>
      </trkpt>
      <trkpt lat="48.63533" lon="-3.21065">
        <ele>69.83841</ele>
        <time>2026-01-29T09:49:37Z</time>
      </trkpt>
      <trkpt lat="48.63531" lon="-3.21054">
        <ele>70.65416</ele>
        <time>2026-01-29T09:49:40Z</time>
      </trkpt>
      <trkpt lat="48.63529" lon="-3.21043">
        <ele>71.53882</ele>
        <time>2026-01-29T09:49:43Z</time>
      </trkpt>
      <trkpt lat="48.63527" lon="-3.21033">
        <ele>72.49429</ele>
        <time>2026-01-29T09:49:46Z</time>
      </trkpt>
      <trkpt lat="48.63518" lon="-3.21025">
        <ele>73.52901</ele>
        <time>2026-01-29T09:49:50Z</time>
      </trkpt>
      <trkpt lat="48.63502" lon="-3.21025">
        <ele>74.63799</ele>
        <time>2026-01-29T09:49:55Z</time>
      </trkpt>
      <trkpt lat="48.63487" lon="-3.2102">
        <ele>75.78924</ele>
        <time>2026-01-29T09:49:59Z</time>
      </trkpt>
      <trkpt lat="48.63473" lon="-3.21019">
        <ele>76.97731</ele>
        <time>2026-01-29T09:50:04Z</time>
      </trkpt>
      <trkpt lat="48.63462" lon="-3.21016">
        <ele>78.149155</ele>
        <time>2026-01-29T09:50:08Z</time>
      </trkpt>
      <trkpt lat="48.63453" lon="-3.2101">
        <ele>79.35709</ele>
        <time>2026-01-29T09:50:12Z</time>
      </trkpt>
      <trkpt lat="48.63441" lon="-3.21">
        <ele>80.5924</ele>
        <time>2026-01-29T09:50:17Z</time>
      </trkpt>
      <trkpt lat="48.63428" lon="-3.20987">
        <ele>81.78854</ele>
        <time>2026-01-29T09:50:22Z</time>
      </trkpt>
      <trkpt lat="48.63417" lon="-3.20974">
        <ele>82.91983</ele>
        <time>2026-01-29T09:50:27Z</time>
      </trkpt>
      <trkpt lat="48.63411" lon="-3.20969">
        <ele>83.9594</ele>
        <time>2026-01-29T09:50:30Z</time>
      </trkpt>
      <trkpt lat="48.63399" lon="-3.20958">
        <ele>84.93789</ele>
        <time>2026-01-29T09:50:35Z</time>
      </trkpt>
      <trkpt lat="48.63385" lon="-3.20947">
        <ele>85.828186</ele>
        <time>2026-01-29T09:50:40Z</time>
      </trkpt>
      <trkpt lat="48.63371" lon="-3.20936">
        <ele>86.680824</ele>
        <time>2026-01-29T09:50:45Z</time>
      </trkpt>
      <trkpt lat="48.63357" lon="-3.20924">
        <ele>87.454994</ele>
        <time>2026-01-29T09:50:50Z</time>
      </trkpt>
      <trkpt lat="48.63344" lon="-3.20914">
        <ele>88.174484</ele>
        <time>2026-01-29T09:50:55Z</time>
      </trkpt>
      <trkpt lat="48.6333" lon="-3.20906">
        <ele>88.85558</ele>
        <time>2026-01-29T09:51:00Z</time>
      </trkpt>
      <trkpt lat="48.63316" lon="-3.20902">
        <ele>89.49066</ele>
        <time>2026-01-29T09:51:05Z</time>
      </trkpt>
      <trkpt lat="48.63301" lon="-3.209">
        <ele>90.07224</ele>
        <time>2026-01-29T09:51:10Z</time>
      </trkpt>
      <trkpt lat="48.63285" lon="-3.209">
        <ele>90.63182</ele>
        <time>2026-01-29T09:51:15Z</time>
      </trkpt>
      <trkpt lat="48.63271" lon="-3.209">
        <ele>91.142715</ele>
        <time>2026-01-29T09:51:20Z</time>
      </trkpt>
      <trkpt lat="48.63255" lon="-3.20901">
        <ele>91.61807</ele>
        <time>2026-01-29T09:51:25Z</time>
      </trkpt>
      <trkpt lat="48.63239" lon="-3.209">
        <ele>92.08354</ele>
        <time>2026-01-29T09:51:30Z</time>
      </trkpt>
      <trkpt lat="48.63223" lon="-3.209">
        <ele>92.537834</ele>
        <time>2026-01-29T09:51:35Z</time>
      </trkpt>
      <trkpt lat="48.6321" lon="-3.209">
        <ele>93.011055</ele>
        <time>2026-01-29T09:51:39Z</time>
      </trkpt>
      <trkpt lat="48.63193" lon="-3.20901">
        <ele>93.53256</ele>
        <time>2026-01-29T09:51:44Z</time>
      </trkpt>
      <trkpt lat="48.63178" lon="-3.20901">
        <ele>94.10352</ele>
        <time>2026-01-29T09:51:48Z</time>
      </trkpt>
      <trkpt lat="48.63162" lon="-3.20901">
        <ele>94.68055</ele>
        <time>2026-01-29T09:51:52Z</time>
      </trkpt>
      <trkpt lat="48.63147" lon="-3.20901">
        <ele>95.282486</ele>
        <time>2026-01-29T09:51:56Z</time>
      </trkpt>
      <trkpt lat="48.63133" lon="-3.20901">
        <ele>95.85481</ele>
        <time>2026-01-29T09:51:59Z</time>
      </trkpt>
      <trkpt lat="48.63116" lon="-3.20901">
        <ele>96.40794</ele>
        <time>2026-01-29T09:52:03Z</time>
      </trkpt>
      <trkpt lat="48.63097" lon="-3.20902">
        <ele>96.929214</ele>
        <time>2026-01-29T09:52:07Z</time>
      </trkpt>
      <trkpt lat="48.63083" lon="-3.20901">
        <ele>97.40759</ele>
        <time>2026-01-29T09:52:10Z</time>
      </trkpt>
      <trkpt lat="48.63069" lon="-3.20901">
        <ele>97.844696</ele>
        <time>2026-01-29T09:52:13Z</time>
      </trkpt>
      <trkpt lat="48.63055" lon="-3.209">
        <ele>98.25316</ele>
        <time>2026-01-29T09:52:16Z</time>
      </trkpt>
      <trkpt lat="48.63036" lon="-3.20896">
        <ele>98.599</ele>
        <time>2026-01-29T09:52:20Z</time>
      </trkpt>
      <trkpt lat="48.63022" lon="-3.20892">
        <ele>98.91211</ele>
        <time>2026-01-29T09:52:23Z</time>
      </trkpt>
      <trkpt lat="48.63005" lon="-3.20888">
        <ele>99.21814</ele>
        <time>2026-01-29T09:52:27Z</time>
      </trkpt>
      <trkpt lat="48.62992" lon="-3.20884">
        <ele>99.506714</ele>
        <time>2026-01-29T09:52:30Z</time>
      </trkpt>
      <trkpt lat="48.62978" lon="-3.20881">
        <ele>99.76183</ele>
        <time>2026-01-29T09:52:33Z</time>
      </trkpt>
      <trkpt lat="48.62964" lon="-3.20876">
        <ele>99.98192</ele>
        <time>2026-01-29T09:52:36Z</time>
      </trkpt>
      <trkpt lat="48.6295" lon="-3.20872">
        <ele>100.157265</ele>
        <time>2026-01-29T09:52:39Z</time>
      </trkpt>
      <trkpt lat="48.62936" lon="-3.20867">
        <ele>100.295685</ele>
        <time>2026-01-29T09:52:42Z</time>
      </trkpt>
      <trkpt lat="48.62921" lon="-3.20862">
        <ele>100.413284</ele>
        <time>2026-01-29T09:52:45Z</time>
      </trkpt>
      <trkpt lat="48.62901" lon="-3.20853">
        <ele>100.465805</ele>
        <time>2026-01-29T09:52:49Z</time>
      </trkpt>
      <trkpt lat="48.62881" lon="-3.20842">
        <ele>100.4502</ele>
        <time>2026-01-29T09:52:53Z</time>
      </trkpt>
      <trkpt lat="48.6286" lon="-3.20831">
        <ele>100.36155</ele>
        <time>2026-01-29T09:52:57Z</time>
      </trkpt>
      <trkpt lat="48.62839" lon="-3.20818">
        <ele>100.20404</ele>
        <time>2026-01-29T09:53:01Z</time>
      </trkpt>
      <trkpt lat="48.62825" lon="-3.2081">
        <ele>99.98977</ele>
        <time>2026-01-29T09:53:04Z</time>
      </trkpt>
      <trkpt lat="48.62812" lon="-3.20802">
        <ele>99.73943</ele>
        <time>2026-01-29T09:53:07Z</time>
      </trkpt>
      <trkpt lat="48.62792" lon="-3.20791">
        <ele>99.41343</ele>
        <time>2026-01-29T09:53:11Z</time>
      </trkpt>
      <trkpt lat="48.62773" lon="-3.2078">
        <ele>99.04613</ele>
        <time>2026-01-29T09:53:15Z</time>
      </trkpt>
      <trkpt lat="48.62754" lon="-3.2077">
        <ele>98.67737</ele>
        <time>2026-01-29T09:53:19Z</time>
      </trkpt>
      <trkpt lat="48.62735" lon="-3.20758">
        <ele>98.35418</ele>
        <time>2026-01-29T09:53:23Z</time>
      </trkpt>
      <trkpt lat="48.62721" lon="-3.2075">
        <ele>98.09955</ele>
        <time>2026-01-29T09:53:26Z</time>
      </trkpt>
      <trkpt lat="48.62707" lon="-3.20743">
        <ele>97.92343</ele>
        <time>2026-01-29T09:53:29Z</time>
      </trkpt>
      <trkpt lat="48.62692" lon="-3.20733">
        <ele>97.8104</ele>
        <time>2026-01-29T09:53:33Z</time>
      </trkpt>
      <trkpt lat="48.62676" lon="-3.20725">
        <ele>97.81384</ele>
        <time>2026-01-29T09:53:37Z</time>
      </trkpt>
      <trkpt lat="48.62661" lon="-3.20716">
        <ele>97.94057</ele>
        <time>2026-01-29T09:53:41Z</time>
      </trkpt>
      <trkpt lat="48.62646" lon="-3.20707">
        <ele>98.16922</ele>
        <time>2026-01-29T09:53:45Z</time>
      </trkpt>
      <trkpt lat="48.62631" lon="-3.20699">
        <ele>98.459915</ele>
        <time>2026-01-29T09:53:49Z</time>
      </trkpt>
      <trkpt lat="48.62618" lon="-3.20692">
        <ele>98.79741</ele>
        <time>2026-01-29T09:53:53Z</time>
      </trkpt>
      <trkpt lat="48.62605" lon="-3.20686">
        <ele>99.22443</ele>
        <time>2026-01-29T09:53:57Z</time>
      </trkpt>
      <trkpt lat="48.62591" lon="-3.20681">
        <ele>99.735054</ele>
        <time>2026-01-29T09:54:01Z</time>
      </trkpt>
      <trkpt lat="48.62575" lon="-3.20673">
        <ele>100.32161</ele>
        <time>2026-01-29T09:54:06Z</time>
      </trkpt>
      <trkpt lat="48.62565" lon="-3.2067">
        <ele>100.952286</ele>
        <time>2026-01-29T09:54:10Z</time>
      </trkpt>
      <trkpt lat="48.62551" lon="-3.20664">
        <ele>101.62863</ele>
        <time>2026-01-29T09:54:15Z</time>
      </trkpt>
      <trkpt lat="48.62537" lon="-3.20659">
        <ele>102.352104</ele>
        <time>2026-01-29T09:54:20Z</time>
      </trkpt>
      <trkpt lat="48.62522" lon="-3.20657">
        <ele>103.13261</ele>
        <time>2026-01-29T09:54:25Z</time>
      </trkpt>
      <trkpt lat="48.62507" lon="-3.20657">
        <ele>103.92005</ele>
        <time>2026-01-29T09:54:30Z</time>
      </trkpt>
      <trkpt lat="48.62491" lon="-3.20657">
        <ele>104.69097</ele>
        <time>2026-01-29T09:54:35Z</time>
      </trkpt>
      <trkpt lat="48.62475" lon="-3.20657">
        <ele>105.45484</ele>
        <time>2026-01-29T09:54:40Z</time>
      </trkpt>
      <trkpt lat="48.6246" lon="-3.20655">
        <ele>106.23765</ele>
        <time>2026-01-29T09:54:45Z</time>
      </trkpt>
      <trkpt lat="48.62445" lon="-3.2065">
        <ele>107.0313</ele>
        <time>2026-01-29T09:54:50Z</time>
      </trkpt>
      <trkpt lat="48.62429" lon="-3.20645">
        <ele>107.864784</ele>
        <time>2026-01-29T09:54:55Z</time>
      </trkpt>
      <trkpt lat="48.62413" lon="-3.20639">
        <ele>108.732285</ele>
        <time>2026-01-29T09:55:00Z</time>
      </trkpt>
      <trkpt lat="48.62398" lon="-3.20629">
        <ele>109.6069</ele>
        <time>2026-01-29T09:55:05Z</time>
      </trkpt>
      <trkpt lat="48.62386" lon="-3.20618">
        <ele>110.5103</ele>
        <time>2026-01-29T09:55:09Z</time>
      </trkpt>
      <trkpt lat="48.62373" lon="-3.20609">
        <ele>111.414246</ele>
        <time>2026-01-29T09:55:13Z</time>
      </trkpt>
      <trkpt lat="48.62359" lon="-3.206">
        <ele>112.31627</ele>
        <time>2026-01-29T09:55:17Z</time>
      </trkpt>
      <trkpt lat="48.62348" lon="-3.20586">
        <ele>113.19783</ele>
        <time>2026-01-29T09:55:21Z</time>
      </trkpt>
      <trkpt lat="48.6234" lon="-3.20568">
        <ele>114.02214</ele>
        <time>2026-01-29T09:55:25Z</time>
      </trkpt>
      <trkpt lat="48.62332" lon="-3.20549">
        <ele>114.75084</ele>
        <time>2026-01-29T09:55:29Z</time>
      </trkpt>
      <trkpt lat="48.62323" lon="-3.20528">
        <ele>115.39799</ele>
        <time>2026-01-29T09:55:34Z</time>
      </trkpt>
      <trkpt lat="48.62311" lon="-3.2051">
        <ele>115.97074</ele>
        <time>2026-01-29T09:55:39Z</time>
      </trkpt>
      <trkpt lat="48.62296" lon="-3.20501">
        <ele>116.42829</ele>
        <time>2026-01-29T09:55:43Z</time>
      </trkpt>
      <trkpt lat="48.62286" lon="-3.20488">
        <ele>116.73871</ele>
        <time>2026-01-29T09:55:46Z</time>
      </trkpt>
      <trkpt lat="48.62279" lon="-3.20463">
        <ele>116.88612</ele>
        <time>2026-01-29T09:55:50Z</time>
      </trkpt>
      <trkpt lat="48.62274" lon="-3.20444">
        <ele>116.87807</ele>
        <time>2026-01-29T09:55:53Z</time>
      </trkpt>
      <trkpt lat="48.62265" lon="-3.20428">
        <ele>116.7487</ele>
        <time>2026-01-29T09:55:57Z</time>
      </trkpt>
      <trkpt lat="48.62253" lon="-3.20414">
        <ele>116.52113</ele>
        <time>2026-01-29T09:56:02Z</time>
      </trkpt>
      <trkpt lat="48.62241" lon="-3.20403">
        <ele>116.20298</ele>
        <time>2026-01-29T09:56:06Z</time>
      </trkpt>
      <trkpt lat="48.62229" lon="-3.20393">
        <ele>115.85237</ele>
        <time>2026-01-29T09:56:10Z</time>
      </trkpt>
      <trkpt lat="48.62216" lon="-3.20386">
        <ele>115.52213</ele>
        <time>2026-01-29T09:56:14Z</time>
      </trkpt>
      <trkpt lat="48.62201" lon="-3.20378">
        <ele>115.25013</ele>
        <time>2026-01-29T09:56:19Z</time>
      </trkpt>
      <trkpt lat="48.62186" lon="-3.20368">
        <ele>115.05379</ele>
        <time>2026-01-29T09:56:24Z</time>
      </trkpt>
      <trkpt lat="48.62173" lon="-3.20356">
        <ele>114.92201</ele>
        <time>2026-01-29T09:56:28Z</time>
      </trkpt>
      <trkpt lat="48.62163" lon="-3.20342">
        <ele>114.84705</ele>
        <time>2026-01-29T09:56:31Z</time>
      </trkpt>
      <trkpt lat="48.62149" lon="-3.20321">
        <ele>114.83458</ele>
        <time>2026-01-29T09:56:35Z</time>
      </trkpt>
      <trkpt lat="48.62133" lon="-3.20298">
        <ele>114.858826</ele>
        <time>2026-01-29T09:56:39Z</time>
      </trkpt>
      <trkpt lat="48.62117" lon="-3.20274">
        <ele>114.88239</ele>
        <time>2026-01-29T09:56:43Z</time>
      </trkpt>
      <trkpt lat="48.62104" lon="-3.20255">
        <ele>114.882</ele>
        <time>2026-01-29T09:56:46Z</time>
      </trkpt>
      <trkpt lat="48.62088" lon="-3.20231">
        <ele>114.834595</ele>
        <time>2026-01-29T09:56:50Z</time>
      </trkpt>
      <trkpt lat="48.62076" lon="-3.20216">
        <ele>114.72177</ele>
        <time>2026-01-29T09:56:53Z</time>
      </trkpt>
      <trkpt lat="48.62061" lon="-3.20197">
        <ele>114.53641</ele>
        <time>2026-01-29T09:56:57Z</time>
      </trkpt>
      <trkpt lat="48.62048" lon="-3.20183">
        <ele>114.265205</ele>
        <time>2026-01-29T09:57:00Z</time>
      </trkpt>
      <trkpt lat="48.62037" lon="-3.2017">
        <ele>113.91764</ele>
        <time>2026-01-29T09:57:03Z</time>
      </trkpt>
      <trkpt lat="48.62021" lon="-3.20155">
        <ele>113.50511</ele>
        <time>2026-01-29T09:57:07Z</time>
      </trkpt>
      <trkpt lat="48.62005" lon="-3.20137">
        <ele>113.04939</ele>
        <time>2026-01-29T09:57:11Z</time>
      </trkpt>
      <trkpt lat="48.61994" lon="-3.20124">
        <ele>112.56331</ele>
        <time>2026-01-29T09:57:14Z</time>
      </trkpt>
      <trkpt lat="48.61983" lon="-3.20111">
        <ele>112.074646</ele>
        <time>2026-01-29T09:57:17Z</time>
      </trkpt>
      <trkpt lat="48.61972" lon="-3.20097">
        <ele>111.63466</ele>
        <time>2026-01-29T09:57:20Z</time>
      </trkpt>
      <trkpt lat="48.61962" lon="-3.20082">
        <ele>111.273796</ele>
        <time>2026-01-29T09:57:23Z</time>
      </trkpt>
      <trkpt lat="48.61951" lon="-3.20066">
        <ele>111.05122</ele>
        <time>2026-01-29T09:57:26Z</time>
      </trkpt>
      <trkpt lat="48.61941" lon="-3.20048">
        <ele>110.94774</ele>
        <time>2026-01-29T09:57:29Z</time>
      </trkpt>
      <trkpt lat="48.61931" lon="-3.20033">
        <ele>110.97395</ele>
        <time>2026-01-29T09:57:32Z</time>
      </trkpt>
      <trkpt lat="48.61921" lon="-3.20016">
        <ele>111.132645</ele>
        <time>2026-01-29T09:57:35Z</time>
      </trkpt>
      <trkpt lat="48.61908" lon="-3.19991">
        <ele>111.41995</ele>
        <time>2026-01-29T09:57:39Z</time>
      </trkpt>
      <trkpt lat="48.61894" lon="-3.19967">
        <ele>111.787384</ele>
        <time>2026-01-29T09:57:43Z</time>
      </trkpt>
      <trkpt lat="48.61881" lon="-3.19943">
        <ele>112.18524</ele>
        <time>2026-01-29T09:57:47Z</time>
      </trkpt>
      <trkpt lat="48.61867" lon="-3.19919">
        <ele>112.538765</ele>
        <time>2026-01-29T09:57:51Z</time>
      </trkpt>
      <trkpt lat="48.61853" lon="-3.19896">
        <ele>112.82428</ele>
        <time>2026-01-29T09:57:55Z</time>
      </trkpt>
      <trkpt lat="48.61835" lon="-3.1988">
        <ele>113.05888</ele>
        <time>2026-01-29T09:57:59Z</time>
      </trkpt>
      <trkpt lat="48.61815" lon="-3.19872">
        <ele>113.19806</ele>
        <time>2026-01-29T09:58:03Z</time>
      </trkpt>
      <trkpt lat="48.61796" lon="-3.19872">
        <ele>113.25431</ele>
        <time>2026-01-29T09:58:07Z</time>
      </trkpt>
      <trkpt lat="48.61781" lon="-3.19871">
        <ele>113.26846</ele>
        <time>2026-01-29T09:58:10Z</time>
      </trkpt>
      <trkpt lat="48.61766" lon="-3.1987">
        <ele>113.28851</ele>
        <time>2026-01-29T09:58:13Z</time>
      </trkpt>
      <trkpt lat="48.61748" lon="-3.19868">
        <ele>113.32732</ele>
        <time>2026-01-29T09:58:17Z</time>
      </trkpt>
      <trkpt lat="48.61733" lon="-3.19867">
        <ele>113.43651</ele>
        <time>2026-01-29T09:58:20Z</time>
      </trkpt>
      <trkpt lat="48.61713" lon="-3.19864">
        <ele>113.559296</ele>
        <time>2026-01-29T09:58:24Z</time>
      </trkpt>
      <trkpt lat="48.61695" lon="-3.19863">
        <ele>113.76049</ele>
        <time>2026-01-29T09:58:28Z</time>
      </trkpt>
      <trkpt lat="48.61681" lon="-3.19861">
        <ele>114.055695</ele>
        <time>2026-01-29T09:58:31Z</time>
      </trkpt>
      <trkpt lat="48.61668" lon="-3.19859">
        <ele>114.40078</ele>
        <time>2026-01-29T09:58:34Z</time>
      </trkpt>
      <trkpt lat="48.6165" lon="-3.19856">
        <ele>114.761765</ele>
        <time>2026-01-29T09:58:38Z</time>
      </trkpt>
      <trkpt lat="48.61636" lon="-3.19853">
        <ele>115.14723</ele>
        <time>2026-01-29T09:58:41Z</time>
      </trkpt>
      <trkpt lat="48.61622" lon="-3.19849">
        <ele>115.542366</ele>
        <time>2026-01-29T09:58:44Z</time>
      </trkpt>
      <trkpt lat="48.61608" lon="-3.19846">
        <ele>115.9709</ele>
        <time>2026-01-29T09:58:47Z</time>
      </trkpt>
      <trkpt lat="48.61593" lon="-3.19843">
        <ele>116.4376</ele>
        <time>2026-01-29T09:58:50Z</time>
      </trkpt>
      <trkpt lat="48.6158" lon="-3.19839">
        <ele>116.88066</ele>
        <time>2026-01-29T09:58:53Z</time>
      </trkpt>
      <trkpt lat="48.61565" lon="-3.19834">
        <ele>117.29404</ele>
        <time>2026-01-29T09:58:56Z</time>
      </trkpt>
      <trkpt lat="48.61551" lon="-3.1983">
        <ele>117.68533</ele>
        <time>2026-01-29T09:58:59Z</time>
      </trkpt>
      <trkpt lat="48.61538" lon="-3.19826">
        <ele>118.06098</ele>
        <time>2026-01-29T09:59:02Z</time>
      </trkpt>
      <trkpt lat="48.61524" lon="-3.19822">
        <ele>118.41559</ele>
        <time>2026-01-29T09:59:05Z</time>
      </trkpt>
      <trkpt lat="48.61508" lon="-3.19817">
        <ele>118.77019</ele>
        <time>2026-01-29T09:59:09Z</time>
      </trkpt>
      <trkpt lat="48.6149" lon="-3.19813">
        <ele>119.10013</ele>
        <time>2026-01-29T09:59:13Z</time>
      </trkpt>
      <trkpt lat="48.61477" lon="-3.1981">
        <ele>119.41246</ele>
        <time>2026-01-29T09:59:16Z</time>
      </trkpt>
      <trkpt lat="48.61463" lon="-3.19807">
        <ele>119.71063</ele>
        <time>2026-01-29T09:59:19Z</time>
      </trkpt>
      <trkpt lat="48.61449" lon="-3.19803">
        <ele>120.01011</ele>
        <time>2026-01-29T09:59:22Z</time>
      </trkpt>
      <trkpt lat="48.61435" lon="-3.198">
        <ele>120.313156</ele>
        <time>2026-01-29T09:59:25Z</time>
      </trkpt>
      <trkpt lat="48.6142" lon="-3.19797">
        <ele>120.61035</ele>
        <time>2026-01-29T09:59:28Z</time>
      </trkpt>
      <trkpt lat="48.614" lon="-3.1979">
        <ele>120.882965</ele>
        <time>2026-01-29T09:59:32Z</time>
      </trkpt>
      <trkpt lat="48.61386" lon="-3.19782">
        <ele>121.13272</ele>
        <time>2026-01-29T09:59:35Z</time>
      </trkpt>
      <trkpt lat="48.61368" lon="-3.19768">
        <ele>121.384254</ele>
        <time>2026-01-29T09:59:39Z</time>
      </trkpt>
      <trkpt lat="48.6135" lon="-3.19756">
        <ele>121.6675</ele>
        <time>2026-01-29T09:59:43Z</time>
      </trkpt>
      <trkpt lat="48.61337" lon="-3.19748">
        <ele>121.9675</ele>
        <time>2026-01-29T09:59:46Z</time>
      </trkpt>
      <trkpt lat="48.61325" lon="-3.19738">
        <ele>122.27765</ele>
        <time>2026-01-29T09:59:49Z</time>
      </trkpt>
      <trkpt lat="48.61307" lon="-3.1972">
        <ele>122.59656</ele>
        <time>2026-01-29T09:59:53Z</time>
      </trkpt>
      <trkpt lat="48.61291" lon="-3.197">
        <ele>122.93164</ele>
        <time>2026-01-29T09:59:57Z</time>
      </trkpt>
      <trkpt lat="48.61283" lon="-3.19683">
        <ele>123.28854</ele>
        <time>2026-01-29T10:00:00Z</time>
      </trkpt>
      <trkpt lat="48.61269" lon="-3.1966">
        <ele>123.64824</ele>
        <time>2026-01-29T10:00:04Z</time>
      </trkpt>
      <trkpt lat="48.61259" lon="-3.19643">
        <ele>123.99923</ele>
        <time>2026-01-29T10:00:07Z</time>
      </trkpt>
      <trkpt lat="48.6125" lon="-3.19626">
        <ele>124.34849</ele>
        <time>2026-01-29T10:00:10Z</time>
      </trkpt>
      <trkpt lat="48.61241" lon="-3.1961">
        <ele>124.69726</ele>
        <time>2026-01-29T10:00:13Z</time>
      </trkpt>
      <trkpt lat="48.61232" lon="-3.19594">
        <ele>125.06757</ele>
        <time>2026-01-29T10:00:16Z</time>
      </trkpt>
      <trkpt lat="48.61221" lon="-3.19573">
        <ele>125.47386</ele>
        <time>2026-01-29T10:00:20Z</time>
      </trkpt>
      <trkpt lat="48.61214" lon="-3.19554">
        <ele>125.89874</ele>
        <time>2026-01-29T10:00:23Z</time>
      </trkpt>
      <trkpt lat="48.61206" lon="-3.19537">
        <ele>126.34068</ele>
        <time>2026-01-29T10:00:26Z</time>
      </trkpt>
      <trkpt lat="48.61198" lon="-3.19519">
        <ele>126.7904</ele>
        <time>2026-01-29T10:00:29Z</time>
      </trkpt>
      <trkpt lat="48.61189" lon="-3.19493">
        <ele>127.23352</ele>
        <time>2026-01-29T10:00:33Z</time>
      </trkpt>
      <trkpt lat="48.61176" lon="-3.19468">
        <ele>127.64936</ele>
        <time>2026-01-29T10:00:37Z</time>
      </trkpt>
      <trkpt lat="48.61164" lon="-3.19454">
        <ele>128.03319</ele>
        <time>2026-01-29T10:00:40Z</time>
      </trkpt>
      <trkpt lat="48.6115" lon="-3.19444">
        <ele>128.36623</ele>
        <time>2026-01-29T10:00:43Z</time>
      </trkpt>
      <trkpt lat="48.61137" lon="-3.19438">
        <ele>128.64359</ele>
        <time>2026-01-29T10:00:46Z</time>
      </trkpt>
      <trkpt lat="48.61123" lon="-3.19432">
        <ele>128.88182</ele>
        <time>2026-01-29T10:00:49Z</time>
      </trkpt>
      <trkpt lat="48.6111" lon="-3.19426">
        <ele>129.08281</ele>
        <time>2026-01-29T10:00:52Z</time>
      </trkpt>
      <trkpt lat="48.61097" lon="-3.19418">
        <ele>129.2524</ele>
        <time>2026-01-29T10:00:55Z</time>
      </trkpt>
      <trkpt lat="48.61084" lon="-3.19408">
        <ele>129.41693</ele>
        <time>2026-01-29T10:00:58Z</time>
      </trkpt>
      <trkpt lat="48.6107" lon="-3.194">
        <ele>129.57942</ele>
        <time>2026-01-29T10:01:01Z</time>
      </trkpt>
      <trkpt lat="48.61051" lon="-3.19388">
        <ele>129.72456</ele>
        <time>2026-01-29T10:01:05Z</time>
      </trkpt>
      <trkpt lat="48.61031" lon="-3.1938">
        <ele>129.84415</ele>
        <time>2026-01-29T10:01:09Z</time>
      </trkpt>
      <trkpt lat="48.61009" lon="-3.1937">
        <ele>129.92043</ele>
        <time>2026-01-29T10:01:13Z</time>
      </trkpt>
      <trkpt lat="48.60991" lon="-3.19361">
        <ele>129.95557</ele>
        <time>2026-01-29T10:01:16Z</time>
      </trkpt>
      <trkpt lat="48.60974" lon="-3.19351">
        <ele>129.96582</ele>
        <time>2026-01-29T10:01:19Z</time>
      </trkpt>
      <trkpt lat="48.60956" lon="-3.19343">
        <ele>129.94946</ele>
        <time>2026-01-29T10:01:22Z</time>
      </trkpt>
      <trkpt lat="48.60934" lon="-3.19333">
        <ele>129.86906</ele>
        <time>2026-01-29T10:01:26Z</time>
      </trkpt>
      <trkpt lat="48.60917" lon="-3.19324">
        <ele>129.75208</ele>
        <time>2026-01-29T10:01:29Z</time>
      </trkpt>
      <trkpt lat="48.60896" lon="-3.19316">
        <ele>129.61105</ele>
        <time>2026-01-29T10:01:33Z</time>
      </trkpt>
      <trkpt lat="48.60875" lon="-3.19307">
        <ele>129.48875</ele>
        <time>2026-01-29T10:01:37Z</time>
      </trkpt>
      <trkpt lat="48.60852" lon="-3.19297">
        <ele>129.39389</ele>
        <time>2026-01-29T10:01:41Z</time>
      </trkpt>
      <trkpt lat="48.6083" lon="-3.19289">
        <ele>129.33044</ele>
        <time>2026-01-29T10:01:45Z</time>
      </trkpt>
      <trkpt lat="48.60807" lon="-3.19283">
        <ele>129.26869</ele>
        <time>2026-01-29T10:01:49Z</time>
      </trkpt>
      <trkpt lat="48.60786" lon="-3.19277">
        <ele>129.23991</ele>
        <time>2026-01-29T10:01:53Z</time>
      </trkpt>
      <trkpt lat="48.60763" lon="-3.1927">
        <ele>129.24928</ele>
        <time>2026-01-29T10:01:57Z</time>
      </trkpt>
      <trkpt lat="48.60739" lon="-3.19267">
        <ele>129.31317</ele>
        <time>2026-01-29T10:02:01Z</time>
      </trkpt>
      <trkpt lat="48.60716" lon="-3.19265">
        <ele>129.4107</ele>
        <time>2026-01-29T10:02:05Z</time>
      </trkpt>
      <trkpt lat="48.60693" lon="-3.19262">
        <ele>129.507</ele>
        <time>2026-01-29T10:02:09Z</time>
      </trkpt>
      <trkpt lat="48.60671" lon="-3.19259">
        <ele>129.63144</ele>
        <time>2026-01-29T10:02:13Z</time>
      </trkpt>
      <trkpt lat="48.60649" lon="-3.19254">
        <ele>129.7866</ele>
        <time>2026-01-29T10:02:17Z</time>
      </trkpt>
      <trkpt lat="48.60626" lon="-3.19247">
        <ele>129.97241</ele>
        <time>2026-01-29T10:02:21Z</time>
      </trkpt>
      <trkpt lat="48.60603" lon="-3.1924">
        <ele>130.16951</ele>
        <time>2026-01-29T10:02:25Z</time>
      </trkpt>
      <trkpt lat="48.60581" lon="-3.19233">
        <ele>130.38972</ele>
        <time>2026-01-29T10:02:29Z</time>
      </trkpt>
      <trkpt lat="48.60558" lon="-3.19227">
        <ele>130.60759</ele>
        <time>2026-01-29T10:02:33Z</time>
      </trkpt>
      <trkpt lat="48.60543" lon="-3.19223">
        <ele>130.87317</ele>
        <time>2026-01-29T10:02:36Z</time>
      </trkpt>
      <trkpt lat="48.60521" lon="-3.19214">
        <ele>131.15707</ele>
        <time>2026-01-29T10:02:40Z</time>
      </trkpt>
      <trkpt lat="48.605" lon="-3.19204">
        <ele>131.44395</ele>
        <time>2026-01-29T10:02:44Z</time>
      </trkpt>
      <trkpt lat="48.6048" lon="-3.19191">
        <ele>131.73842</ele>
        <time>2026-01-29T10:02:48Z</time>
      </trkpt>
      <trkpt lat="48.60459" lon="-3.19178">
        <ele>132.0455</ele>
        <time>2026-01-29T10:02:52Z</time>
      </trkpt>
      <trkpt lat="48.60439" lon="-3.19164">
        <ele>132.35966</ele>
        <time>2026-01-29T10:02:56Z</time>
      </trkpt>
      <trkpt lat="48.60417" lon="-3.19151">
        <ele>132.68329</ele>
        <time>2026-01-29T10:03:00Z</time>
      </trkpt>
      <trkpt lat="48.60396" lon="-3.19143">
        <ele>133.01952</ele>
        <time>2026-01-29T10:03:04Z</time>
      </trkpt>
      <trkpt lat="48.60375" lon="-3.19135">
        <ele>133.34436</ele>
        <time>2026-01-29T10:03:08Z</time>
      </trkpt>
      <trkpt lat="48.60354" lon="-3.19127">
        <ele>133.68677</ele>
        <time>2026-01-29T10:03:12Z</time>
      </trkpt>
      <trkpt lat="48.60332" lon="-3.19121">
        <ele>134.0206</ele>
        <time>2026-01-29T10:03:16Z</time>
      </trkpt>
      <trkpt lat="48.60311" lon="-3.19116">
        <ele>134.33575</ele>
        <time>2026-01-29T10:03:20Z</time>
      </trkpt>
      <trkpt lat="48.60289" lon="-3.19113">
        <ele>134.64229</ele>
        <time>2026-01-29T10:03:24Z</time>
      </trkpt>
      <trkpt lat="48.60267" lon="-3.19109">
        <ele>134.94176</ele>
        <time>2026-01-29T10:03:28Z</time>
      </trkpt>
      <trkpt lat="48.60246" lon="-3.19098">
        <ele>135.19434</ele>
        <time>2026-01-29T10:03:32Z</time>
      </trkpt>
      <trkpt lat="48.60225" lon="-3.19084">
        <ele>135.36952</ele>
        <time>2026-01-29T10:03:36Z</time>
      </trkpt>
      <trkpt lat="48.60203" lon="-3.1907">
        <ele>135.44637</ele>
        <time>2026-01-29T10:03:40Z</time>
      </trkpt>
      <trkpt lat="48.60184" lon="-3.19059">
        <ele>135.47096</ele>
        <time>2026-01-29T10:03:44Z</time>
      </trkpt>
      <trkpt lat="48.60163" lon="-3.19049">
        <ele>135.45831</ele>
        <time>2026-01-29T10:03:48Z</time>
      </trkpt>
      <trkpt lat="48.60149" lon="-3.19042">
        <ele>135.40831</ele>
        <time>2026-01-29T10:03:51Z</time>
      </trkpt>
      <trkpt lat="48.60135" lon="-3.19036">
        <ele>135.36273</ele>
        <time>2026-01-29T10:03:54Z</time>
      </trkpt>
      <trkpt lat="48.6012" lon="-3.19028">
        <ele>135.352</ele>
        <time>2026-01-29T10:03:57Z</time>
      </trkpt>
      <trkpt lat="48.60101" lon="-3.19019">
        <ele>135.42278</ele>
        <time>2026-01-29T10:04:01Z</time>
      </trkpt>
      <trkpt lat="48.60086" lon="-3.19011">
        <ele>135.63661</ele>
        <time>2026-01-29T10:04:04Z</time>
      </trkpt>
      <trkpt lat="48.60071" lon="-3.19004">
        <ele>135.99709</ele>
        <time>2026-01-29T10:04:07Z</time>
      </trkpt>
      <trkpt lat="48.60057" lon="-3.18995">
        <ele>136.48813</ele>
        <time>2026-01-29T10:04:10Z</time>
      </trkpt>
      <trkpt lat="48.60039" lon="-3.18983">
        <ele>137.09274</ele>
        <time>2026-01-29T10:04:14Z</time>
      </trkpt>
      <trkpt lat="48.60024" lon="-3.18974">
        <ele>137.77956</ele>
        <time>2026-01-29T10:04:17Z</time>
      </trkpt>
      <trkpt lat="48.60006" lon="-3.18963">
        <ele>138.49551</ele>
        <time>2026-01-29T10:04:21Z</time>
      </trkpt>
      <trkpt lat="48.59986" lon="-3.18952">
        <ele>139.22177</ele>
        <time>2026-01-29T10:04:25Z</time>
      </trkpt>
      <trkpt lat="48.59972" lon="-3.18947">
        <ele>139.94272</ele>
        <time>2026-01-29T10:04:28Z</time>
      </trkpt>
      <trkpt lat="48.59952" lon="-3.18938">
        <ele>140.61308</ele>
        <time>2026-01-29T10:04:32Z</time>
      </trkpt>
      <trkpt lat="48.59938" lon="-3.18931">
        <ele>141.24052</ele>
        <time>2026-01-29T10:04:35Z</time>
      </trkpt>
      <trkpt lat="48.59917" lon="-3.18921">
        <ele>141.77061</ele>
        <time>2026-01-29T10:04:39Z</time>
      </trkpt>
      <trkpt lat="48.59896" lon="-3.1891">
        <ele>142.19348</ele>
        <time>2026-01-29T10:04:43Z</time>
      </trkpt>
      <trkpt lat="48.59876" lon="-3.18902">
        <ele>142.54509</ele>
        <time>2026-01-29T10:04:47Z</time>
      </trkpt>
      <trkpt lat="48.59854" lon="-3.18894">
        <ele>142.83707</ele>
        <time>2026-01-29T10:04:51Z</time>
      </trkpt>
      <trkpt lat="48.59834" lon="-3.18886">
        <ele>143.06236</ele>
        <time>2026-01-29T10:04:55Z</time>
      </trkpt>
      <trkpt lat="48.59819" lon="-3.18881">
        <ele>143.25017</ele>
        <time>2026-01-29T10:04:58Z</time>
      </trkpt>
      <trkpt lat="48.59798" lon="-3.18872">
        <ele>143.38231</ele>
        <time>2026-01-29T10:05:02Z</time>
      </trkpt>
      <trkpt lat="48.59777" lon="-3.18861">
        <ele>143.53232</ele>
        <time>2026-01-29T10:05:06Z</time>
      </trkpt>
      <trkpt lat="48.5976" lon="-3.18848">
        <ele>143.7095</ele>
        <time>2026-01-29T10:05:09Z</time>
      </trkpt>
      <trkpt lat="48.59743" lon="-3.18835">
        <ele>143.90408</ele>
        <time>2026-01-29T10:05:12Z</time>
      </trkpt>
      <trkpt lat="48.59722" lon="-3.18821">
        <ele>144.1188</ele>
        <time>2026-01-29T10:05:16Z</time>
      </trkpt>
      <trkpt lat="48.59703" lon="-3.18807">
        <ele>144.35768</ele>
        <time>2026-01-29T10:05:20Z</time>
      </trkpt>
      <trkpt lat="48.59683" lon="-3.18795">
        <ele>144.58905</ele>
        <time>2026-01-29T10:05:24Z</time>
      </trkpt>
      <trkpt lat="48.59668" lon="-3.18789">
        <ele>144.80673</ele>
        <time>2026-01-29T10:05:27Z</time>
      </trkpt>
      <trkpt lat="48.59655" lon="-3.18782">
        <ele>145.00099</ele>
        <time>2026-01-29T10:05:30Z</time>
      </trkpt>
      <trkpt lat="48.59641" lon="-3.18777">
        <ele>145.15775</ele>
        <time>2026-01-29T10:05:33Z</time>
      </trkpt>
      <trkpt lat="48.59622" lon="-3.1877">
        <ele>145.35945</ele>
        <time>2026-01-29T10:05:37Z</time>
      </trkpt>
      <trkpt lat="48.59609" lon="-3.18764">
        <ele>145.62735</ele>
        <time>2026-01-29T10:05:40Z</time>
      </trkpt>
      <trkpt lat="48.59592" lon="-3.18755">
        <ele>145.92964</ele>
        <time>2026-01-29T10:05:44Z</time>
      </trkpt>
      <trkpt lat="48.59573" lon="-3.18743">
        <ele>146.25333</ele>
        <time>2026-01-29T10:05:48Z</time>
      </trkpt>
      <trkpt lat="48.59553" lon="-3.18731">
        <ele>146.58098</ele>
        <time>2026-01-29T10:05:52Z</time>
      </trkpt>
      <trkpt lat="48.59531" lon="-3.18722">
        <ele>146.87424</ele>
        <time>2026-01-29T10:05:56Z</time>
      </trkpt>
      <trkpt lat="48.59513" lon="-3.18717">
        <ele>147.13966</ele>
        <time>2026-01-29T10:05:59Z</time>
      </trkpt>
      <trkpt lat="48.59493" lon="-3.18711">
        <ele>147.27277</ele>
        <time>2026-01-29T10:06:02Z</time>
      </trkpt>
      <trkpt lat="48.59473" lon="-3.18702">
        <ele>147.20802</ele>
        <time>2026-01-29T10:06:05Z</time>
      </trkpt>
      <trkpt lat="48.59454" lon="-3.18689">
        <ele>146.93898</ele>
        <time>2026-01-29T10:06:08Z</time>
      </trkpt>
      <trkpt lat="48.59435" lon="-3.18676">
        <ele>146.4879</ele>
        <time>2026-01-29T10:06:11Z</time>
      </trkpt>
      <trkpt lat="48.59418" lon="-3.18663">
        <ele>145.90375</ele>
        <time>2026-01-29T10:06:14Z</time>
      </trkpt>
      <trkpt lat="48.59401" lon="-3.1865">
        <ele>145.26158</ele>
        <time>2026-01-29T10:06:17Z</time>
      </trkpt>
      <trkpt lat="48.59379" lon="-3.18635">
        <ele>144.59814</ele>
        <time>2026-01-29T10:06:21Z</time>
      </trkpt>
      <trkpt lat="48.59359" lon="-3.1862">
        <ele>143.97127</ele>
        <time>2026-01-29T10:06:25Z</time>
      </trkpt>
      <trkpt lat="48.59339" lon="-3.18605">
        <ele>143.47096</ele>
        <time>2026-01-29T10:06:29Z</time>
      </trkpt>
      <trkpt lat="48.59319" lon="-3.1859">
        <ele>143.14345</ele>
        <time>2026-01-29T10:06:33Z</time>
      </trkpt>
      <trkpt lat="48.593" lon="-3.18576">
        <ele>143.02917</ele>
        <time>2026-01-29T10:06:37Z</time>
      </trkpt>
      <trkpt lat="48.59286" lon="-3.18566">
        <ele>143.12761</ele>
        <time>2026-01-29T10:06:40Z</time>
      </trkpt>
      <trkpt lat="48.59269" lon="-3.18553">
        <ele>143.38661</ele>
        <time>2026-01-29T10:06:44Z</time>
      </trkpt>
      <trkpt lat="48.59256" lon="-3.18545">
        <ele>143.78279</ele>
        <time>2026-01-29T10:06:47Z</time>
      </trkpt>
      <trkpt lat="48.59237" lon="-3.1853">
        <ele>144.26065</ele>
        <time>2026-01-29T10:06:51Z</time>
      </trkpt>
      <trkpt lat="48.59216" lon="-3.18516">
        <ele>144.74854</ele>
        <time>2026-01-29T10:06:55Z</time>
      </trkpt>
      <trkpt lat="48.59195" lon="-3.18503">
        <ele>145.17722</ele>
        <time>2026-01-29T10:06:59Z</time>
      </trkpt>
      <trkpt lat="48.59181" lon="-3.18496">
        <ele>145.48785</ele>
        <time>2026-01-29T10:07:02Z</time>
      </trkpt>
      <trkpt lat="48.59161" lon="-3.18487">
        <ele>145.66772</ele>
        <time>2026-01-29T10:07:06Z</time>
      </trkpt>
      <trkpt lat="48.5914" lon="-3.18477">
        <ele>145.70964</ele>
        <time>2026-01-29T10:07:10Z</time>
      </trkpt>
      <trkpt lat="48.59117" lon="-3.18469">
        <ele>145.59023</ele>
        <time>2026-01-29T10:07:14Z</time>
      </trkpt>
      <trkpt lat="48.59099" lon="-3.18462">
        <ele>145.30692</ele>
        <time>2026-01-29T10:07:17Z</time>
      </trkpt>
      <trkpt lat="48.5908" lon="-3.18455">
        <ele>144.89249</ele>
        <time>2026-01-29T10:07:20Z</time>
      </trkpt>
      <trkpt lat="48.5906" lon="-3.18448">
        <ele>144.39157</ele>
        <time>2026-01-29T10:07:23Z</time>
      </trkpt>
      <trkpt lat="48.59039" lon="-3.18442">
        <ele>143.82433</ele>
        <time>2026-01-29T10:07:26Z</time>
      </trkpt>
      <trkpt lat="48.5902" lon="-3.18441">
        <ele>143.2133</ele>
        <time>2026-01-29T10:07:29Z</time>
      </trkpt>
      <trkpt lat="48.59004" lon="-3.18442">
        <ele>142.55994</ele>
        <time>2026-01-29T10:07:32Z</time>
      </trkpt>
      <trkpt lat="48.5899" lon="-3.18442">
        <ele>141.86879</ele>
        <time>2026-01-29T10:07:35Z</time>
      </trkpt>
      <trkpt lat="48.58973" lon="-3.18441">
        <ele>141.20529</ele>
        <time>2026-01-29T10:07:39Z</time>
      </trkpt>
      <trkpt lat="48.58957" lon="-3.18443">
        <ele>140.61935</ele>
        <time>2026-01-29T10:07:44Z</time>
      </trkpt>
      <trkpt lat="48.58942" lon="-3.18446">
        <ele>140.16193</ele>
        <time>2026-01-29T10:07:49Z</time>
      </trkpt>
      <trkpt lat="48.58929" lon="-3.18444">
        <ele>139.83609</ele>
        <time>2026-01-29T10:07:53Z</time>
      </trkpt>
      <trkpt lat="48.58914" lon="-3.18441">
        <ele>139.63785</ele>
        <time>2026-01-29T10:07:57Z</time>
      </trkpt>
      <trkpt lat="48.58895" lon="-3.18437">
        <ele>139.53413</ele>
        <time>2026-01-29T10:08:01Z</time>
      </trkpt>
      <trkpt lat="48.58881" lon="-3.18436">
        <ele>139.54008</ele>
        <time>2026-01-29T10:08:04Z</time>
      </trkpt>
      <trkpt lat="48.58865" lon="-3.18435">
        <ele>139.63567</ele>
        <time>2026-01-29T10:08:08Z</time>
      </trkpt>
      <trkpt lat="48.58847" lon="-3.18433">
        <ele>139.75275</ele>
        <time>2026-01-29T10:08:12Z</time>
      </trkpt>
      <trkpt lat="48.58827" lon="-3.18429">
        <ele>139.79573</ele>
        <time>2026-01-29T10:08:16Z</time>
      </trkpt>
      <trkpt lat="48.58805" lon="-3.18417">
        <ele>139.72163</ele>
        <time>2026-01-29T10:08:20Z</time>
      </trkpt>
      <trkpt lat="48.58787" lon="-3.18399">
        <ele>139.5455</ele>
        <time>2026-01-29T10:08:24Z</time>
      </trkpt>
      <trkpt lat="48.58771" lon="-3.18381">
        <ele>139.31955</ele>
        <time>2026-01-29T10:08:28Z</time>
      </trkpt>
      <trkpt lat="48.58759" lon="-3.18367">
        <ele>139.09901</ele>
        <time>2026-01-29T10:08:31Z</time>
      </trkpt>
      <trkpt lat="48.58747" lon="-3.18354">
        <ele>138.90442</ele>
        <time>2026-01-29T10:08:34Z</time>
      </trkpt>
      <trkpt lat="48.58735" lon="-3.18342">
        <ele>138.77371</ele>
        <time>2026-01-29T10:08:37Z</time>
      </trkpt>
      <trkpt lat="48.58723" lon="-3.18328">
        <ele>138.74611</ele>
        <time>2026-01-29T10:08:40Z</time>
      </trkpt>
      <trkpt lat="48.58712" lon="-3.18316">
        <ele>138.87883</ele>
        <time>2026-01-29T10:08:43Z</time>
      </trkpt>
      <trkpt lat="48.58701" lon="-3.18304">
        <ele>139.14813</ele>
        <time>2026-01-29T10:08:46Z</time>
      </trkpt>
      <trkpt lat="48.5869" lon="-3.18292">
        <ele>139.53223</ele>
        <time>2026-01-29T10:08:49Z</time>
      </trkpt>
      <trkpt lat="48.58676" lon="-3.18276">
        <ele>139.98412</ele>
        <time>2026-01-29T10:08:53Z</time>
      </trkpt>
      <trkpt lat="48.58659" lon="-3.18258">
        <ele>140.44702</ele>
        <time>2026-01-29T10:08:57Z</time>
      </trkpt>
      <trkpt lat="48.58642" lon="-3.18238">
        <ele>140.85057</ele>
        <time>2026-01-29T10:09:01Z</time>
      </trkpt>
      <trkpt lat="48.58623" lon="-3.18219">
        <ele>141.17279</ele>
        <time>2026-01-29T10:09:05Z</time>
      </trkpt>
      <trkpt lat="48.58604" lon="-3.18199">
        <ele>141.40556</ele>
        <time>2026-01-29T10:09:09Z</time>
      </trkpt>
      <trkpt lat="48.58588" lon="-3.18184">
        <ele>141.5443</ele>
        <time>2026-01-29T10:09:12Z</time>
      </trkpt>
      <trkpt lat="48.58568" lon="-3.18166">
        <ele>141.59694</ele>
        <time>2026-01-29T10:09:16Z</time>
      </trkpt>
      <trkpt lat="48.5855" lon="-3.18146">
        <ele>141.55191</ele>
        <time>2026-01-29T10:09:20Z</time>
      </trkpt>
      <trkpt lat="48.58531" lon="-3.18123">
        <ele>141.41983</ele>
        <time>2026-01-29T10:09:24Z</time>
      </trkpt>
      <trkpt lat="48.58514" lon="-3.18098">
        <ele>141.23886</ele>
        <time>2026-01-29T10:09:28Z</time>
      </trkpt>
      <trkpt lat="48.58497" lon="-3.18074">
        <ele>141.03796</ele>
        <time>2026-01-29T10:09:32Z</time>
      </trkpt>
      <trkpt lat="48.58482" lon="-3.18048">
        <ele>140.81747</ele>
        <time>2026-01-29T10:09:36Z</time>
      </trkpt>
      <trkpt lat="48.58468" lon="-3.18027">
        <ele>140.57266</ele>
        <time>2026-01-29T10:09:40Z</time>
      </trkpt>
      <trkpt lat="48.58452" lon="-3.18004">
        <ele>140.285</ele>
        <time>2026-01-29T10:09:44Z</time>
      </trkpt>
      <trkpt lat="48.58435" lon="-3.17984">
        <ele>139.96678</ele>
        <time>2026-01-29T10:09:48Z</time>
      </trkpt>
      <trkpt lat="48.58415" lon="-3.17967">
        <ele>139.62871</ele>
        <time>2026-01-29T10:09:52Z</time>
      </trkpt>
      <trkpt lat="48.58395" lon="-3.17956">
        <ele>139.2892</ele>
        <time>2026-01-29T10:09:56Z</time>
      </trkpt>
      <trkpt lat="48.58373" lon="-3.17945">
        <ele>138.9507</ele>
        <time>2026-01-29T10:10:00Z</time>
      </trkpt>
      <trkpt lat="48.58352" lon="-3.17934">
        <ele>138.62094</ele>
        <time>2026-01-29T10:10:04Z</time>
      </trkpt>
      <trkpt lat="48.58331" lon="-3.17921">
        <ele>138.31778</ele>
        <time>2026-01-29T10:10:08Z</time>
      </trkpt>
      <trkpt lat="48.5831" lon="-3.17908">
        <ele>138.04166</ele>
        <time>2026-01-29T10:10:12Z</time>
      </trkpt>
      <trkpt lat="48.58291" lon="-3.17892">
        <ele>137.80606</ele>
        <time>2026-01-29T10:10:16Z</time>
      </trkpt>
      <trkpt lat="48.58271" lon="-3.17877">
        <ele>137.61052</ele>
        <time>2026-01-29T10:10:20Z</time>
      </trkpt>
      <trkpt lat="48.58249" lon="-3.17864">
        <ele>137.44296</ele>
        <time>2026-01-29T10:10:24Z</time>
      </trkpt>
      <trkpt lat="48.58228" lon="-3.17855">
        <ele>137.2645</ele>
        <time>2026-01-29T10:10:28Z</time>
      </trkpt>
      <trkpt lat="48.58208" lon="-3.17844">
        <ele>137.05072</ele>
        <time>2026-01-29T10:10:32Z</time>
      </trkpt>
      <trkpt lat="48.58188" lon="-3.1783">
        <ele>136.77533</ele>
        <time>2026-01-29T10:10:36Z</time>
      </trkpt>
      <trkpt lat="48.58173" lon="-3.17819">
        <ele>136.47855</ele>
        <time>2026-01-29T10:10:40Z</time>
      </trkpt>
      <trkpt lat="48.58157" lon="-3.17814">
        <ele>136.15964</ele>
        <time>2026-01-29T10:10:44Z</time>
      </trkpt>
      <trkpt lat="48.5814" lon="-3.17826">
        <ele>135.82565</ele>
        <time>2026-01-29T10:10:48Z</time>
      </trkpt>
      <trkpt lat="48.58128" lon="-3.17838">
        <ele>135.48015</ele>
        <time>2026-01-29T10:10:51Z</time>
      </trkpt>
      <trkpt lat="48.58112" lon="-3.17857">
        <ele>135.1784</ele>
        <time>2026-01-29T10:10:55Z</time>
      </trkpt>
      <trkpt lat="48.58096" lon="-3.1788">
        <ele>134.969</ele>
        <time>2026-01-29T10:10:59Z</time>
      </trkpt>
      <trkpt lat="48.58082" lon="-3.17902">
        <ele>134.88626</ele>
        <time>2026-01-29T10:11:03Z</time>
      </trkpt>
      <trkpt lat="48.58069" lon="-3.17926">
        <ele>134.92496</ele>
        <time>2026-01-29T10:11:07Z</time>
      </trkpt>
      <trkpt lat="48.58057" lon="-3.17951">
        <ele>135.05219</ele>
        <time>2026-01-29T10:11:11Z</time>
      </trkpt>
      <trkpt lat="48.5805" lon="-3.1797">
        <ele>135.25162</ele>
        <time>2026-01-29T10:11:14Z</time>
      </trkpt>
      <trkpt lat="48.58043" lon="-3.1799">
        <ele>135.50214</ele>
        <time>2026-01-29T10:11:17Z</time>
      </trkpt>
      <trkpt lat="48.58036" lon="-3.18009">
        <ele>135.77983</ele>
        <time>2026-01-29T10:11:20Z</time>
      </trkpt>
      <trkpt lat="48.58029" lon="-3.18029">
        <ele>136.02989</ele>
        <time>2026-01-29T10:11:23Z</time>
      </trkpt>
      <trkpt lat="48.58021" lon="-3.18053">
        <ele>136.21396</ele>
        <time>2026-01-29T10:11:27Z</time>
      </trkpt>
      <trkpt lat="48.58015" lon="-3.18075">
        <ele>136.2999</ele>
        <time>2026-01-29T10:11:31Z</time>
      </trkpt>
      <trkpt lat="48.58008" lon="-3.18096">
        <ele>136.29208</ele>
        <time>2026-01-29T10:11:35Z</time>
      </trkpt>
      <trkpt lat="48.58011" lon="-3.18119">
        <ele>136.23753</ele>
        <time>2026-01-29T10:11:40Z</time>
      </trkpt>
      <trkpt lat="48.58025" lon="-3.18129">
        <ele>136.2042</ele>
        <time>2026-01-29T10:11:45Z</time>
      </trkpt>
      <trkpt lat="48.58038" lon="-3.1814">
        <ele>136.21782</ele>
        <time>2026-01-29T10:11:49Z</time>
      </trkpt>
      <trkpt lat="48.58051" lon="-3.18152">
        <ele>136.32578</ele>
        <time>2026-01-29T10:11:53Z</time>
      </trkpt>
      <trkpt lat="48.58059" lon="-3.18159">
        <ele>136.55728</ele>
        <time>2026-01-29T10:11:56Z</time>
      </trkpt>
      <trkpt lat="48.58066" lon="-3.18164">
        <ele>136.93744</ele>
        <time>2026-01-29T10:11:59Z</time>
      </trkpt>
      <trkpt lat="48.58073" lon="-3.18166">
        <ele>137.49487</ele>
        <time>2026-01-29T10:12:03Z</time>
      </trkpt>
      <trkpt lat="48.58075" lon="-3.18166">
        <ele>138.18756</ele>
        <time>2026-01-29T10:12:07Z</time>
      </trkpt>
      <trkpt lat="48.58065" lon="-3.1817">
        <ele>138.92267</ele>
        <time>2026-01-29T10:17:57Z</time>
      </trkpt>
      <trkpt lat="48.58052" lon="-3.18159">
        <ele>139.66795</ele>
        <time>2026-01-29T10:18:03Z</time>
      </trkpt>
      <trkpt lat="48.58038" lon="-3.18145">
        <ele>140.356</ele>
        <time>2026-01-29T10:18:08Z</time>
      </trkpt>
      <trkpt lat="48.58024" lon="-3.18133">
        <ele>140.92702</ele>
        <time>2026-01-29T10:18:13Z</time>
      </trkpt>
      <trkpt lat="48.58016" lon="-3.18126">
        <ele>141.3476</ele>
        <time>2026-01-29T10:18:16Z</time>
      </trkpt>
      <trkpt lat="48.5801" lon="-3.1812">
        <ele>141.6011</ele>
        <time>2026-01-29T10:18:20Z</time>
      </trkpt>
      <trkpt lat="48.57996" lon="-3.18124">
        <ele>141.65434</ele>
        <time>2026-01-29T10:18:26Z</time>
      </trkpt>
      <trkpt lat="48.57987" lon="-3.18142">
        <ele>141.55453</ele>
        <time>2026-01-29T10:18:30Z</time>
      </trkpt>
      <trkpt lat="48.57978" lon="-3.18164">
        <ele>141.28593</ele>
        <time>2026-01-29T10:18:34Z</time>
      </trkpt>
      <trkpt lat="48.57967" lon="-3.18189">
        <ele>140.83531</ele>
        <time>2026-01-29T10:18:38Z</time>
      </trkpt>
      <trkpt lat="48.57953" lon="-3.18214">
        <ele>140.25778</ele>
        <time>2026-01-29T10:18:42Z</time>
      </trkpt>
      <trkpt lat="48.5794" lon="-3.1824">
        <ele>139.57037</ele>
        <time>2026-01-29T10:18:46Z</time>
      </trkpt>
      <trkpt lat="48.5793" lon="-3.18258">
        <ele>138.78137</ele>
        <time>2026-01-29T10:18:49Z</time>
      </trkpt>
      <trkpt lat="48.57922" lon="-3.18274">
        <ele>137.9294</ele>
        <time>2026-01-29T10:18:52Z</time>
      </trkpt>
      <trkpt lat="48.57913" lon="-3.18294">
        <ele>137.07678</ele>
        <time>2026-01-29T10:18:56Z</time>
      </trkpt>
      <trkpt lat="48.57904" lon="-3.1831">
        <ele>136.24318</ele>
        <time>2026-01-29T10:19:00Z</time>
      </trkpt>
      <trkpt lat="48.57894" lon="-3.18328">
        <ele>135.51505</ele>
        <time>2026-01-29T10:19:04Z</time>
      </trkpt>
      <trkpt lat="48.57885" lon="-3.18348">
        <ele>134.91164</ele>
        <time>2026-01-29T10:19:08Z</time>
      </trkpt>
      <trkpt lat="48.57876" lon="-3.18369">
        <ele>134.46638</ele>
        <time>2026-01-29T10:19:12Z</time>
      </trkpt>
      <trkpt lat="48.57871" lon="-3.18393">
        <ele>134.18707</ele>
        <time>2026-01-29T10:19:16Z</time>
      </trkpt>
      <trkpt lat="48.57874" lon="-3.18421">
        <ele>134.07704</ele>
        <time>2026-01-29T10:19:20Z</time>
      </trkpt>
      <trkpt lat="48.57881" lon="-3.18441">
        <ele>134.11807</ele>
        <time>2026-01-29T10:19:23Z</time>
      </trkpt>
      <trkpt lat="48.57886" lon="-3.18461">
        <ele>134.28377</ele>
        <time>2026-01-29T10:19:26Z</time>
      </trkpt>
      <trkpt lat="48.57892" lon="-3.18485">
        <ele>134.57927</ele>
        <time>2026-01-29T10:19:30Z</time>
      </trkpt>
      <trkpt lat="48.57899" lon="-3.18509">
        <ele>134.95596</ele>
        <time>2026-01-29T10:19:34Z</time>
      </trkpt>
      <trkpt lat="48.57907" lon="-3.18528">
        <ele>135.39053</ele>
        <time>2026-01-29T10:19:37Z</time>
      </trkpt>
      <trkpt lat="48.57913" lon="-3.18547">
        <ele>135.83997</ele>
        <time>2026-01-29T10:19:40Z</time>
      </trkpt>
      <trkpt lat="48.57925" lon="-3.18576">
        <ele>136.30963</ele>
        <time>2026-01-29T10:19:44Z</time>
      </trkpt>
      <trkpt lat="48.57936" lon="-3.18599">
        <ele>136.72316</ele>
        <time>2026-01-29T10:19:47Z</time>
      </trkpt>
      <trkpt lat="48.57951" lon="-3.18622">
        <ele>137.07773</ele>
        <time>2026-01-29T10:19:50Z</time>
      </trkpt>
      <trkpt lat="48.57963" lon="-3.18644">
        <ele>137.33441</ele>
        <time>2026-01-29T10:19:53Z</time>
      </trkpt>
      <trkpt lat="48.57973" lon="-3.18668">
        <ele>137.49855</ele>
        <time>2026-01-29T10:19:56Z</time>
      </trkpt>
      <trkpt lat="48.57982" lon="-3.18701">
        <ele>137.58995</ele>
        <time>2026-01-29T10:20:00Z</time>
      </trkpt>
      <trkpt lat="48.5799" lon="-3.18734">
        <ele>137.66573</ele>
        <time>2026-01-29T10:20:04Z</time>
      </trkpt>
      <trkpt lat="48.57996" lon="-3.18764">
        <ele>137.7396</ele>
        <time>2026-01-29T10:20:08Z</time>
      </trkpt>
      <trkpt lat="48.57999" lon="-3.18794">
        <ele>137.87245</ele>
        <time>2026-01-29T10:20:12Z</time>
      </trkpt>
      <trkpt lat="48.58001" lon="-3.18816">
        <ele>138.11848</ele>
        <time>2026-01-29T10:20:15Z</time>
      </trkpt>
      <trkpt lat="48.58004" lon="-3.18837">
        <ele>138.46709</ele>
        <time>2026-01-29T10:20:18Z</time>
      </trkpt>
      <trkpt lat="48.58006" lon="-3.18858">
        <ele>138.94449</ele>
        <time>2026-01-29T10:20:21Z</time>
      </trkpt>
      <trkpt lat="48.58008" lon="-3.18883">
        <ele>139.53079</ele>
        <time>2026-01-29T10:20:25Z</time>
      </trkpt>
      <trkpt lat="48.5801" lon="-3.18909">
        <ele>140.20145</ele>
        <time>2026-01-29T10:20:29Z</time>
      </trkpt>
      <trkpt lat="48.58011" lon="-3.18934">
        <ele>140.91515</ele>
        <time>2026-01-29T10:20:33Z</time>
      </trkpt>
      <trkpt lat="48.58015" lon="-3.18959">
        <ele>141.61397</ele>
        <time>2026-01-29T10:20:37Z</time>
      </trkpt>
      <trkpt lat="48.58016" lon="-3.18983">
        <ele>142.25896</ele>
        <time>2026-01-29T10:20:41Z</time>
      </trkpt>
      <trkpt lat="48.58019" lon="-3.19008">
        <ele>142.87775</ele>
        <time>2026-01-29T10:20:45Z</time>
      </trkpt>
      <trkpt lat="48.58021" lon="-3.19033">
        <ele>143.45587</ele>
        <time>2026-01-29T10:20:49Z</time>
      </trkpt>
      <trkpt lat="48.58023" lon="-3.19058">
        <ele>143.99</ele>
        <time>2026-01-29T10:20:53Z</time>
      </trkpt>
      <trkpt lat="48.58026" lon="-3.19082">
        <ele>144.4829</ele>
        <time>2026-01-29T10:20:57Z</time>
      </trkpt>
      <trkpt lat="48.58029" lon="-3.19105">
        <ele>144.95493</ele>
        <time>2026-01-29T10:21:01Z</time>
      </trkpt>
      <trkpt lat="48.58034" lon="-3.19128">
        <ele>145.42111</ele>
        <time>2026-01-29T10:21:05Z</time>
      </trkpt>
      <trkpt lat="48.5804" lon="-3.19148">
        <ele>145.9465</ele>
        <time>2026-01-29T10:21:09Z</time>
      </trkpt>
      <trkpt lat="48.58049" lon="-3.19169">
        <ele>146.53035</ele>
        <time>2026-01-29T10:21:14Z</time>
      </trkpt>
      <trkpt lat="48.58056" lon="-3.19189">
        <ele>147.18396</ele>
        <time>2026-01-29T10:21:19Z</time>
      </trkpt>
      <trkpt lat="48.58064" lon="-3.1921">
        <ele>147.93123</ele>
        <time>2026-01-29T10:21:24Z</time>
      </trkpt>
      <trkpt lat="48.58071" lon="-3.1923">
        <ele>148.74722</ele>
        <time>2026-01-29T10:21:29Z</time>
      </trkpt>
      <trkpt lat="48.58079" lon="-3.19251">
        <ele>149.63818</ele>
        <time>2026-01-29T10:21:34Z</time>
      </trkpt>
      <trkpt lat="48.58086" lon="-3.19271">
        <ele>150.59679</ele>
        <time>2026-01-29T10:21:39Z</time>
      </trkpt>
      <trkpt lat="48.58093" lon="-3.19292">
        <ele>151.57805</ele>
        <time>2026-01-29T10:21:44Z</time>
      </trkpt>
      <trkpt lat="48.581" lon="-3.19313">
        <ele>152.54848</ele>
        <time>2026-01-29T10:21:49Z</time>
      </trkpt>
      <trkpt lat="48.58104" lon="-3.19335">
        <ele>153.48575</ele>
        <time>2026-01-29T10:21:54Z</time>
      </trkpt>
      <trkpt lat="48.58109" lon="-3.19358">
        <ele>154.35512</ele>
        <time>2026-01-29T10:21:59Z</time>
      </trkpt>
      <trkpt lat="48.58115" lon="-3.19382">
        <ele>155.15155</ele>
        <time>2026-01-29T10:22:04Z</time>
      </trkpt>
      <trkpt lat="48.58121" lon="-3.19404">
        <ele>155.86848</ele>
        <time>2026-01-29T10:22:09Z</time>
      </trkpt>
      <trkpt lat="48.5811" lon="-3.19418">
        <ele>156.4719</ele>
        <time>2026-01-29T10:22:15Z</time>
      </trkpt>
      <trkpt lat="48.58096" lon="-3.19406">
        <ele>156.94781</ele>
        <time>2026-01-29T10:22:19Z</time>
      </trkpt>
      <trkpt lat="48.58081" lon="-3.19392">
        <ele>157.30783</ele>
        <time>2026-01-29T10:22:23Z</time>
      </trkpt>
      <trkpt lat="48.5807" lon="-3.19378">
        <ele>157.55684</ele>
        <time>2026-01-29T10:22:26Z</time>
      </trkpt>
      <trkpt lat="48.58055" lon="-3.19358">
        <ele>157.68108</ele>
        <time>2026-01-29T10:22:30Z</time>
      </trkpt>
      <trkpt lat="48.5804" lon="-3.19334">
        <ele>157.66629</ele>
        <time>2026-01-29T10:22:34Z</time>
      </trkpt>
      <trkpt lat="48.58027" lon="-3.19313">
        <ele>157.48119</ele>
        <time>2026-01-29T10:22:37Z</time>
      </trkpt>
      <trkpt lat="48.58015" lon="-3.19288">
        <ele>157.16336</ele>
        <time>2026-01-29T10:22:40Z</time>
      </trkpt>
      <trkpt lat="48.58001" lon="-3.19261">
        <ele>156.70639</ele>
        <time>2026-01-29T10:22:43Z</time>
      </trkpt>
      <trkpt lat="48.57986" lon="-3.19234">
        <ele>156.1033</ele>
        <time>2026-01-29T10:22:46Z</time>
      </trkpt>
      <trkpt lat="48.5797" lon="-3.19206">
        <ele>155.35513</ele>
        <time>2026-01-29T10:22:49Z</time>
      </trkpt>
      <trkpt lat="48.57952" lon="-3.19176">
        <ele>154.44739</ele>
        <time>2026-01-29T10:22:52Z</time>
      </trkpt>
      <trkpt lat="48.57934" lon="-3.19148">
        <ele>153.43208</ele>
        <time>2026-01-29T10:22:55Z</time>
      </trkpt>
      <trkpt lat="48.57917" lon="-3.19119">
        <ele>152.35733</ele>
        <time>2026-01-29T10:22:58Z</time>
      </trkpt>
      <trkpt lat="48.579" lon="-3.19093">
        <ele>151.24974</ele>
        <time>2026-01-29T10:23:01Z</time>
      </trkpt>
      <trkpt lat="48.57882" lon="-3.19067">
        <ele>150.11572</ele>
        <time>2026-01-29T10:23:04Z</time>
      </trkpt>
      <trkpt lat="48.57863" lon="-3.19043">
        <ele>148.98476</ele>
        <time>2026-01-29T10:23:07Z</time>
      </trkpt>
      <trkpt lat="48.57842" lon="-3.19022">
        <ele>147.8571</ele>
        <time>2026-01-29T10:23:10Z</time>
      </trkpt>
      <trkpt lat="48.57823" lon="-3.19003">
        <ele>146.75505</ele>
        <time>2026-01-29T10:23:13Z</time>
      </trkpt>
      <trkpt lat="48.57806" lon="-3.18982">
        <ele>145.67104</ele>
        <time>2026-01-29T10:23:16Z</time>
      </trkpt>
      <trkpt lat="48.57791" lon="-3.18961">
        <ele>144.57889</ele>
        <time>2026-01-29T10:23:19Z</time>
      </trkpt>
      <trkpt lat="48.57777" lon="-3.18941">
        <ele>143.46106</ele>
        <time>2026-01-29T10:23:22Z</time>
      </trkpt>
      <trkpt lat="48.57763" lon="-3.1892">
        <ele>142.33696</ele>
        <time>2026-01-29T10:23:25Z</time>
      </trkpt>
      <trkpt lat="48.5775" lon="-3.189">
        <ele>141.21764</ele>
        <time>2026-01-29T10:23:28Z</time>
      </trkpt>
      <trkpt lat="48.57732" lon="-3.18874">
        <ele>140.1297</ele>
        <time>2026-01-29T10:23:32Z</time>
      </trkpt>
      <trkpt lat="48.57719" lon="-3.18851">
        <ele>139.10973</ele>
        <time>2026-01-29T10:23:36Z</time>
      </trkpt>
      <trkpt lat="48.5771" lon="-3.18833">
        <ele>138.17473</ele>
        <time>2026-01-29T10:23:39Z</time>
      </trkpt>
      <trkpt lat="48.577" lon="-3.18818">
        <ele>137.34215</ele>
        <time>2026-01-29T10:23:43Z</time>
      </trkpt>
      <trkpt lat="48.57687" lon="-3.18833">
        <ele>136.62329</ele>
        <time>2026-01-29T10:23:48Z</time>
      </trkpt>
      <trkpt lat="48.57685" lon="-3.18855">
        <ele>136.02472</ele>
        <time>2026-01-29T10:23:52Z</time>
      </trkpt>
      <trkpt lat="48.57686" lon="-3.18878">
        <ele>135.52676</ele>
        <time>2026-01-29T10:23:56Z</time>
      </trkpt>
      <trkpt lat="48.57688" lon="-3.18903">
        <ele>135.14313</ele>
        <time>2026-01-29T10:24:00Z</time>
      </trkpt>
      <trkpt lat="48.57692" lon="-3.18927">
        <ele>134.8952</ele>
        <time>2026-01-29T10:24:04Z</time>
      </trkpt>
      <trkpt lat="48.57694" lon="-3.18941">
        <ele>134.7737</ele>
        <time>2026-01-29T10:24:07Z</time>
      </trkpt>
      <trkpt lat="48.5769" lon="-3.18947">
        <ele>134.77615</ele>
        <time>2026-01-29T10:24:14Z</time>
      </trkpt>
      <trkpt lat="48.5768" lon="-3.18948">
        <ele>134.9279</ele>
        <time>2026-01-29T10:25:34Z</time>
      </trkpt>
      <trkpt lat="48.57673" lon="-3.18951">
        <ele>135.23228</ele>
        <time>2026-01-29T10:25:41Z</time>
      </trkpt>
      <trkpt lat="48.57667" lon="-3.18954">
        <ele>135.6395</ele>
        <time>2026-01-29T10:25:50Z</time>
      </trkpt>
    </trkseg>
  </trk>
</gpx>